<?xml version="1.0" encoding="UTF-8" standalone="no" ?>
<gpx xmlns="http://www.topografix.com/GPX/1/1" xmlns:xsi="http://www.w3.org/2001/XMLSchema-instance" xsi:schemaLocation="http://www.topografix.com/GPX/1/1 http://www.topografix.com/GPX/1/1/gpx.xsd" version="1.1" creator="VisuGPX - https://www.visugpx.com">
  <metadata>
    <name>2013_09_05_Grand Colon</name>
    <desc><![CDATA[Randonnée de Chamrousse au Grand Colon via la Cascade de l\'Oursière ~ boris-petit.fr]]></desc>
  </metadata>
  <trk>
    <name><![CDATA[2013-09-05 21:02:28]]></name>
    <trkseg>
      <trkpt lat="45.15239" lon="5.88669">
        <ele>996.96</ele>
        <time>2013-09-05T14:38:26Z</time>
      </trkpt>
      <trkpt lat="45.15243" lon="5.88669">
        <ele>997</ele>
        <time>2013-09-05T14:38:27Z</time>
      </trkpt>
      <trkpt lat="45.15244" lon="5.88669">
        <ele>998.02</ele>
        <time>2013-09-05T14:38:40Z</time>
      </trkpt>
      <trkpt lat="45.15241" lon="5.8869">
        <ele>998.53</ele>
        <time>2013-09-05T14:39:12Z</time>
      </trkpt>
      <trkpt lat="45.15241" lon="5.88692">
        <ele>998.53</ele>
        <time>2013-09-05T14:39:13Z</time>
      </trkpt>
      <trkpt lat="45.15228" lon="5.88747">
        <ele>996.98</ele>
        <time>2013-09-05T14:39:33Z</time>
      </trkpt>
      <trkpt lat="45.15218" lon="5.88782">
        <ele>996.45</ele>
        <time>2013-09-05T14:39:46Z</time>
      </trkpt>
      <trkpt lat="45.15196" lon="5.888">
        <ele>996.98</ele>
        <time>2013-09-05T14:39:56Z</time>
      </trkpt>
      <trkpt lat="45.15193" lon="5.88806">
        <ele>996.98</ele>
        <time>2013-09-05T14:39:57Z</time>
      </trkpt>
      <trkpt lat="45.1519" lon="5.88814">
        <ele>996.82</ele>
        <time>2013-09-05T14:40:01Z</time>
      </trkpt>
      <trkpt lat="45.15175" lon="5.88825">
        <ele>997.94</ele>
        <time>2013-09-05T14:40:13Z</time>
      </trkpt>
      <trkpt lat="45.15166" lon="5.88849">
        <ele>998.88</ele>
        <time>2013-09-05T14:40:26Z</time>
      </trkpt>
      <trkpt lat="45.15156" lon="5.88864">
        <ele>1000.07</ele>
        <time>2013-09-05T14:40:35Z</time>
      </trkpt>
      <trkpt lat="45.1514" lon="5.88883">
        <ele>1001.24</ele>
        <time>2013-09-05T14:40:48Z</time>
      </trkpt>
      <trkpt lat="45.15134" lon="5.88888">
        <ele>1001.67</ele>
        <time>2013-09-05T14:40:52Z</time>
      </trkpt>
      <trkpt lat="45.15116" lon="5.88904">
        <ele>1002.81</ele>
        <time>2013-09-05T14:41:05Z</time>
      </trkpt>
      <trkpt lat="45.15106" lon="5.88915">
        <ele>1003</ele>
        <time>2013-09-05T14:41:16Z</time>
      </trkpt>
      <trkpt lat="45.15092" lon="5.88928">
        <ele>1004.37</ele>
        <time>2013-09-05T14:41:26Z</time>
      </trkpt>
      <trkpt lat="45.15076" lon="5.88942">
        <ele>1005.4</ele>
        <time>2013-09-05T14:41:40Z</time>
      </trkpt>
      <trkpt lat="45.15068" lon="5.88949">
        <ele>1005.91</ele>
        <time>2013-09-05T14:41:46Z</time>
      </trkpt>
      <trkpt lat="45.15057" lon="5.88966">
        <ele>1007.14</ele>
        <time>2013-09-05T14:42:02Z</time>
      </trkpt>
      <trkpt lat="45.15056" lon="5.88966">
        <ele>1007.21</ele>
        <time>2013-09-05T14:42:03Z</time>
      </trkpt>
      <trkpt lat="45.15035" lon="5.88977">
        <ele>1008.46</ele>
        <time>2013-09-05T14:42:15Z</time>
      </trkpt>
      <trkpt lat="45.15008" lon="5.88985">
        <ele>1009.83</ele>
        <time>2013-09-05T14:42:29Z</time>
      </trkpt>
      <trkpt lat="45.15006" lon="5.88985">
        <ele>1009.98</ele>
        <time>2013-09-05T14:42:30Z</time>
      </trkpt>
      <trkpt lat="45.14999" lon="5.88988">
        <ele>1010.32</ele>
        <time>2013-09-05T14:42:34Z</time>
      </trkpt>
      <trkpt lat="45.14992" lon="5.88992">
        <ele>1010.62</ele>
        <time>2013-09-05T14:42:39Z</time>
      </trkpt>
      <trkpt lat="45.14984" lon="5.88996">
        <ele>1011.04</ele>
        <time>2013-09-05T14:42:43Z</time>
      </trkpt>
      <trkpt lat="45.14961" lon="5.89016">
        <ele>1012.43</ele>
        <time>2013-09-05T14:42:59Z</time>
      </trkpt>
      <trkpt lat="45.14935" lon="5.89032">
        <ele>1014.5</ele>
        <time>2013-09-05T14:43:14Z</time>
      </trkpt>
      <trkpt lat="45.14913" lon="5.89047">
        <ele>1015.88</ele>
        <time>2013-09-05T14:43:27Z</time>
      </trkpt>
      <trkpt lat="45.14888" lon="5.89064">
        <ele>1017.76</ele>
        <time>2013-09-05T14:43:41Z</time>
      </trkpt>
      <trkpt lat="45.14868" lon="5.8908">
        <ele>1018.73</ele>
        <time>2013-09-05T14:43:55Z</time>
      </trkpt>
      <trkpt lat="45.14848" lon="5.89099">
        <ele>1018.89</ele>
        <time>2013-09-05T14:44:08Z</time>
      </trkpt>
      <trkpt lat="45.14846" lon="5.89099">
        <ele>1019.04</ele>
        <time>2013-09-05T14:44:09Z</time>
      </trkpt>
      <trkpt lat="45.14831" lon="5.89106">
        <ele>1018.49</ele>
        <time>2013-09-05T14:44:21Z</time>
      </trkpt>
      <trkpt lat="45.14812" lon="5.89116">
        <ele>1015.38</ele>
        <time>2013-09-05T14:44:31Z</time>
      </trkpt>
      <trkpt lat="45.14798" lon="5.89133">
        <ele>1014.27</ele>
        <time>2013-09-05T14:44:37Z</time>
      </trkpt>
      <trkpt lat="45.14776" lon="5.89151">
        <ele>1013.43</ele>
        <time>2013-09-05T14:44:44Z</time>
      </trkpt>
      <trkpt lat="45.14769" lon="5.8916">
        <ele>1012.75</ele>
        <time>2013-09-05T14:44:48Z</time>
      </trkpt>
      <trkpt lat="45.14766" lon="5.89166">
        <ele>1012.83</ele>
        <time>2013-09-05T14:44:50Z</time>
      </trkpt>
      <trkpt lat="45.1477" lon="5.89198">
        <ele>1016.08</ele>
        <time>2013-09-05T14:45:03Z</time>
      </trkpt>
      <trkpt lat="45.14782" lon="5.89219">
        <ele>1018.3</ele>
        <time>2013-09-05T14:45:15Z</time>
      </trkpt>
      <trkpt lat="45.1479" lon="5.89234">
        <ele>1019.21</ele>
        <time>2013-09-05T14:45:23Z</time>
      </trkpt>
      <trkpt lat="45.14798" lon="5.89262">
        <ele>1019.28</ele>
        <time>2013-09-05T14:45:35Z</time>
      </trkpt>
      <trkpt lat="45.14809" lon="5.89287">
        <ele>1020.32</ele>
        <time>2013-09-05T14:45:48Z</time>
      </trkpt>
      <trkpt lat="45.14817" lon="5.89303">
        <ele>1020.55</ele>
        <time>2013-09-05T14:45:55Z</time>
      </trkpt>
      <trkpt lat="45.14829" lon="5.89332">
        <ele>1022.24</ele>
        <time>2013-09-05T14:46:09Z</time>
      </trkpt>
      <trkpt lat="45.14848" lon="5.89364">
        <ele>1023.66</ele>
        <time>2013-09-05T14:46:24Z</time>
      </trkpt>
      <trkpt lat="45.14858" lon="5.8939">
        <ele>1026.81</ele>
        <time>2013-09-05T14:46:37Z</time>
      </trkpt>
      <trkpt lat="45.14868" lon="5.89411">
        <ele>1029.58</ele>
        <time>2013-09-05T14:46:48Z</time>
      </trkpt>
      <trkpt lat="45.14878" lon="5.89426">
        <ele>1033.26</ele>
        <time>2013-09-05T14:47:00Z</time>
      </trkpt>
      <trkpt lat="45.14881" lon="5.8943">
        <ele>1034.7</ele>
        <time>2013-09-05T14:47:04Z</time>
      </trkpt>
      <trkpt lat="45.14897" lon="5.89447">
        <ele>1038.33</ele>
        <time>2013-09-05T14:47:16Z</time>
      </trkpt>
      <trkpt lat="45.14911" lon="5.89462">
        <ele>1041.57</ele>
        <time>2013-09-05T14:47:26Z</time>
      </trkpt>
      <trkpt lat="45.14926" lon="5.89482">
        <ele>1043.72</ele>
        <time>2013-09-05T14:47:35Z</time>
      </trkpt>
      <trkpt lat="45.14936" lon="5.89496">
        <ele>1045.52</ele>
        <time>2013-09-05T14:47:43Z</time>
      </trkpt>
      <trkpt lat="45.14939" lon="5.89503">
        <ele>1046.63</ele>
        <time>2013-09-05T14:47:47Z</time>
      </trkpt>
      <trkpt lat="45.14943" lon="5.89516">
        <ele>1049.28</ele>
        <time>2013-09-05T14:47:54Z</time>
      </trkpt>
      <trkpt lat="45.14934" lon="5.89539">
        <ele>1052.04</ele>
        <time>2013-09-05T14:48:08Z</time>
      </trkpt>
      <trkpt lat="45.14916" lon="5.89568">
        <ele>1053.84</ele>
        <time>2013-09-05T14:48:23Z</time>
      </trkpt>
      <trkpt lat="45.14902" lon="5.89598">
        <ele>1056.06</ele>
        <time>2013-09-05T14:48:37Z</time>
      </trkpt>
      <trkpt lat="45.14899" lon="5.89611">
        <ele>1056.92</ele>
        <time>2013-09-05T14:48:43Z</time>
      </trkpt>
      <trkpt lat="45.14891" lon="5.8962">
        <ele>1058.07</ele>
        <time>2013-09-05T14:48:49Z</time>
      </trkpt>
      <trkpt lat="45.14868" lon="5.89642">
        <ele>1061.3</ele>
        <time>2013-09-05T14:49:04Z</time>
      </trkpt>
      <trkpt lat="45.14851" lon="5.89662">
        <ele>1064.59</ele>
        <time>2013-09-05T14:49:17Z</time>
      </trkpt>
      <trkpt lat="45.14847" lon="5.89665">
        <ele>1065.22</ele>
        <time>2013-09-05T14:49:19Z</time>
      </trkpt>
      <trkpt lat="45.14831" lon="5.8969">
        <ele>1068.61</ele>
        <time>2013-09-05T14:49:32Z</time>
      </trkpt>
      <trkpt lat="45.14825" lon="5.89697">
        <ele>1070.32</ele>
        <time>2013-09-05T14:49:38Z</time>
      </trkpt>
      <trkpt lat="45.14823" lon="5.89699">
        <ele>1070.72</ele>
        <time>2013-09-05T14:49:40Z</time>
      </trkpt>
      <trkpt lat="45.14804" lon="5.89709">
        <ele>1074.19</ele>
        <time>2013-09-05T14:49:52Z</time>
      </trkpt>
      <trkpt lat="45.14788" lon="5.89721">
        <ele>1077.19</ele>
        <time>2013-09-05T14:50:04Z</time>
      </trkpt>
      <trkpt lat="45.14782" lon="5.89725">
        <ele>1078.63</ele>
        <time>2013-09-05T14:50:09Z</time>
      </trkpt>
      <trkpt lat="45.14768" lon="5.89738">
        <ele>1081.69</ele>
        <time>2013-09-05T14:50:21Z</time>
      </trkpt>
      <trkpt lat="45.14766" lon="5.89741">
        <ele>1081.91</ele>
        <time>2013-09-05T14:50:22Z</time>
      </trkpt>
      <trkpt lat="45.14762" lon="5.89747">
        <ele>1083.15</ele>
        <time>2013-09-05T14:50:26Z</time>
      </trkpt>
      <trkpt lat="45.14746" lon="5.89769">
        <ele>1086.67</ele>
        <time>2013-09-05T14:50:40Z</time>
      </trkpt>
      <trkpt lat="45.1473" lon="5.89791">
        <ele>1089.82</ele>
        <time>2013-09-05T14:50:52Z</time>
      </trkpt>
      <trkpt lat="45.1472" lon="5.89795">
        <ele>1090.59</ele>
        <time>2013-09-05T14:50:56Z</time>
      </trkpt>
      <trkpt lat="45.14714" lon="5.89803">
        <ele>1092.01</ele>
        <time>2013-09-05T14:51:03Z</time>
      </trkpt>
      <trkpt lat="45.14708" lon="5.89811">
        <ele>1094.01</ele>
        <time>2013-09-05T14:51:10Z</time>
      </trkpt>
      <trkpt lat="45.14695" lon="5.89836">
        <ele>1096.1</ele>
        <time>2013-09-05T14:51:23Z</time>
      </trkpt>
      <trkpt lat="45.1469" lon="5.89849">
        <ele>1097.48</ele>
        <time>2013-09-05T14:51:28Z</time>
      </trkpt>
      <trkpt lat="45.14685" lon="5.89854">
        <ele>1098.19</ele>
        <time>2013-09-05T14:51:31Z</time>
      </trkpt>
      <trkpt lat="45.14683" lon="5.89864">
        <ele>1099.09</ele>
        <time>2013-09-05T14:51:36Z</time>
      </trkpt>
      <trkpt lat="45.14677" lon="5.89877">
        <ele>1100.55</ele>
        <time>2013-09-05T14:51:42Z</time>
      </trkpt>
      <trkpt lat="45.14671" lon="5.89891">
        <ele>1102.01</ele>
        <time>2013-09-05T14:51:49Z</time>
      </trkpt>
      <trkpt lat="45.14654" lon="5.89917">
        <ele>1105.4</ele>
        <time>2013-09-05T14:52:03Z</time>
      </trkpt>
      <trkpt lat="45.14654" lon="5.89923">
        <ele>1106.06</ele>
        <time>2013-09-05T14:52:06Z</time>
      </trkpt>
      <trkpt lat="45.14654" lon="5.89929">
        <ele>1106.71</ele>
        <time>2013-09-05T14:52:10Z</time>
      </trkpt>
      <trkpt lat="45.14648" lon="5.89937">
        <ele>1107.71</ele>
        <time>2013-09-05T14:52:15Z</time>
      </trkpt>
      <trkpt lat="45.14638" lon="5.89958">
        <ele>1110.68</ele>
        <time>2013-09-05T14:52:28Z</time>
      </trkpt>
      <trkpt lat="45.14627" lon="5.89988">
        <ele>1113.48</ele>
        <time>2013-09-05T14:52:39Z</time>
      </trkpt>
      <trkpt lat="45.1462" lon="5.90013">
        <ele>1116.88</ele>
        <time>2013-09-05T14:52:53Z</time>
      </trkpt>
      <trkpt lat="45.14603" lon="5.9002">
        <ele>1119.89</ele>
        <time>2013-09-05T14:53:05Z</time>
      </trkpt>
      <trkpt lat="45.14601" lon="5.90028">
        <ele>1119.99</ele>
        <time>2013-09-05T14:53:09Z</time>
      </trkpt>
      <trkpt lat="45.14597" lon="5.90043">
        <ele>1121.17</ele>
        <time>2013-09-05T14:53:17Z</time>
      </trkpt>
      <trkpt lat="45.14587" lon="5.90071">
        <ele>1124.1</ele>
        <time>2013-09-05T14:53:33Z</time>
      </trkpt>
      <trkpt lat="45.14579" lon="5.90082">
        <ele>1125.03</ele>
        <time>2013-09-05T14:53:41Z</time>
      </trkpt>
      <trkpt lat="45.14567" lon="5.90105">
        <ele>1126.92</ele>
        <time>2013-09-05T14:53:55Z</time>
      </trkpt>
      <trkpt lat="45.1456" lon="5.90117">
        <ele>1129.24</ele>
        <time>2013-09-05T14:54:04Z</time>
      </trkpt>
      <trkpt lat="45.14557" lon="5.90123">
        <ele>1130.13</ele>
        <time>2013-09-05T14:54:08Z</time>
      </trkpt>
      <trkpt lat="45.14549" lon="5.90141">
        <ele>1132.11</ele>
        <time>2013-09-05T14:54:20Z</time>
      </trkpt>
      <trkpt lat="45.14552" lon="5.90157">
        <ele>1130.03</ele>
        <time>2013-09-05T14:54:25Z</time>
      </trkpt>
      <trkpt lat="45.1455" lon="5.90161">
        <ele>1130.95</ele>
        <time>2013-09-05T14:54:28Z</time>
      </trkpt>
      <trkpt lat="45.14544" lon="5.90169">
        <ele>1133.48</ele>
        <time>2013-09-05T14:54:34Z</time>
      </trkpt>
      <trkpt lat="45.14541" lon="5.90177">
        <ele>1134.47</ele>
        <time>2013-09-05T14:54:38Z</time>
      </trkpt>
      <trkpt lat="45.14534" lon="5.90192">
        <ele>1137.61</ele>
        <time>2013-09-05T14:54:48Z</time>
      </trkpt>
      <trkpt lat="45.14529" lon="5.90204">
        <ele>1140.85</ele>
        <time>2013-09-05T14:54:57Z</time>
      </trkpt>
      <trkpt lat="45.14526" lon="5.90208">
        <ele>1141.54</ele>
        <time>2013-09-05T14:55:00Z</time>
      </trkpt>
      <trkpt lat="45.14524" lon="5.9021">
        <ele>1142.02</ele>
        <time>2013-09-05T14:55:02Z</time>
      </trkpt>
      <trkpt lat="45.14519" lon="5.90223">
        <ele>1145.67</ele>
        <time>2013-09-05T14:55:12Z</time>
      </trkpt>
      <trkpt lat="45.14519" lon="5.90224">
        <ele>1145.93</ele>
        <time>2013-09-05T14:55:13Z</time>
      </trkpt>
      <trkpt lat="45.1451" lon="5.90244">
        <ele>1149.13</ele>
        <time>2013-09-05T14:55:25Z</time>
      </trkpt>
      <trkpt lat="45.14506" lon="5.9026">
        <ele>1152.27</ele>
        <time>2013-09-05T14:55:35Z</time>
      </trkpt>
      <trkpt lat="45.14503" lon="5.90288">
        <ele>1155.53</ele>
        <time>2013-09-05T14:55:48Z</time>
      </trkpt>
      <trkpt lat="45.14499" lon="5.903">
        <ele>1158.77</ele>
        <time>2013-09-05T14:55:57Z</time>
      </trkpt>
      <trkpt lat="45.14493" lon="5.90315">
        <ele>1161.46</ele>
        <time>2013-09-05T14:56:08Z</time>
      </trkpt>
      <trkpt lat="45.14479" lon="5.90329">
        <ele>1164.9</ele>
        <time>2013-09-05T14:56:17Z</time>
      </trkpt>
      <trkpt lat="45.14472" lon="5.9034">
        <ele>1168.05</ele>
        <time>2013-09-05T14:56:27Z</time>
      </trkpt>
      <trkpt lat="45.14461" lon="5.90356">
        <ele>1171.24</ele>
        <time>2013-09-05T14:56:39Z</time>
      </trkpt>
      <trkpt lat="45.1445" lon="5.90371">
        <ele>1173.93</ele>
        <time>2013-09-05T14:56:48Z</time>
      </trkpt>
      <trkpt lat="45.14436" lon="5.90389">
        <ele>1177.52</ele>
        <time>2013-09-05T14:57:01Z</time>
      </trkpt>
      <trkpt lat="45.14433" lon="5.90397">
        <ele>1179.11</ele>
        <time>2013-09-05T14:57:06Z</time>
      </trkpt>
      <trkpt lat="45.14452" lon="5.90426">
        <ele>1182.4</ele>
        <time>2013-09-05T14:57:21Z</time>
      </trkpt>
      <trkpt lat="45.14452" lon="5.9045">
        <ele>1185.51</ele>
        <time>2013-09-05T14:57:34Z</time>
      </trkpt>
      <trkpt lat="45.1445" lon="5.90471">
        <ele>1188.55</ele>
        <time>2013-09-05T14:57:47Z</time>
      </trkpt>
      <trkpt lat="45.1445" lon="5.90491">
        <ele>1191.71</ele>
        <time>2013-09-05T14:57:58Z</time>
      </trkpt>
      <trkpt lat="45.14452" lon="5.90508">
        <ele>1194.88</ele>
        <time>2013-09-05T14:58:09Z</time>
      </trkpt>
      <trkpt lat="45.14457" lon="5.90537">
        <ele>1197.73</ele>
        <time>2013-09-05T14:58:27Z</time>
      </trkpt>
      <trkpt lat="45.14455" lon="5.9055">
        <ele>1200.51</ele>
        <time>2013-09-05T14:58:39Z</time>
      </trkpt>
      <trkpt lat="45.14458" lon="5.90563">
        <ele>1203.78</ele>
        <time>2013-09-05T14:58:49Z</time>
      </trkpt>
      <trkpt lat="45.1446" lon="5.90575">
        <ele>1206.13</ele>
        <time>2013-09-05T14:58:57Z</time>
      </trkpt>
      <trkpt lat="45.14462" lon="5.90589">
        <ele>1208.61</ele>
        <time>2013-09-05T14:59:05Z</time>
      </trkpt>
      <trkpt lat="45.14468" lon="5.90606">
        <ele>1212.08</ele>
        <time>2013-09-05T14:59:16Z</time>
      </trkpt>
      <trkpt lat="45.14471" lon="5.90619">
        <ele>1215.15</ele>
        <time>2013-09-05T14:59:25Z</time>
      </trkpt>
      <trkpt lat="45.14469" lon="5.90628">
        <ele>1216.59</ele>
        <time>2013-09-05T14:59:30Z</time>
      </trkpt>
      <trkpt lat="45.14467" lon="5.90639">
        <ele>1218.52</ele>
        <time>2013-09-05T14:59:36Z</time>
      </trkpt>
      <trkpt lat="45.14466" lon="5.90645">
        <ele>1220.09</ele>
        <time>2013-09-05T14:59:40Z</time>
      </trkpt>
      <trkpt lat="45.1447" lon="5.90657">
        <ele>1223.88</ele>
        <time>2013-09-05T14:59:51Z</time>
      </trkpt>
      <trkpt lat="45.14469" lon="5.90669">
        <ele>1226.51</ele>
        <time>2013-09-05T15:00:00Z</time>
      </trkpt>
      <trkpt lat="45.14471" lon="5.90671">
        <ele>1227.28</ele>
        <time>2013-09-05T15:00:02Z</time>
      </trkpt>
      <trkpt lat="45.14473" lon="5.90685">
        <ele>1230.9</ele>
        <time>2013-09-05T15:00:13Z</time>
      </trkpt>
      <trkpt lat="45.14475" lon="5.90693">
        <ele>1233.93</ele>
        <time>2013-09-05T15:00:21Z</time>
      </trkpt>
      <trkpt lat="45.14476" lon="5.907">
        <ele>1235.65</ele>
        <time>2013-09-05T15:00:27Z</time>
      </trkpt>
      <trkpt lat="45.14475" lon="5.90713">
        <ele>1238.71</ele>
        <time>2013-09-05T15:00:36Z</time>
      </trkpt>
      <trkpt lat="45.14474" lon="5.90717">
        <ele>1239.21</ele>
        <time>2013-09-05T15:00:39Z</time>
      </trkpt>
      <trkpt lat="45.1441" lon="5.90782">
        <ele>1276.34</ele>
        <time>2013-09-05T15:01:49Z</time>
      </trkpt>
      <trkpt lat="45.14408" lon="5.90782">
        <ele>1276.34</ele>
        <time>2013-09-05T15:01:50Z</time>
      </trkpt>
      <trkpt lat="45.14456" lon="5.90726">
        <ele>1279.47</ele>
        <time>2013-09-05T15:02:04Z</time>
      </trkpt>
      <trkpt lat="45.14456" lon="5.90725">
        <ele>1282.64</ele>
        <time>2013-09-05T15:02:13Z</time>
      </trkpt>
      <trkpt lat="45.14455" lon="5.90726">
        <ele>1285.71</ele>
        <time>2013-09-05T15:02:20Z</time>
      </trkpt>
      <trkpt lat="45.14455" lon="5.90726">
        <ele>1285.71</ele>
        <time>2013-09-05T15:02:21Z</time>
      </trkpt>
      <trkpt lat="45.14454" lon="5.90725">
        <ele>1289.05</ele>
        <time>2013-09-05T15:02:30Z</time>
      </trkpt>
      <trkpt lat="45.14447" lon="5.90721">
        <ele>1292.25</ele>
        <time>2013-09-05T15:02:40Z</time>
      </trkpt>
      <trkpt lat="45.14433" lon="5.90701">
        <ele>1295.31</ele>
        <time>2013-09-05T15:02:51Z</time>
      </trkpt>
      <trkpt lat="45.14423" lon="5.9069">
        <ele>1298.52</ele>
        <time>2013-09-05T15:03:02Z</time>
      </trkpt>
      <trkpt lat="45.14421" lon="5.90704">
        <ele>1301.88</ele>
        <time>2013-09-05T15:03:17Z</time>
      </trkpt>
      <trkpt lat="45.14413" lon="5.9072">
        <ele>1305.02</ele>
        <time>2013-09-05T15:03:28Z</time>
      </trkpt>
      <trkpt lat="45.14432" lon="5.9073">
        <ele>1308.03</ele>
        <time>2013-09-05T15:03:39Z</time>
      </trkpt>
      <trkpt lat="45.1443" lon="5.90746">
        <ele>1311.19</ele>
        <time>2013-09-05T15:03:49Z</time>
      </trkpt>
      <trkpt lat="45.14422" lon="5.90754">
        <ele>1314.59</ele>
        <time>2013-09-05T15:04:07Z</time>
      </trkpt>
      <trkpt lat="45.1441" lon="5.90742">
        <ele>1317.87</ele>
        <time>2013-09-05T15:04:21Z</time>
      </trkpt>
      <trkpt lat="45.14407" lon="5.90738">
        <ele>1320.87</ele>
        <time>2013-09-05T15:04:31Z</time>
      </trkpt>
      <trkpt lat="45.1439" lon="5.90712">
        <ele>1323.94</ele>
        <time>2013-09-05T15:04:45Z</time>
      </trkpt>
      <trkpt lat="45.1438" lon="5.90717">
        <ele>1327.09</ele>
        <time>2013-09-05T15:04:56Z</time>
      </trkpt>
      <trkpt lat="45.14368" lon="5.9073">
        <ele>1330.14</ele>
        <time>2013-09-05T15:05:07Z</time>
      </trkpt>
      <trkpt lat="45.14353" lon="5.90742">
        <ele>1331.48</ele>
        <time>2013-09-05T15:05:16Z</time>
      </trkpt>
      <trkpt lat="45.14371" lon="5.90755">
        <ele>1334.17</ele>
        <time>2013-09-05T15:05:29Z</time>
      </trkpt>
      <trkpt lat="45.14379" lon="5.90764">
        <ele>1337.18</ele>
        <time>2013-09-05T15:05:39Z</time>
      </trkpt>
      <trkpt lat="45.14388" lon="5.90779">
        <ele>1340.29</ele>
        <time>2013-09-05T15:05:51Z</time>
      </trkpt>
      <trkpt lat="45.14384" lon="5.9079">
        <ele>1342.46</ele>
        <time>2013-09-05T15:05:58Z</time>
      </trkpt>
      <trkpt lat="45.14389" lon="5.90808">
        <ele>1346.08</ele>
        <time>2013-09-05T15:06:09Z</time>
      </trkpt>
      <trkpt lat="45.14384" lon="5.90824">
        <ele>1349.13</ele>
        <time>2013-09-05T15:06:22Z</time>
      </trkpt>
      <trkpt lat="45.14383" lon="5.9083">
        <ele>1349.91</ele>
        <time>2013-09-05T15:06:26Z</time>
      </trkpt>
      <trkpt lat="45.14373" lon="5.90857">
        <ele>1348.16</ele>
        <time>2013-09-05T15:06:36Z</time>
      </trkpt>
      <trkpt lat="45.14374" lon="5.90859">
        <ele>1348.04</ele>
        <time>2013-09-05T15:06:37Z</time>
      </trkpt>
      <trkpt lat="45.14373" lon="5.90866">
        <ele>1346.99</ele>
        <time>2013-09-05T15:06:40Z</time>
      </trkpt>
      <trkpt lat="45.14374" lon="5.9087">
        <ele>1346.02</ele>
        <time>2013-09-05T15:06:42Z</time>
      </trkpt>
      <trkpt lat="45.14373" lon="5.90877">
        <ele>1345.25</ele>
        <time>2013-09-05T15:06:46Z</time>
      </trkpt>
      <trkpt lat="45.1438" lon="5.90885">
        <ele>1344.66</ele>
        <time>2013-09-05T15:06:59Z</time>
      </trkpt>
      <trkpt lat="45.14377" lon="5.90884">
        <ele>1344.39</ele>
        <time>2013-09-05T15:07:08Z</time>
      </trkpt>
      <trkpt lat="45.1439" lon="5.90892">
        <ele>1343.12</ele>
        <time>2013-09-05T15:07:16Z</time>
      </trkpt>
      <trkpt lat="45.14388" lon="5.90911">
        <ele>1343.07</ele>
        <time>2013-09-05T15:07:27Z</time>
      </trkpt>
      <trkpt lat="45.14401" lon="5.90924">
        <ele>1343.39</ele>
        <time>2013-09-05T15:07:42Z</time>
      </trkpt>
      <trkpt lat="45.14423" lon="5.90939">
        <ele>1343.33</ele>
        <time>2013-09-05T15:07:53Z</time>
      </trkpt>
      <trkpt lat="45.14444" lon="5.90962">
        <ele>1346.48</ele>
        <time>2013-09-05T15:08:07Z</time>
      </trkpt>
      <trkpt lat="45.14446" lon="5.90968">
        <ele>1348.4</ele>
        <time>2013-09-05T15:08:11Z</time>
      </trkpt>
      <trkpt lat="45.14451" lon="5.90977">
        <ele>1350.63</ele>
        <time>2013-09-05T15:08:17Z</time>
      </trkpt>
      <trkpt lat="45.1446" lon="5.90994">
        <ele>1354.04</ele>
        <time>2013-09-05T15:08:30Z</time>
      </trkpt>
      <trkpt lat="45.14466" lon="5.91005">
        <ele>1357.37</ele>
        <time>2013-09-05T15:08:41Z</time>
      </trkpt>
      <trkpt lat="45.14477" lon="5.91019">
        <ele>1360.83</ele>
        <time>2013-09-05T15:08:52Z</time>
      </trkpt>
      <trkpt lat="45.14478" lon="5.91036">
        <ele>1363.96</ele>
        <time>2013-09-05T15:09:04Z</time>
      </trkpt>
      <trkpt lat="45.14479" lon="5.91041">
        <ele>1365.42</ele>
        <time>2013-09-05T15:09:08Z</time>
      </trkpt>
      <trkpt lat="45.14476" lon="5.91049">
        <ele>1367.1</ele>
        <time>2013-09-05T15:09:14Z</time>
      </trkpt>
      <trkpt lat="45.1447" lon="5.9106">
        <ele>1369.75</ele>
        <time>2013-09-05T15:09:30Z</time>
      </trkpt>
      <trkpt lat="45.14471" lon="5.91071">
        <ele>1371.76</ele>
        <time>2013-09-05T15:09:38Z</time>
      </trkpt>
      <trkpt lat="45.14467" lon="5.91087">
        <ele>1375.19</ele>
        <time>2013-09-05T15:09:50Z</time>
      </trkpt>
      <trkpt lat="45.14466" lon="5.91091">
        <ele>1375.58</ele>
        <time>2013-09-05T15:09:52Z</time>
      </trkpt>
      <trkpt lat="45.14461" lon="5.91108">
        <ele>1378.26</ele>
        <time>2013-09-05T15:10:02Z</time>
      </trkpt>
      <trkpt lat="45.14449" lon="5.91134">
        <ele>1380.91</ele>
        <time>2013-09-05T15:10:15Z</time>
      </trkpt>
      <trkpt lat="45.14443" lon="5.91145">
        <ele>1383.51</ele>
        <time>2013-09-05T15:10:28Z</time>
      </trkpt>
      <trkpt lat="45.14465" lon="5.91155">
        <ele>1384.87</ele>
        <time>2013-09-05T15:10:33Z</time>
      </trkpt>
      <trkpt lat="45.14475" lon="5.91162">
        <ele>1385.1</ele>
        <time>2013-09-05T15:10:35Z</time>
      </trkpt>
      <trkpt lat="45.14486" lon="5.91167">
        <ele>1385.13</ele>
        <time>2013-09-05T15:10:39Z</time>
      </trkpt>
      <trkpt lat="45.14495" lon="5.91178">
        <ele>1385.85</ele>
        <time>2013-09-05T15:10:51Z</time>
      </trkpt>
      <trkpt lat="45.14494" lon="5.91174">
        <ele>1385.44</ele>
        <time>2013-09-05T15:11:11Z</time>
      </trkpt>
      <trkpt lat="45.14507" lon="5.91181">
        <ele>1387.63</ele>
        <time>2013-09-05T15:11:25Z</time>
      </trkpt>
      <trkpt lat="45.1451" lon="5.91184">
        <ele>1388.46</ele>
        <time>2013-09-05T15:11:28Z</time>
      </trkpt>
      <trkpt lat="45.14512" lon="5.91182">
        <ele>1391.96</ele>
        <time>2013-09-05T15:11:41Z</time>
      </trkpt>
      <trkpt lat="45.1452" lon="5.91192">
        <ele>1395.17</ele>
        <time>2013-09-05T15:11:52Z</time>
      </trkpt>
      <trkpt lat="45.14532" lon="5.91205">
        <ele>1398.1</ele>
        <time>2013-09-05T15:12:04Z</time>
      </trkpt>
      <trkpt lat="45.14538" lon="5.91221">
        <ele>1401.47</ele>
        <time>2013-09-05T15:12:17Z</time>
      </trkpt>
      <trkpt lat="45.14538" lon="5.91228">
        <ele>1402.03</ele>
        <time>2013-09-05T15:12:20Z</time>
      </trkpt>
      <trkpt lat="45.14543" lon="5.91249">
        <ele>1406.07</ele>
        <time>2013-09-05T15:12:34Z</time>
      </trkpt>
      <trkpt lat="45.1454" lon="5.9126">
        <ele>1408.42</ele>
        <time>2013-09-05T15:12:41Z</time>
      </trkpt>
      <trkpt lat="45.14537" lon="5.91269">
        <ele>1409.12</ele>
        <time>2013-09-05T15:12:44Z</time>
      </trkpt>
      <trkpt lat="45.14536" lon="5.91283">
        <ele>1412.42</ele>
        <time>2013-09-05T15:12:54Z</time>
      </trkpt>
      <trkpt lat="45.14533" lon="5.91302">
        <ele>1415.56</ele>
        <time>2013-09-05T15:13:05Z</time>
      </trkpt>
      <trkpt lat="45.1453" lon="5.91317">
        <ele>1418.83</ele>
        <time>2013-09-05T15:13:16Z</time>
      </trkpt>
      <trkpt lat="45.14533" lon="5.91333">
        <ele>1422.23</ele>
        <time>2013-09-05T15:13:28Z</time>
      </trkpt>
      <trkpt lat="45.14536" lon="5.91341">
        <ele>1423.74</ele>
        <time>2013-09-05T15:13:33Z</time>
      </trkpt>
      <trkpt lat="45.14535" lon="5.91348">
        <ele>1425.06</ele>
        <time>2013-09-05T15:13:37Z</time>
      </trkpt>
      <trkpt lat="45.14537" lon="5.91364">
        <ele>1428.57</ele>
        <time>2013-09-05T15:13:50Z</time>
      </trkpt>
      <trkpt lat="45.14538" lon="5.91376">
        <ele>1431.53</ele>
        <time>2013-09-05T15:14:00Z</time>
      </trkpt>
      <trkpt lat="45.14536" lon="5.9139">
        <ele>1435.21</ele>
        <time>2013-09-05T15:14:12Z</time>
      </trkpt>
      <trkpt lat="45.1454" lon="5.91391">
        <ele>1435.58</ele>
        <time>2013-09-05T15:14:13Z</time>
      </trkpt>
      <trkpt lat="45.14546" lon="5.91399">
        <ele>1436.71</ele>
        <time>2013-09-05T15:14:18Z</time>
      </trkpt>
      <trkpt lat="45.14557" lon="5.91421">
        <ele>1438.48</ele>
        <time>2013-09-05T15:14:32Z</time>
      </trkpt>
      <trkpt lat="45.14565" lon="5.91426">
        <ele>1438.01</ele>
        <time>2013-09-05T15:14:54Z</time>
      </trkpt>
      <trkpt lat="45.14565" lon="5.91441">
        <ele>1436.74</ele>
        <time>2013-09-05T15:15:15Z</time>
      </trkpt>
      <trkpt lat="45.14565" lon="5.91442">
        <ele>1436.77</ele>
        <time>2013-09-05T15:15:20Z</time>
      </trkpt>
      <trkpt lat="45.14547" lon="5.91446">
        <ele>1451.11</ele>
        <time>2013-09-05T15:16:53Z</time>
      </trkpt>
      <trkpt lat="45.14556" lon="5.91449">
        <ele>1451.11</ele>
        <time>2013-09-05T15:16:54Z</time>
      </trkpt>
      <trkpt lat="45.14559" lon="5.91444">
        <ele>1451.86</ele>
        <time>2013-09-05T15:17:17Z</time>
      </trkpt>
      <trkpt lat="45.14559" lon="5.91427">
        <ele>1454.31</ele>
        <time>2013-09-05T15:17:44Z</time>
      </trkpt>
      <trkpt lat="45.1455" lon="5.91425">
        <ele>1457.35</ele>
        <time>2013-09-05T15:17:56Z</time>
      </trkpt>
      <trkpt lat="45.14546" lon="5.91411">
        <ele>1460.44</ele>
        <time>2013-09-05T15:18:07Z</time>
      </trkpt>
      <trkpt lat="45.14539" lon="5.91396">
        <ele>1460.11</ele>
        <time>2013-09-05T15:18:27Z</time>
      </trkpt>
      <trkpt lat="45.14527" lon="5.91365">
        <ele>1458.04</ele>
        <time>2013-09-05T15:18:48Z</time>
      </trkpt>
      <trkpt lat="45.14529" lon="5.91361">
        <ele>1457.27</ele>
        <time>2013-09-05T15:19:06Z</time>
      </trkpt>
      <trkpt lat="45.14524" lon="5.91359">
        <ele>1457.24</ele>
        <time>2013-09-05T15:19:25Z</time>
      </trkpt>
      <trkpt lat="45.14526" lon="5.91366">
        <ele>1457.16</ele>
        <time>2013-09-05T15:19:41Z</time>
      </trkpt>
      <trkpt lat="45.14521" lon="5.91361">
        <ele>1459.95</ele>
        <time>2013-09-05T15:19:54Z</time>
      </trkpt>
      <trkpt lat="45.14513" lon="5.91344">
        <ele>1461.26</ele>
        <time>2013-09-05T15:20:01Z</time>
      </trkpt>
      <trkpt lat="45.14512" lon="5.91335">
        <ele>1461.96</ele>
        <time>2013-09-05T15:20:05Z</time>
      </trkpt>
      <trkpt lat="45.14521" lon="5.91328">
        <ele>1463.33</ele>
        <time>2013-09-05T15:20:16Z</time>
      </trkpt>
      <trkpt lat="45.14517" lon="5.9133">
        <ele>1464.69</ele>
        <time>2013-09-05T15:20:20Z</time>
      </trkpt>
      <trkpt lat="45.14513" lon="5.91331">
        <ele>1468.2</ele>
        <time>2013-09-05T15:20:32Z</time>
      </trkpt>
      <trkpt lat="45.14504" lon="5.91327">
        <ele>1471.24</ele>
        <time>2013-09-05T15:20:41Z</time>
      </trkpt>
      <trkpt lat="45.14493" lon="5.91328">
        <ele>1474.45</ele>
        <time>2013-09-05T15:20:53Z</time>
      </trkpt>
      <trkpt lat="45.14491" lon="5.91328">
        <ele>1474.99</ele>
        <time>2013-09-05T15:20:56Z</time>
      </trkpt>
      <trkpt lat="45.14488" lon="5.91332">
        <ele>1475.88</ele>
        <time>2013-09-05T15:21:00Z</time>
      </trkpt>
      <trkpt lat="45.14497" lon="5.91345">
        <ele>1478.77</ele>
        <time>2013-09-05T15:21:11Z</time>
      </trkpt>
      <trkpt lat="45.14498" lon="5.91359">
        <ele>1481.99</ele>
        <time>2013-09-05T15:21:25Z</time>
      </trkpt>
      <trkpt lat="45.14488" lon="5.91355">
        <ele>1485.17</ele>
        <time>2013-09-05T15:21:37Z</time>
      </trkpt>
      <trkpt lat="45.14486" lon="5.91351">
        <ele>1486.08</ele>
        <time>2013-09-05T15:21:43Z</time>
      </trkpt>
      <trkpt lat="45.14486" lon="5.91351">
        <ele>1487.76</ele>
        <time>2013-09-05T15:21:48Z</time>
      </trkpt>
      <trkpt lat="45.14487" lon="5.9136">
        <ele>1489.96</ele>
        <time>2013-09-05T15:21:57Z</time>
      </trkpt>
      <trkpt lat="45.14484" lon="5.91361">
        <ele>1493.55</ele>
        <time>2013-09-05T15:22:08Z</time>
      </trkpt>
      <trkpt lat="45.1448" lon="5.9136">
        <ele>1494.75</ele>
        <time>2013-09-05T15:22:13Z</time>
      </trkpt>
      <trkpt lat="45.14475" lon="5.91367">
        <ele>1498.22</ele>
        <time>2013-09-05T15:22:25Z</time>
      </trkpt>
      <trkpt lat="45.14485" lon="5.91376">
        <ele>1500.44</ele>
        <time>2013-09-05T15:22:33Z</time>
      </trkpt>
      <trkpt lat="45.14479" lon="5.91395">
        <ele>1503.37</ele>
        <time>2013-09-05T15:22:45Z</time>
      </trkpt>
      <trkpt lat="45.1448" lon="5.91402">
        <ele>1504.34</ele>
        <time>2013-09-05T15:22:49Z</time>
      </trkpt>
      <trkpt lat="45.14483" lon="5.91428">
        <ele>1507.49</ele>
        <time>2013-09-05T15:23:05Z</time>
      </trkpt>
      <trkpt lat="45.14479" lon="5.91441">
        <ele>1510.56</ele>
        <time>2013-09-05T15:23:16Z</time>
      </trkpt>
      <trkpt lat="45.14476" lon="5.91445">
        <ele>1513.94</ele>
        <time>2013-09-05T15:23:28Z</time>
      </trkpt>
      <trkpt lat="45.14464" lon="5.9144">
        <ele>1516.69</ele>
        <time>2013-09-05T15:23:42Z</time>
      </trkpt>
      <trkpt lat="45.14459" lon="5.91446">
        <ele>1519.82</ele>
        <time>2013-09-05T15:23:54Z</time>
      </trkpt>
      <trkpt lat="45.14458" lon="5.91448">
        <ele>1520.09</ele>
        <time>2013-09-05T15:23:55Z</time>
      </trkpt>
      <trkpt lat="45.14462" lon="5.91457">
        <ele>1521.87</ele>
        <time>2013-09-05T15:24:01Z</time>
      </trkpt>
      <trkpt lat="45.14463" lon="5.91459">
        <ele>1522.46</ele>
        <time>2013-09-05T15:24:03Z</time>
      </trkpt>
      <trkpt lat="45.14468" lon="5.91477">
        <ele>1525.84</ele>
        <time>2013-09-05T15:24:17Z</time>
      </trkpt>
      <trkpt lat="45.1447" lon="5.91487">
        <ele>1527.3</ele>
        <time>2013-09-05T15:24:29Z</time>
      </trkpt>
      <trkpt lat="45.14465" lon="5.91488">
        <ele>1530.61</ele>
        <time>2013-09-05T15:24:40Z</time>
      </trkpt>
      <trkpt lat="45.14462" lon="5.91492">
        <ele>1532.98</ele>
        <time>2013-09-05T15:24:51Z</time>
      </trkpt>
      <trkpt lat="45.14464" lon="5.91498">
        <ele>1533.84</ele>
        <time>2013-09-05T15:24:56Z</time>
      </trkpt>
      <trkpt lat="45.14469" lon="5.91504">
        <ele>1534.59</ele>
        <time>2013-09-05T15:25:01Z</time>
      </trkpt>
      <trkpt lat="45.1448" lon="5.91512">
        <ele>1534.89</ele>
        <time>2013-09-05T15:25:08Z</time>
      </trkpt>
      <trkpt lat="45.145" lon="5.91532">
        <ele>1537.36</ele>
        <time>2013-09-05T15:25:19Z</time>
      </trkpt>
      <trkpt lat="45.14495" lon="5.91544">
        <ele>1540.81</ele>
        <time>2013-09-05T15:25:31Z</time>
      </trkpt>
      <trkpt lat="45.14491" lon="5.9156">
        <ele>1544.29</ele>
        <time>2013-09-05T15:25:45Z</time>
      </trkpt>
      <trkpt lat="45.14488" lon="5.9156">
        <ele>1547.45</ele>
        <time>2013-09-05T15:25:58Z</time>
      </trkpt>
      <trkpt lat="45.14482" lon="5.91571">
        <ele>1550.29</ele>
        <time>2013-09-05T15:26:14Z</time>
      </trkpt>
      <trkpt lat="45.14475" lon="5.91577">
        <ele>1553.32</ele>
        <time>2013-09-05T15:26:24Z</time>
      </trkpt>
      <trkpt lat="45.14481" lon="5.91592">
        <ele>1554.33</ele>
        <time>2013-09-05T15:26:35Z</time>
      </trkpt>
      <trkpt lat="45.14484" lon="5.91613">
        <ele>1556.02</ele>
        <time>2013-09-05T15:26:48Z</time>
      </trkpt>
      <trkpt lat="45.14485" lon="5.91623">
        <ele>1555.96</ele>
        <time>2013-09-05T15:26:54Z</time>
      </trkpt>
      <trkpt lat="45.1451" lon="5.91639">
        <ele>1556.34</ele>
        <time>2013-09-05T15:26:59Z</time>
      </trkpt>
      <trkpt lat="45.14514" lon="5.91651">
        <ele>1556.54</ele>
        <time>2013-09-05T15:27:03Z</time>
      </trkpt>
      <trkpt lat="45.14516" lon="5.91661">
        <ele>1556.93</ele>
        <time>2013-09-05T15:27:07Z</time>
      </trkpt>
      <trkpt lat="45.14526" lon="5.91677">
        <ele>1556.84</ele>
        <time>2013-09-05T15:27:15Z</time>
      </trkpt>
      <trkpt lat="45.1453" lon="5.9169">
        <ele>1556.63</ele>
        <time>2013-09-05T15:27:21Z</time>
      </trkpt>
      <trkpt lat="45.14529" lon="5.91701">
        <ele>1557.05</ele>
        <time>2013-09-05T15:27:26Z</time>
      </trkpt>
      <trkpt lat="45.14528" lon="5.91709">
        <ele>1557.12</ele>
        <time>2013-09-05T15:27:29Z</time>
      </trkpt>
      <trkpt lat="45.14529" lon="5.91724">
        <ele>1557.03</ele>
        <time>2013-09-05T15:27:36Z</time>
      </trkpt>
      <trkpt lat="45.14528" lon="5.91728">
        <ele>1557.34</ele>
        <time>2013-09-05T15:27:38Z</time>
      </trkpt>
      <trkpt lat="45.14529" lon="5.91749">
        <ele>1558.12</ele>
        <time>2013-09-05T15:27:49Z</time>
      </trkpt>
      <trkpt lat="45.14525" lon="5.91784">
        <ele>1559.31</ele>
        <time>2013-09-05T15:28:06Z</time>
      </trkpt>
      <trkpt lat="45.14525" lon="5.91793">
        <ele>1559.63</ele>
        <time>2013-09-05T15:28:22Z</time>
      </trkpt>
      <trkpt lat="45.14525" lon="5.91806">
        <ele>1559.88</ele>
        <time>2013-09-05T15:28:28Z</time>
      </trkpt>
      <trkpt lat="45.14521" lon="5.91819">
        <ele>1560.32</ele>
        <time>2013-09-05T15:28:33Z</time>
      </trkpt>
      <trkpt lat="45.14519" lon="5.91831">
        <ele>1560.94</ele>
        <time>2013-09-05T15:28:39Z</time>
      </trkpt>
      <trkpt lat="45.1452" lon="5.91836">
        <ele>1561.77</ele>
        <time>2013-09-05T15:28:57Z</time>
      </trkpt>
      <trkpt lat="45.14529" lon="5.91866">
        <ele>1563.46</ele>
        <time>2013-09-05T15:29:16Z</time>
      </trkpt>
      <trkpt lat="45.14524" lon="5.91877">
        <ele>1563.32</ele>
        <time>2013-09-05T15:29:21Z</time>
      </trkpt>
      <trkpt lat="45.14521" lon="5.91879">
        <ele>1563.44</ele>
        <time>2013-09-05T15:29:24Z</time>
      </trkpt>
      <trkpt lat="45.14519" lon="5.91881">
        <ele>1563.56</ele>
        <time>2013-09-05T15:29:26Z</time>
      </trkpt>
      <trkpt lat="45.14519" lon="5.91892">
        <ele>1564.69</ele>
        <time>2013-09-05T15:29:33Z</time>
      </trkpt>
      <trkpt lat="45.14521" lon="5.91899">
        <ele>1564.8</ele>
        <time>2013-09-05T15:29:37Z</time>
      </trkpt>
      <trkpt lat="45.14521" lon="5.9191">
        <ele>1564.93</ele>
        <time>2013-09-05T15:29:43Z</time>
      </trkpt>
      <trkpt lat="45.14522" lon="5.91924">
        <ele>1565.13</ele>
        <time>2013-09-05T15:29:50Z</time>
      </trkpt>
      <trkpt lat="45.14521" lon="5.91929">
        <ele>1565.2</ele>
        <time>2013-09-05T15:29:53Z</time>
      </trkpt>
      <trkpt lat="45.14518" lon="5.91949">
        <ele>1565.49</ele>
        <time>2013-09-05T15:30:02Z</time>
      </trkpt>
      <trkpt lat="45.14515" lon="5.91957">
        <ele>1566.13</ele>
        <time>2013-09-05T15:30:07Z</time>
      </trkpt>
      <trkpt lat="45.14513" lon="5.91962">
        <ele>1566.53</ele>
        <time>2013-09-05T15:30:10Z</time>
      </trkpt>
      <trkpt lat="45.14512" lon="5.9198">
        <ele>1566.82</ele>
        <time>2013-09-05T15:30:24Z</time>
      </trkpt>
      <trkpt lat="45.14513" lon="5.91981">
        <ele>1566.49</ele>
        <time>2013-09-05T15:30:25Z</time>
      </trkpt>
      <trkpt lat="45.14516" lon="5.91983">
        <ele>1566.06</ele>
        <time>2013-09-05T15:30:28Z</time>
      </trkpt>
      <trkpt lat="45.14527" lon="5.91981">
        <ele>1566.42</ele>
        <time>2013-09-05T15:30:36Z</time>
      </trkpt>
      <trkpt lat="45.1453" lon="5.91983">
        <ele>1566.56</ele>
        <time>2013-09-05T15:30:38Z</time>
      </trkpt>
      <trkpt lat="45.14538" lon="5.91991">
        <ele>1567.22</ele>
        <time>2013-09-05T15:30:46Z</time>
      </trkpt>
      <trkpt lat="45.14541" lon="5.91993">
        <ele>1567.42</ele>
        <time>2013-09-05T15:30:48Z</time>
      </trkpt>
      <trkpt lat="45.14546" lon="5.9201">
        <ele>1569.25</ele>
        <time>2013-09-05T15:31:00Z</time>
      </trkpt>
      <trkpt lat="45.14555" lon="5.92032">
        <ele>1571.21</ele>
        <time>2013-09-05T15:31:15Z</time>
      </trkpt>
      <trkpt lat="45.14557" lon="5.92038">
        <ele>1571.15</ele>
        <time>2013-09-05T15:31:21Z</time>
      </trkpt>
      <trkpt lat="45.14568" lon="5.92052">
        <ele>1572.59</ele>
        <time>2013-09-05T15:31:39Z</time>
      </trkpt>
      <trkpt lat="45.14584" lon="5.92062">
        <ele>1572.43</ele>
        <time>2013-09-05T15:31:57Z</time>
      </trkpt>
      <trkpt lat="45.14598" lon="5.92076">
        <ele>1574.44</ele>
        <time>2013-09-05T15:32:11Z</time>
      </trkpt>
      <trkpt lat="45.14603" lon="5.9208">
        <ele>1574.1</ele>
        <time>2013-09-05T15:32:16Z</time>
      </trkpt>
      <trkpt lat="45.14613" lon="5.92095">
        <ele>1574.86</ele>
        <time>2013-09-05T15:32:34Z</time>
      </trkpt>
      <trkpt lat="45.14619" lon="5.92107">
        <ele>1575.78</ele>
        <time>2013-09-05T15:32:57Z</time>
      </trkpt>
      <trkpt lat="45.14624" lon="5.9213">
        <ele>1578.84</ele>
        <time>2013-09-05T15:33:13Z</time>
      </trkpt>
      <trkpt lat="45.14628" lon="5.92149">
        <ele>1581.84</ele>
        <time>2013-09-05T15:33:28Z</time>
      </trkpt>
      <trkpt lat="45.1463" lon="5.92162">
        <ele>1584.73</ele>
        <time>2013-09-05T15:33:45Z</time>
      </trkpt>
      <trkpt lat="45.14631" lon="5.92178">
        <ele>1587.77</ele>
        <time>2013-09-05T15:33:58Z</time>
      </trkpt>
      <trkpt lat="45.1463" lon="5.92193">
        <ele>1590.94</ele>
        <time>2013-09-05T15:34:10Z</time>
      </trkpt>
      <trkpt lat="45.1463" lon="5.92194">
        <ele>1591.18</ele>
        <time>2013-09-05T15:34:11Z</time>
      </trkpt>
      <trkpt lat="45.14632" lon="5.92213">
        <ele>1594.59</ele>
        <time>2013-09-05T15:34:26Z</time>
      </trkpt>
      <trkpt lat="45.14633" lon="5.92234">
        <ele>1597.66</ele>
        <time>2013-09-05T15:34:41Z</time>
      </trkpt>
      <trkpt lat="45.14633" lon="5.92252">
        <ele>1601</ele>
        <time>2013-09-05T15:34:53Z</time>
      </trkpt>
      <trkpt lat="45.14633" lon="5.92269">
        <ele>1604.31</ele>
        <time>2013-09-05T15:35:04Z</time>
      </trkpt>
      <trkpt lat="45.14642" lon="5.92291">
        <ele>1606.57</ele>
        <time>2013-09-05T15:35:22Z</time>
      </trkpt>
      <trkpt lat="45.1465" lon="5.92314">
        <ele>1609.62</ele>
        <time>2013-09-05T15:35:39Z</time>
      </trkpt>
      <trkpt lat="45.14657" lon="5.9232">
        <ele>1612.81</ele>
        <time>2013-09-05T15:35:54Z</time>
      </trkpt>
      <trkpt lat="45.14664" lon="5.92326">
        <ele>1614.4</ele>
        <time>2013-09-05T15:36:04Z</time>
      </trkpt>
      <trkpt lat="45.14683" lon="5.92341">
        <ele>1616.23</ele>
        <time>2013-09-05T15:36:14Z</time>
      </trkpt>
      <trkpt lat="45.14676" lon="5.92359">
        <ele>1619.34</ele>
        <time>2013-09-05T15:36:26Z</time>
      </trkpt>
      <trkpt lat="45.14675" lon="5.9236">
        <ele>1619.57</ele>
        <time>2013-09-05T15:36:27Z</time>
      </trkpt>
      <trkpt lat="45.14666" lon="5.92375">
        <ele>1622.93</ele>
        <time>2013-09-05T15:36:38Z</time>
      </trkpt>
      <trkpt lat="45.14664" lon="5.92388">
        <ele>1626.19</ele>
        <time>2013-09-05T15:36:48Z</time>
      </trkpt>
      <trkpt lat="45.14661" lon="5.924">
        <ele>1629.36</ele>
        <time>2013-09-05T15:37:00Z</time>
      </trkpt>
      <trkpt lat="45.14662" lon="5.92416">
        <ele>1632.41</ele>
        <time>2013-09-05T15:37:13Z</time>
      </trkpt>
      <trkpt lat="45.14663" lon="5.92417">
        <ele>1632.71</ele>
        <time>2013-09-05T15:37:16Z</time>
      </trkpt>
      <trkpt lat="45.14687" lon="5.92436">
        <ele>1612.48</ele>
        <time>2013-09-05T15:38:27Z</time>
      </trkpt>
      <trkpt lat="45.1468" lon="5.92432">
        <ele>1612.41</ele>
        <time>2013-09-05T15:38:29Z</time>
      </trkpt>
      <trkpt lat="45.14664" lon="5.92433">
        <ele>1614.29</ele>
        <time>2013-09-05T15:38:39Z</time>
      </trkpt>
      <trkpt lat="45.14664" lon="5.92444">
        <ele>1617.7</ele>
        <time>2013-09-05T15:38:49Z</time>
      </trkpt>
      <trkpt lat="45.14667" lon="5.92455">
        <ele>1620.77</ele>
        <time>2013-09-05T15:38:59Z</time>
      </trkpt>
      <trkpt lat="45.14667" lon="5.92463">
        <ele>1623.83</ele>
        <time>2013-09-05T15:39:09Z</time>
      </trkpt>
      <trkpt lat="45.14666" lon="5.92466">
        <ele>1625.07</ele>
        <time>2013-09-05T15:39:13Z</time>
      </trkpt>
      <trkpt lat="45.14666" lon="5.92473">
        <ele>1628.5</ele>
        <time>2013-09-05T15:39:24Z</time>
      </trkpt>
      <trkpt lat="45.14674" lon="5.92481">
        <ele>1630.14</ele>
        <time>2013-09-05T15:39:37Z</time>
      </trkpt>
      <trkpt lat="45.14675" lon="5.92482">
        <ele>1630.11</ele>
        <time>2013-09-05T15:39:40Z</time>
      </trkpt>
      <trkpt lat="45.14673" lon="5.92492">
        <ele>1632.74</ele>
        <time>2013-09-05T15:39:52Z</time>
      </trkpt>
      <trkpt lat="45.14671" lon="5.925">
        <ele>1635.75</ele>
        <time>2013-09-05T15:40:01Z</time>
      </trkpt>
      <trkpt lat="45.14667" lon="5.92506">
        <ele>1638.44</ele>
        <time>2013-09-05T15:40:13Z</time>
      </trkpt>
      <trkpt lat="45.14665" lon="5.9251">
        <ele>1641.28</ele>
        <time>2013-09-05T15:40:23Z</time>
      </trkpt>
      <trkpt lat="45.14657" lon="5.92515">
        <ele>1644.32</ele>
        <time>2013-09-05T15:40:35Z</time>
      </trkpt>
      <trkpt lat="45.14657" lon="5.92519">
        <ele>1645.57</ele>
        <time>2013-09-05T15:40:39Z</time>
      </trkpt>
      <trkpt lat="45.14666" lon="5.92533">
        <ele>1646.98</ele>
        <time>2013-09-05T15:40:48Z</time>
      </trkpt>
      <trkpt lat="45.14697" lon="5.92558">
        <ele>1648.15</ele>
        <time>2013-09-05T15:41:03Z</time>
      </trkpt>
      <trkpt lat="45.14724" lon="5.92582">
        <ele>1651.2</ele>
        <time>2013-09-05T15:41:18Z</time>
      </trkpt>
      <trkpt lat="45.1473" lon="5.92587">
        <ele>1652.86</ele>
        <time>2013-09-05T15:41:40Z</time>
      </trkpt>
      <trkpt lat="45.14738" lon="5.92601">
        <ele>1654.7</ele>
        <time>2013-09-05T15:41:57Z</time>
      </trkpt>
      <trkpt lat="45.14747" lon="5.92613">
        <ele>1657.77</ele>
        <time>2013-09-05T15:42:11Z</time>
      </trkpt>
      <trkpt lat="45.14738" lon="5.9264">
        <ele>1660.83</ele>
        <time>2013-09-05T15:42:24Z</time>
      </trkpt>
      <trkpt lat="45.14737" lon="5.92661">
        <ele>1663.97</ele>
        <time>2013-09-05T15:42:37Z</time>
      </trkpt>
      <trkpt lat="45.14727" lon="5.92668">
        <ele>1667.02</ele>
        <time>2013-09-05T15:42:51Z</time>
      </trkpt>
      <trkpt lat="45.1473" lon="5.92679">
        <ele>1670.18</ele>
        <time>2013-09-05T15:43:03Z</time>
      </trkpt>
      <trkpt lat="45.14731" lon="5.92694">
        <ele>1673.24</ele>
        <time>2013-09-05T15:43:16Z</time>
      </trkpt>
      <trkpt lat="45.14738" lon="5.92702">
        <ele>1676.31</ele>
        <time>2013-09-05T15:43:31Z</time>
      </trkpt>
      <trkpt lat="45.14756" lon="5.92707">
        <ele>1679.51</ele>
        <time>2013-09-05T15:43:48Z</time>
      </trkpt>
      <trkpt lat="45.14759" lon="5.92705">
        <ele>1679.85</ele>
        <time>2013-09-05T15:43:52Z</time>
      </trkpt>
      <trkpt lat="45.14764" lon="5.92703">
        <ele>1680.08</ele>
        <time>2013-09-05T15:43:56Z</time>
      </trkpt>
      <trkpt lat="45.14789" lon="5.92696">
        <ele>1682.17</ele>
        <time>2013-09-05T15:44:19Z</time>
      </trkpt>
      <trkpt lat="45.14794" lon="5.92697">
        <ele>1682.72</ele>
        <time>2013-09-05T15:44:41Z</time>
      </trkpt>
      <trkpt lat="45.148" lon="5.92699">
        <ele>1683.4</ele>
        <time>2013-09-05T15:44:48Z</time>
      </trkpt>
      <trkpt lat="45.14805" lon="5.92699">
        <ele>1683.95</ele>
        <time>2013-09-05T15:44:52Z</time>
      </trkpt>
      <trkpt lat="45.14827" lon="5.92699">
        <ele>1685.78</ele>
        <time>2013-09-05T15:45:08Z</time>
      </trkpt>
      <trkpt lat="45.14833" lon="5.92695">
        <ele>1686.67</ele>
        <time>2013-09-05T15:45:14Z</time>
      </trkpt>
      <trkpt lat="45.14839" lon="5.92693">
        <ele>1686.91</ele>
        <time>2013-09-05T15:45:18Z</time>
      </trkpt>
      <trkpt lat="45.14856" lon="5.92689">
        <ele>1689.23</ele>
        <time>2013-09-05T15:45:31Z</time>
      </trkpt>
      <trkpt lat="45.14869" lon="5.92689">
        <ele>1692.34</ele>
        <time>2013-09-05T15:45:43Z</time>
      </trkpt>
      <trkpt lat="45.14889" lon="5.92694">
        <ele>1695.38</ele>
        <time>2013-09-05T15:46:00Z</time>
      </trkpt>
      <trkpt lat="45.14906" lon="5.9269">
        <ele>1698.62</ele>
        <time>2013-09-05T15:46:16Z</time>
      </trkpt>
      <trkpt lat="45.14905" lon="5.92699">
        <ele>1701.72</ele>
        <time>2013-09-05T15:46:30Z</time>
      </trkpt>
      <trkpt lat="45.14904" lon="5.92699">
        <ele>1701.82</ele>
        <time>2013-09-05T15:46:31Z</time>
      </trkpt>
      <trkpt lat="45.14887" lon="5.9271">
        <ele>1704.4</ele>
        <time>2013-09-05T15:46:45Z</time>
      </trkpt>
      <trkpt lat="45.1488" lon="5.92713">
        <ele>1706.05</ele>
        <time>2013-09-05T15:46:51Z</time>
      </trkpt>
      <trkpt lat="45.14883" lon="5.92716">
        <ele>1707.12</ele>
        <time>2013-09-05T15:46:56Z</time>
      </trkpt>
      <trkpt lat="45.14888" lon="5.92717">
        <ele>1708.42</ele>
        <time>2013-09-05T15:47:00Z</time>
      </trkpt>
      <trkpt lat="45.14899" lon="5.92717">
        <ele>1710.39</ele>
        <time>2013-09-05T15:47:11Z</time>
      </trkpt>
      <trkpt lat="45.14912" lon="5.9271">
        <ele>1713.01</ele>
        <time>2013-09-05T15:47:24Z</time>
      </trkpt>
      <trkpt lat="45.14924" lon="5.92711">
        <ele>1716.14</ele>
        <time>2013-09-05T15:47:35Z</time>
      </trkpt>
      <trkpt lat="45.14921" lon="5.9272">
        <ele>1717.87</ele>
        <time>2013-09-05T15:47:40Z</time>
      </trkpt>
      <trkpt lat="45.14908" lon="5.92728">
        <ele>1721.09</ele>
        <time>2013-09-05T15:47:52Z</time>
      </trkpt>
      <trkpt lat="45.14898" lon="5.92736">
        <ele>1723.47</ele>
        <time>2013-09-05T15:48:02Z</time>
      </trkpt>
      <trkpt lat="45.14897" lon="5.92739">
        <ele>1724.22</ele>
        <time>2013-09-05T15:48:04Z</time>
      </trkpt>
      <trkpt lat="45.1489" lon="5.92747">
        <ele>1726.09</ele>
        <time>2013-09-05T15:48:12Z</time>
      </trkpt>
      <trkpt lat="45.14885" lon="5.92747">
        <ele>1727.08</ele>
        <time>2013-09-05T15:48:17Z</time>
      </trkpt>
      <trkpt lat="45.14883" lon="5.92746">
        <ele>1727.33</ele>
        <time>2013-09-05T15:48:19Z</time>
      </trkpt>
      <trkpt lat="45.1488" lon="5.92745">
        <ele>1727.89</ele>
        <time>2013-09-05T15:48:22Z</time>
      </trkpt>
      <trkpt lat="45.14882" lon="5.92748">
        <ele>1728.43</ele>
        <time>2013-09-05T15:48:25Z</time>
      </trkpt>
      <trkpt lat="45.14884" lon="5.9275">
        <ele>1729.28</ele>
        <time>2013-09-05T15:48:28Z</time>
      </trkpt>
      <trkpt lat="45.14885" lon="5.92752">
        <ele>1729.74</ele>
        <time>2013-09-05T15:48:30Z</time>
      </trkpt>
      <trkpt lat="45.14887" lon="5.92759">
        <ele>1731.02</ele>
        <time>2013-09-05T15:48:35Z</time>
      </trkpt>
      <trkpt lat="45.14891" lon="5.92766">
        <ele>1733.17</ele>
        <time>2013-09-05T15:48:44Z</time>
      </trkpt>
      <trkpt lat="45.1491" lon="5.92764">
        <ele>1735.12</ele>
        <time>2013-09-05T15:48:52Z</time>
      </trkpt>
      <trkpt lat="45.14914" lon="5.9276">
        <ele>1736.44</ele>
        <time>2013-09-05T15:48:56Z</time>
      </trkpt>
      <trkpt lat="45.14919" lon="5.92743">
        <ele>1739.85</ele>
        <time>2013-09-05T15:49:11Z</time>
      </trkpt>
      <trkpt lat="45.1493" lon="5.92728">
        <ele>1743.15</ele>
        <time>2013-09-05T15:49:30Z</time>
      </trkpt>
      <trkpt lat="45.14936" lon="5.92728">
        <ele>1746.17</ele>
        <time>2013-09-05T15:49:40Z</time>
      </trkpt>
      <trkpt lat="45.14931" lon="5.92739">
        <ele>1747.91</ele>
        <time>2013-09-05T15:49:47Z</time>
      </trkpt>
      <trkpt lat="45.14924" lon="5.92755">
        <ele>1751.14</ele>
        <time>2013-09-05T15:49:59Z</time>
      </trkpt>
      <trkpt lat="45.14922" lon="5.92762">
        <ele>1752.48</ele>
        <time>2013-09-05T15:50:04Z</time>
      </trkpt>
      <trkpt lat="45.14923" lon="5.92763">
        <ele>1753.3</ele>
        <time>2013-09-05T15:50:07Z</time>
      </trkpt>
      <trkpt lat="45.1493" lon="5.92757">
        <ele>1754.86</ele>
        <time>2013-09-05T15:50:17Z</time>
      </trkpt>
      <trkpt lat="45.14916" lon="5.92764">
        <ele>1808.54</ele>
        <time>2013-09-05T15:51:16Z</time>
      </trkpt>
      <trkpt lat="45.14919" lon="5.92761">
        <ele>1808.55</ele>
        <time>2013-09-05T15:51:17Z</time>
      </trkpt>
      <trkpt lat="45.14938" lon="5.92753">
        <ele>1811.93</ele>
        <time>2013-09-05T15:51:29Z</time>
      </trkpt>
      <trkpt lat="45.14945" lon="5.92753">
        <ele>1815</ele>
        <time>2013-09-05T15:51:36Z</time>
      </trkpt>
      <trkpt lat="45.14944" lon="5.92768">
        <ele>1818.22</ele>
        <time>2013-09-05T15:51:44Z</time>
      </trkpt>
      <trkpt lat="45.14943" lon="5.92775">
        <ele>1819.34</ele>
        <time>2013-09-05T15:51:48Z</time>
      </trkpt>
      <trkpt lat="45.14938" lon="5.92787">
        <ele>1820.94</ele>
        <time>2013-09-05T15:51:57Z</time>
      </trkpt>
      <trkpt lat="45.14933" lon="5.92802">
        <ele>1823.96</ele>
        <time>2013-09-05T15:52:10Z</time>
      </trkpt>
      <trkpt lat="45.1494" lon="5.92799">
        <ele>1824.88</ele>
        <time>2013-09-05T15:52:18Z</time>
      </trkpt>
      <trkpt lat="45.14962" lon="5.92793">
        <ele>1828.23</ele>
        <time>2013-09-05T15:52:38Z</time>
      </trkpt>
      <trkpt lat="45.14969" lon="5.92789">
        <ele>1830.24</ele>
        <time>2013-09-05T15:52:45Z</time>
      </trkpt>
      <trkpt lat="45.14973" lon="5.9278">
        <ele>1833.97</ele>
        <time>2013-09-05T15:52:59Z</time>
      </trkpt>
      <trkpt lat="45.14979" lon="5.92779">
        <ele>1837.05</ele>
        <time>2013-09-05T15:53:10Z</time>
      </trkpt>
      <trkpt lat="45.14981" lon="5.92798">
        <ele>1839.49</ele>
        <time>2013-09-05T15:53:29Z</time>
      </trkpt>
      <trkpt lat="45.14976" lon="5.92822">
        <ele>1842.71</ele>
        <time>2013-09-05T15:53:44Z</time>
      </trkpt>
      <trkpt lat="45.14976" lon="5.92831">
        <ele>1845.8</ele>
        <time>2013-09-05T15:53:57Z</time>
      </trkpt>
      <trkpt lat="45.14987" lon="5.92827">
        <ele>1848.9</ele>
        <time>2013-09-05T15:54:09Z</time>
      </trkpt>
      <trkpt lat="45.14992" lon="5.92824">
        <ele>1849.72</ele>
        <time>2013-09-05T15:54:13Z</time>
      </trkpt>
      <trkpt lat="45.15" lon="5.92826">
        <ele>1853.05</ele>
        <time>2013-09-05T15:54:27Z</time>
      </trkpt>
      <trkpt lat="45.15005" lon="5.92814">
        <ele>1856.2</ele>
        <time>2013-09-05T15:54:39Z</time>
      </trkpt>
      <trkpt lat="45.15012" lon="5.928">
        <ele>1859.31</ele>
        <time>2013-09-05T15:54:52Z</time>
      </trkpt>
      <trkpt lat="45.15009" lon="5.92815">
        <ele>1861.81</ele>
        <time>2013-09-05T15:55:05Z</time>
      </trkpt>
      <trkpt lat="45.15012" lon="5.92823">
        <ele>1865.2</ele>
        <time>2013-09-05T15:55:20Z</time>
      </trkpt>
      <trkpt lat="45.1502" lon="5.92813">
        <ele>1868.35</ele>
        <time>2013-09-05T15:55:35Z</time>
      </trkpt>
      <trkpt lat="45.15018" lon="5.92832">
        <ele>1870.38</ele>
        <time>2013-09-05T15:55:45Z</time>
      </trkpt>
      <trkpt lat="45.15023" lon="5.92829">
        <ele>1871.85</ele>
        <time>2013-09-05T15:55:51Z</time>
      </trkpt>
      <trkpt lat="45.15031" lon="5.92825">
        <ele>1874.04</ele>
        <time>2013-09-05T15:55:59Z</time>
      </trkpt>
      <trkpt lat="45.1503" lon="5.92814">
        <ele>1874.58</ele>
        <time>2013-09-05T15:56:03Z</time>
      </trkpt>
      <trkpt lat="45.1503" lon="5.92808">
        <ele>1874.78</ele>
        <time>2013-09-05T15:56:06Z</time>
      </trkpt>
      <trkpt lat="45.15034" lon="5.92798">
        <ele>1878.06</ele>
        <time>2013-09-05T15:56:17Z</time>
      </trkpt>
      <trkpt lat="45.15035" lon="5.92796">
        <ele>1878.79</ele>
        <time>2013-09-05T15:56:19Z</time>
      </trkpt>
      <trkpt lat="45.15038" lon="5.9277">
        <ele>1882.02</ele>
        <time>2013-09-05T15:56:35Z</time>
      </trkpt>
      <trkpt lat="45.15038" lon="5.92768">
        <ele>1882.44</ele>
        <time>2013-09-05T15:56:36Z</time>
      </trkpt>
      <trkpt lat="45.15035" lon="5.92757">
        <ele>1883.61</ele>
        <time>2013-09-05T15:56:41Z</time>
      </trkpt>
      <trkpt lat="45.15033" lon="5.92734">
        <ele>1885.97</ele>
        <time>2013-09-05T15:56:54Z</time>
      </trkpt>
      <trkpt lat="45.15038" lon="5.92736">
        <ele>1886.89</ele>
        <time>2013-09-05T15:57:16Z</time>
      </trkpt>
      <trkpt lat="45.15044" lon="5.92752">
        <ele>1890.33</ele>
        <time>2013-09-05T15:57:27Z</time>
      </trkpt>
      <trkpt lat="45.15053" lon="5.92781">
        <ele>1893.45</ele>
        <time>2013-09-05T15:57:44Z</time>
      </trkpt>
      <trkpt lat="45.15056" lon="5.92775">
        <ele>1896.2</ele>
        <time>2013-09-05T15:57:57Z</time>
      </trkpt>
      <trkpt lat="45.15052" lon="5.92739">
        <ele>1899.38</ele>
        <time>2013-09-05T15:58:16Z</time>
      </trkpt>
      <trkpt lat="45.15052" lon="5.92712">
        <ele>1902.26</ele>
        <time>2013-09-05T15:58:31Z</time>
      </trkpt>
      <trkpt lat="45.15054" lon="5.92683">
        <ele>1905.09</ele>
        <time>2013-09-05T15:58:45Z</time>
      </trkpt>
      <trkpt lat="45.15056" lon="5.92662">
        <ele>1907.47</ele>
        <time>2013-09-05T15:58:58Z</time>
      </trkpt>
      <trkpt lat="45.15057" lon="5.92659">
        <ele>1907.85</ele>
        <time>2013-09-05T15:59:00Z</time>
      </trkpt>
      <trkpt lat="45.1506" lon="5.92657">
        <ele>1908.57</ele>
        <time>2013-09-05T15:59:03Z</time>
      </trkpt>
      <trkpt lat="45.15061" lon="5.92655">
        <ele>1909</ele>
        <time>2013-09-05T15:59:05Z</time>
      </trkpt>
      <trkpt lat="45.15068" lon="5.9266">
        <ele>1910.15</ele>
        <time>2013-09-05T15:59:11Z</time>
      </trkpt>
      <trkpt lat="45.15078" lon="5.92681">
        <ele>1912.16</ele>
        <time>2013-09-05T15:59:25Z</time>
      </trkpt>
      <trkpt lat="45.1508" lon="5.92692">
        <ele>1913.44</ele>
        <time>2013-09-05T15:59:31Z</time>
      </trkpt>
      <trkpt lat="45.1509" lon="5.92686">
        <ele>1916.91</ele>
        <time>2013-09-05T15:59:42Z</time>
      </trkpt>
      <trkpt lat="45.15097" lon="5.9268">
        <ele>1918.9</ele>
        <time>2013-09-05T15:59:51Z</time>
      </trkpt>
      <trkpt lat="45.15107" lon="5.92694">
        <ele>1921.99</ele>
        <time>2013-09-05T16:00:03Z</time>
      </trkpt>
      <trkpt lat="45.15112" lon="5.92706">
        <ele>1923.48</ele>
        <time>2013-09-05T16:00:10Z</time>
      </trkpt>
      <trkpt lat="45.15111" lon="5.92718">
        <ele>1924.6</ele>
        <time>2013-09-05T16:00:23Z</time>
      </trkpt>
      <trkpt lat="45.15117" lon="5.92736">
        <ele>1925.3</ele>
        <time>2013-09-05T16:00:45Z</time>
      </trkpt>
      <trkpt lat="45.15125" lon="5.92752">
        <ele>1926.63</ele>
        <time>2013-09-05T16:00:55Z</time>
      </trkpt>
      <trkpt lat="45.15128" lon="5.92765">
        <ele>1927.67</ele>
        <time>2013-09-05T16:01:01Z</time>
      </trkpt>
      <trkpt lat="45.15136" lon="5.92793">
        <ele>1929.22</ele>
        <time>2013-09-05T16:01:17Z</time>
      </trkpt>
      <trkpt lat="45.15144" lon="5.92813">
        <ele>1930.19</ele>
        <time>2013-09-05T16:01:28Z</time>
      </trkpt>
      <trkpt lat="45.15148" lon="5.92823">
        <ele>1931.33</ele>
        <time>2013-09-05T16:01:34Z</time>
      </trkpt>
      <trkpt lat="45.15154" lon="5.92837">
        <ele>1933.45</ele>
        <time>2013-09-05T16:01:42Z</time>
      </trkpt>
      <trkpt lat="45.15161" lon="5.92868">
        <ele>1933.55</ele>
        <time>2013-09-05T16:01:56Z</time>
      </trkpt>
      <trkpt lat="45.15176" lon="5.92892">
        <ele>1932.66</ele>
        <time>2013-09-05T16:02:11Z</time>
      </trkpt>
      <trkpt lat="45.15183" lon="5.92905">
        <ele>1932.21</ele>
        <time>2013-09-05T16:02:18Z</time>
      </trkpt>
      <trkpt lat="45.15201" lon="5.9293">
        <ele>1931.9</ele>
        <time>2013-09-05T16:02:34Z</time>
      </trkpt>
      <trkpt lat="45.15208" lon="5.92937">
        <ele>1931.67</ele>
        <time>2013-09-05T16:02:40Z</time>
      </trkpt>
      <trkpt lat="45.1521" lon="5.92943">
        <ele>1931.52</ele>
        <time>2013-09-05T16:02:43Z</time>
      </trkpt>
      <trkpt lat="45.15215" lon="5.92949">
        <ele>1930.49</ele>
        <time>2013-09-05T16:02:46Z</time>
      </trkpt>
      <trkpt lat="45.15222" lon="5.92968">
        <ele>1928.36</ele>
        <time>2013-09-05T16:02:53Z</time>
      </trkpt>
      <trkpt lat="45.15224" lon="5.92971">
        <ele>1928.33</ele>
        <time>2013-09-05T16:02:55Z</time>
      </trkpt>
      <trkpt lat="45.15236" lon="5.9299">
        <ele>1926.25</ele>
        <time>2013-09-05T16:03:07Z</time>
      </trkpt>
      <trkpt lat="45.15253" lon="5.93023">
        <ele>1927.58</ele>
        <time>2013-09-05T16:03:25Z</time>
      </trkpt>
      <trkpt lat="45.15269" lon="5.93049">
        <ele>1928.11</ele>
        <time>2013-09-05T16:03:40Z</time>
      </trkpt>
      <trkpt lat="45.1528" lon="5.93075">
        <ele>1929.06</ele>
        <time>2013-09-05T16:03:55Z</time>
      </trkpt>
      <trkpt lat="45.15298" lon="5.93102">
        <ele>1929.11</ele>
        <time>2013-09-05T16:04:13Z</time>
      </trkpt>
      <trkpt lat="45.15308" lon="5.93114">
        <ele>1929.64</ele>
        <time>2013-09-05T16:04:22Z</time>
      </trkpt>
      <trkpt lat="45.15311" lon="5.9312">
        <ele>1930</ele>
        <time>2013-09-05T16:04:26Z</time>
      </trkpt>
      <trkpt lat="45.15324" lon="5.93142">
        <ele>1930.58</ele>
        <time>2013-09-05T16:04:39Z</time>
      </trkpt>
      <trkpt lat="45.15338" lon="5.93158">
        <ele>1931.43</ele>
        <time>2013-09-05T16:04:52Z</time>
      </trkpt>
      <trkpt lat="45.15341" lon="5.93155">
        <ele>1931.51</ele>
        <time>2013-09-05T16:05:17Z</time>
      </trkpt>
      <trkpt lat="45.15342" lon="5.93152">
        <ele>1931.57</ele>
        <time>2013-09-05T16:05:19Z</time>
      </trkpt>
      <trkpt lat="45.15356" lon="5.93162">
        <ele>1932.32</ele>
        <time>2013-09-05T16:05:30Z</time>
      </trkpt>
      <trkpt lat="45.15369" lon="5.93181">
        <ele>1933.08</ele>
        <time>2013-09-05T16:05:43Z</time>
      </trkpt>
      <trkpt lat="45.15387" lon="5.9321">
        <ele>1933.96</ele>
        <time>2013-09-05T16:06:01Z</time>
      </trkpt>
      <trkpt lat="45.15402" lon="5.93224">
        <ele>1934.6</ele>
        <time>2013-09-05T16:06:14Z</time>
      </trkpt>
      <trkpt lat="45.1542" lon="5.93231">
        <ele>1935.99</ele>
        <time>2013-09-05T16:06:27Z</time>
      </trkpt>
      <trkpt lat="45.15427" lon="5.9324">
        <ele>1937.07</ele>
        <time>2013-09-05T16:06:33Z</time>
      </trkpt>
      <trkpt lat="45.1544" lon="5.93248">
        <ele>1937.78</ele>
        <time>2013-09-05T16:06:42Z</time>
      </trkpt>
      <trkpt lat="45.15443" lon="5.93249">
        <ele>1937.48</ele>
        <time>2013-09-05T16:06:44Z</time>
      </trkpt>
      <trkpt lat="45.15463" lon="5.93249">
        <ele>1937.15</ele>
        <time>2013-09-05T16:06:59Z</time>
      </trkpt>
      <trkpt lat="45.15479" lon="5.93245">
        <ele>1938.34</ele>
        <time>2013-09-05T16:07:10Z</time>
      </trkpt>
      <trkpt lat="45.155" lon="5.93241">
        <ele>1940.67</ele>
        <time>2013-09-05T16:07:22Z</time>
      </trkpt>
      <trkpt lat="45.15506" lon="5.93238">
        <ele>1942.6</ele>
        <time>2013-09-05T16:07:27Z</time>
      </trkpt>
      <trkpt lat="45.15514" lon="5.93246">
        <ele>1944.27</ele>
        <time>2013-09-05T16:07:34Z</time>
      </trkpt>
      <trkpt lat="45.15521" lon="5.93249">
        <ele>1946.65</ele>
        <time>2013-09-05T16:07:41Z</time>
      </trkpt>
      <trkpt lat="45.15534" lon="5.93255">
        <ele>1948.44</ele>
        <time>2013-09-05T16:07:52Z</time>
      </trkpt>
      <trkpt lat="45.15542" lon="5.93257">
        <ele>1950.73</ele>
        <time>2013-09-05T16:08:00Z</time>
      </trkpt>
      <trkpt lat="45.1555" lon="5.93264">
        <ele>1953.08</ele>
        <time>2013-09-05T16:08:17Z</time>
      </trkpt>
      <trkpt lat="45.15557" lon="5.93265">
        <ele>1955.36</ele>
        <time>2013-09-05T16:08:41Z</time>
      </trkpt>
      <trkpt lat="45.15562" lon="5.93261">
        <ele>1958.41</ele>
        <time>2013-09-05T16:08:50Z</time>
      </trkpt>
      <trkpt lat="45.15573" lon="5.93267">
        <ele>1961.76</ele>
        <time>2013-09-05T16:09:04Z</time>
      </trkpt>
      <trkpt lat="45.15581" lon="5.93269">
        <ele>1964.82</ele>
        <time>2013-09-05T16:09:20Z</time>
      </trkpt>
      <trkpt lat="45.15588" lon="5.93269">
        <ele>1968</ele>
        <time>2013-09-05T16:09:31Z</time>
      </trkpt>
      <trkpt lat="45.15595" lon="5.93281">
        <ele>1970.48</ele>
        <time>2013-09-05T16:09:41Z</time>
      </trkpt>
      <trkpt lat="45.15605" lon="5.9329">
        <ele>1973.47</ele>
        <time>2013-09-05T16:09:59Z</time>
      </trkpt>
      <trkpt lat="45.15614" lon="5.93301">
        <ele>1976.49</ele>
        <time>2013-09-05T16:10:09Z</time>
      </trkpt>
      <trkpt lat="45.1562" lon="5.93315">
        <ele>1979.68</ele>
        <time>2013-09-05T16:10:28Z</time>
      </trkpt>
      <trkpt lat="45.15626" lon="5.93322">
        <ele>1982.74</ele>
        <time>2013-09-05T16:10:38Z</time>
      </trkpt>
      <trkpt lat="45.15631" lon="5.9333">
        <ele>1985.11</ele>
        <time>2013-09-05T16:10:53Z</time>
      </trkpt>
      <trkpt lat="45.15637" lon="5.93333">
        <ele>1987.91</ele>
        <time>2013-09-05T16:11:00Z</time>
      </trkpt>
      <trkpt lat="45.15641" lon="5.93347">
        <ele>1991.04</ele>
        <time>2013-09-05T16:11:17Z</time>
      </trkpt>
      <trkpt lat="45.15645" lon="5.93361">
        <ele>1994.15</ele>
        <time>2013-09-05T16:11:26Z</time>
      </trkpt>
      <trkpt lat="45.15647" lon="5.93367">
        <ele>1994.81</ele>
        <time>2013-09-05T16:11:46Z</time>
      </trkpt>
      <trkpt lat="45.15645" lon="5.93376">
        <ele>1998.2</ele>
        <time>2013-09-05T16:11:58Z</time>
      </trkpt>
      <trkpt lat="45.15648" lon="5.93389">
        <ele>2001.61</ele>
        <time>2013-09-05T16:12:08Z</time>
      </trkpt>
      <trkpt lat="45.15652" lon="5.93399">
        <ele>2004.96</ele>
        <time>2013-09-05T16:12:18Z</time>
      </trkpt>
      <trkpt lat="45.15654" lon="5.93401">
        <ele>2005.73</ele>
        <time>2013-09-05T16:12:21Z</time>
      </trkpt>
      <trkpt lat="45.15663" lon="5.93413">
        <ele>2009.17</ele>
        <time>2013-09-05T16:12:36Z</time>
      </trkpt>
      <trkpt lat="45.15667" lon="5.93415">
        <ele>2010.45</ele>
        <time>2013-09-05T16:12:41Z</time>
      </trkpt>
      <trkpt lat="45.15683" lon="5.93428">
        <ele>2013.81</ele>
        <time>2013-09-05T16:12:57Z</time>
      </trkpt>
      <trkpt lat="45.15697" lon="5.93436">
        <ele>2016.88</ele>
        <time>2013-09-05T16:13:11Z</time>
      </trkpt>
      <trkpt lat="45.15714" lon="5.93428">
        <ele>2020.12</ele>
        <time>2013-09-05T16:13:26Z</time>
      </trkpt>
      <trkpt lat="45.15721" lon="5.93421">
        <ele>2022.49</ele>
        <time>2013-09-05T16:13:35Z</time>
      </trkpt>
      <trkpt lat="45.15726" lon="5.9342">
        <ele>2022.3</ele>
        <time>2013-09-05T16:13:38Z</time>
      </trkpt>
      <trkpt lat="45.15729" lon="5.93418">
        <ele>2021.94</ele>
        <time>2013-09-05T16:13:40Z</time>
      </trkpt>
      <trkpt lat="45.1573" lon="5.93415">
        <ele>2021.54</ele>
        <time>2013-09-05T16:13:43Z</time>
      </trkpt>
      <trkpt lat="45.15719" lon="5.93392">
        <ele>2023.76</ele>
        <time>2013-09-05T16:13:58Z</time>
      </trkpt>
      <trkpt lat="45.15715" lon="5.93372">
        <ele>2026.19</ele>
        <time>2013-09-05T16:14:10Z</time>
      </trkpt>
      <trkpt lat="45.15715" lon="5.93368">
        <ele>2026.32</ele>
        <time>2013-09-05T16:14:12Z</time>
      </trkpt>
      <trkpt lat="45.15719" lon="5.93343">
        <ele>2029.81</ele>
        <time>2013-09-05T16:14:26Z</time>
      </trkpt>
      <trkpt lat="45.15725" lon="5.93325">
        <ele>2031.04</ele>
        <time>2013-09-05T16:14:37Z</time>
      </trkpt>
      <trkpt lat="45.15729" lon="5.93323">
        <ele>2033.04</ele>
        <time>2013-09-05T16:14:41Z</time>
      </trkpt>
      <trkpt lat="45.15732" lon="5.93319">
        <ele>2034.27</ele>
        <time>2013-09-05T16:14:45Z</time>
      </trkpt>
      <trkpt lat="45.15736" lon="5.93319">
        <ele>2034.15</ele>
        <time>2013-09-05T16:14:48Z</time>
      </trkpt>
      <trkpt lat="45.15746" lon="5.93316">
        <ele>2034.49</ele>
        <time>2013-09-05T16:14:57Z</time>
      </trkpt>
      <trkpt lat="45.15751" lon="5.93318">
        <ele>2034.62</ele>
        <time>2013-09-05T16:15:01Z</time>
      </trkpt>
      <trkpt lat="45.15765" lon="5.93335">
        <ele>2035.02</ele>
        <time>2013-09-05T16:15:16Z</time>
      </trkpt>
      <trkpt lat="45.15766" lon="5.93338">
        <ele>2034.93</ele>
        <time>2013-09-05T16:15:33Z</time>
      </trkpt>
      <trkpt lat="45.15766" lon="5.9334">
        <ele>2034.95</ele>
        <time>2013-09-05T16:15:50Z</time>
      </trkpt>
      <trkpt lat="45.15762" lon="5.93341">
        <ele>2058.43</ele>
        <time>2013-09-05T16:17:25Z</time>
      </trkpt>
      <trkpt lat="45.1576" lon="5.9334">
        <ele>2058.43</ele>
        <time>2013-09-05T16:17:27Z</time>
      </trkpt>
      <trkpt lat="45.15762" lon="5.93338">
        <ele>2058.56</ele>
        <time>2013-09-05T16:17:44Z</time>
      </trkpt>
      <trkpt lat="45.15749" lon="5.93314">
        <ele>2059.37</ele>
        <time>2013-09-05T16:17:58Z</time>
      </trkpt>
      <trkpt lat="45.15744" lon="5.93288">
        <ele>2058.51</ele>
        <time>2013-09-05T16:18:10Z</time>
      </trkpt>
      <trkpt lat="45.15743" lon="5.93282">
        <ele>2058.82</ele>
        <time>2013-09-05T16:18:13Z</time>
      </trkpt>
      <trkpt lat="45.15745" lon="5.93267">
        <ele>2060.52</ele>
        <time>2013-09-05T16:18:19Z</time>
      </trkpt>
      <trkpt lat="45.15742" lon="5.93239">
        <ele>2061.92</ele>
        <time>2013-09-05T16:18:32Z</time>
      </trkpt>
      <trkpt lat="45.1574" lon="5.93215">
        <ele>2062.88</ele>
        <time>2013-09-05T16:18:44Z</time>
      </trkpt>
      <trkpt lat="45.15739" lon="5.93213">
        <ele>2063.03</ele>
        <time>2013-09-05T16:18:45Z</time>
      </trkpt>
      <trkpt lat="45.15741" lon="5.93204">
        <ele>2062.73</ele>
        <time>2013-09-05T16:18:49Z</time>
      </trkpt>
      <trkpt lat="45.15739" lon="5.93184">
        <ele>2060.17</ele>
        <time>2013-09-05T16:18:55Z</time>
      </trkpt>
      <trkpt lat="45.15737" lon="5.93159">
        <ele>2060.29</ele>
        <time>2013-09-05T16:19:05Z</time>
      </trkpt>
      <trkpt lat="45.15737" lon="5.93157">
        <ele>2060.16</ele>
        <time>2013-09-05T16:19:06Z</time>
      </trkpt>
      <trkpt lat="45.15735" lon="5.93148">
        <ele>2059.33</ele>
        <time>2013-09-05T16:19:10Z</time>
      </trkpt>
      <trkpt lat="45.15734" lon="5.93137">
        <ele>2059.95</ele>
        <time>2013-09-05T16:19:15Z</time>
      </trkpt>
      <trkpt lat="45.15731" lon="5.93119">
        <ele>2059.2</ele>
        <time>2013-09-05T16:19:23Z</time>
      </trkpt>
      <trkpt lat="45.15731" lon="5.93108">
        <ele>2058.21</ele>
        <time>2013-09-05T16:19:27Z</time>
      </trkpt>
      <trkpt lat="45.15727" lon="5.93102">
        <ele>2057.17</ele>
        <time>2013-09-05T16:19:30Z</time>
      </trkpt>
      <trkpt lat="45.15727" lon="5.93088">
        <ele>2053.88</ele>
        <time>2013-09-05T16:19:36Z</time>
      </trkpt>
      <trkpt lat="45.15732" lon="5.93078">
        <ele>2051.72</ele>
        <time>2013-09-05T16:19:41Z</time>
      </trkpt>
      <trkpt lat="45.15731" lon="5.93069">
        <ele>2050.74</ele>
        <time>2013-09-05T16:19:45Z</time>
      </trkpt>
      <trkpt lat="45.15733" lon="5.93065">
        <ele>2050.76</ele>
        <time>2013-09-05T16:19:56Z</time>
      </trkpt>
      <trkpt lat="45.15732" lon="5.93059">
        <ele>2051.59</ele>
        <time>2013-09-05T16:20:19Z</time>
      </trkpt>
      <trkpt lat="45.15729" lon="5.93055">
        <ele>2051.93</ele>
        <time>2013-09-05T16:20:22Z</time>
      </trkpt>
      <trkpt lat="45.15725" lon="5.93046">
        <ele>2051.78</ele>
        <time>2013-09-05T16:20:27Z</time>
      </trkpt>
      <trkpt lat="45.15718" lon="5.9303">
        <ele>2051.52</ele>
        <time>2013-09-05T16:20:40Z</time>
      </trkpt>
      <trkpt lat="45.15731" lon="5.93021">
        <ele>2052.57</ele>
        <time>2013-09-05T16:20:54Z</time>
      </trkpt>
      <trkpt lat="45.15733" lon="5.93021">
        <ele>2052.16</ele>
        <time>2013-09-05T16:20:55Z</time>
      </trkpt>
      <trkpt lat="45.15745" lon="5.93012">
        <ele>2050.9</ele>
        <time>2013-09-05T16:21:08Z</time>
      </trkpt>
      <trkpt lat="45.15761" lon="5.93009">
        <ele>2052.08</ele>
        <time>2013-09-05T16:21:19Z</time>
      </trkpt>
      <trkpt lat="45.15762" lon="5.93009">
        <ele>2052.06</ele>
        <time>2013-09-05T16:21:20Z</time>
      </trkpt>
      <trkpt lat="45.15765" lon="5.93007">
        <ele>2052.49</ele>
        <time>2013-09-05T16:21:23Z</time>
      </trkpt>
      <trkpt lat="45.15778" lon="5.93009">
        <ele>2053.49</ele>
        <time>2013-09-05T16:21:35Z</time>
      </trkpt>
      <trkpt lat="45.15783" lon="5.9301">
        <ele>2052.86</ele>
        <time>2013-09-05T16:21:39Z</time>
      </trkpt>
      <trkpt lat="45.15793" lon="5.93008">
        <ele>2051.92</ele>
        <time>2013-09-05T16:21:53Z</time>
      </trkpt>
      <trkpt lat="45.15802" lon="5.93006">
        <ele>2052.31</ele>
        <time>2013-09-05T16:22:11Z</time>
      </trkpt>
      <trkpt lat="45.15809" lon="5.93004">
        <ele>2052.14</ele>
        <time>2013-09-05T16:22:35Z</time>
      </trkpt>
      <trkpt lat="45.1583" lon="5.93008">
        <ele>2052.25</ele>
        <time>2013-09-05T16:22:51Z</time>
      </trkpt>
      <trkpt lat="45.15831" lon="5.93008">
        <ele>2052.24</ele>
        <time>2013-09-05T16:22:52Z</time>
      </trkpt>
      <trkpt lat="45.15834" lon="5.93012">
        <ele>2052.34</ele>
        <time>2013-09-05T16:22:55Z</time>
      </trkpt>
      <trkpt lat="45.15838" lon="5.93012">
        <ele>2052.06</ele>
        <time>2013-09-05T16:22:59Z</time>
      </trkpt>
      <trkpt lat="45.15845" lon="5.93017">
        <ele>2052.38</ele>
        <time>2013-09-05T16:23:05Z</time>
      </trkpt>
      <trkpt lat="45.15847" lon="5.9302">
        <ele>2052.52</ele>
        <time>2013-09-05T16:23:08Z</time>
      </trkpt>
      <trkpt lat="45.15849" lon="5.93025">
        <ele>2051.89</ele>
        <time>2013-09-05T16:23:11Z</time>
      </trkpt>
      <trkpt lat="45.15854" lon="5.93032">
        <ele>2051.06</ele>
        <time>2013-09-05T16:23:16Z</time>
      </trkpt>
      <trkpt lat="45.15856" lon="5.93038">
        <ele>2050.37</ele>
        <time>2013-09-05T16:23:18Z</time>
      </trkpt>
      <trkpt lat="45.15868" lon="5.93045">
        <ele>2052.71</ele>
        <time>2013-09-05T16:23:32Z</time>
      </trkpt>
      <trkpt lat="45.15872" lon="5.93047">
        <ele>2053.92</ele>
        <time>2013-09-05T16:23:37Z</time>
      </trkpt>
      <trkpt lat="45.15883" lon="5.93053">
        <ele>2055.22</ele>
        <time>2013-09-05T16:23:46Z</time>
      </trkpt>
      <trkpt lat="45.15888" lon="5.93056">
        <ele>2055.42</ele>
        <time>2013-09-05T16:23:50Z</time>
      </trkpt>
      <trkpt lat="45.15895" lon="5.93058">
        <ele>2055.86</ele>
        <time>2013-09-05T16:23:57Z</time>
      </trkpt>
      <trkpt lat="45.15896" lon="5.9306">
        <ele>2047.76</ele>
        <time>2013-09-05T16:24:33Z</time>
      </trkpt>
      <trkpt lat="45.15894" lon="5.93059">
        <ele>2047.76</ele>
        <time>2013-09-05T16:24:35Z</time>
      </trkpt>
      <trkpt lat="45.15895" lon="5.9306">
        <ele>2047.77</ele>
        <time>2013-09-05T16:24:38Z</time>
      </trkpt>
      <trkpt lat="45.15904" lon="5.93065">
        <ele>2049.13</ele>
        <time>2013-09-05T16:24:45Z</time>
      </trkpt>
      <trkpt lat="45.15922" lon="5.93079">
        <ele>2052.35</ele>
        <time>2013-09-05T16:24:58Z</time>
      </trkpt>
      <trkpt lat="45.15927" lon="5.93082">
        <ele>2053.98</ele>
        <time>2013-09-05T16:25:03Z</time>
      </trkpt>
      <trkpt lat="45.1594" lon="5.93093">
        <ele>2056.9</ele>
        <time>2013-09-05T16:25:16Z</time>
      </trkpt>
      <trkpt lat="45.15948" lon="5.93104">
        <ele>2059.27</ele>
        <time>2013-09-05T16:25:29Z</time>
      </trkpt>
      <trkpt lat="45.15954" lon="5.93113">
        <ele>2060.83</ele>
        <time>2013-09-05T16:25:49Z</time>
      </trkpt>
      <trkpt lat="45.15967" lon="5.93121">
        <ele>2063.67</ele>
        <time>2013-09-05T16:26:01Z</time>
      </trkpt>
      <trkpt lat="45.1598" lon="5.93121">
        <ele>2067.19</ele>
        <time>2013-09-05T16:26:14Z</time>
      </trkpt>
      <trkpt lat="45.15986" lon="5.93132">
        <ele>2069.36</ele>
        <time>2013-09-05T16:26:27Z</time>
      </trkpt>
      <trkpt lat="45.15995" lon="5.93136">
        <ele>2072.75</ele>
        <time>2013-09-05T16:26:41Z</time>
      </trkpt>
      <trkpt lat="45.15997" lon="5.93139">
        <ele>2073.53</ele>
        <time>2013-09-05T16:26:52Z</time>
      </trkpt>
      <trkpt lat="45.16003" lon="5.93143">
        <ele>2074.24</ele>
        <time>2013-09-05T16:26:58Z</time>
      </trkpt>
      <trkpt lat="45.16006" lon="5.93143">
        <ele>2074.74</ele>
        <time>2013-09-05T16:27:01Z</time>
      </trkpt>
      <trkpt lat="45.16015" lon="5.93152">
        <ele>2078.07</ele>
        <time>2013-09-05T16:27:12Z</time>
      </trkpt>
      <trkpt lat="45.16021" lon="5.93155">
        <ele>2081.14</ele>
        <time>2013-09-05T16:27:22Z</time>
      </trkpt>
      <trkpt lat="45.16026" lon="5.93173">
        <ele>2084</ele>
        <time>2013-09-05T16:27:41Z</time>
      </trkpt>
      <trkpt lat="45.16035" lon="5.93175">
        <ele>2087.29</ele>
        <time>2013-09-05T16:27:52Z</time>
      </trkpt>
      <trkpt lat="45.16042" lon="5.93178">
        <ele>2090.56</ele>
        <time>2013-09-05T16:28:03Z</time>
      </trkpt>
      <trkpt lat="45.16051" lon="5.93177">
        <ele>2093.75</ele>
        <time>2013-09-05T16:28:21Z</time>
      </trkpt>
      <trkpt lat="45.16058" lon="5.93181">
        <ele>2096.77</ele>
        <time>2013-09-05T16:28:33Z</time>
      </trkpt>
      <trkpt lat="45.16063" lon="5.9318">
        <ele>2099.94</ele>
        <time>2013-09-05T16:28:45Z</time>
      </trkpt>
      <trkpt lat="45.16069" lon="5.93178">
        <ele>2103.19</ele>
        <time>2013-09-05T16:28:55Z</time>
      </trkpt>
      <trkpt lat="45.16075" lon="5.93179">
        <ele>2105.75</ele>
        <time>2013-09-05T16:29:08Z</time>
      </trkpt>
      <trkpt lat="45.16079" lon="5.93179">
        <ele>2107.04</ele>
        <time>2013-09-05T16:29:35Z</time>
      </trkpt>
      <trkpt lat="45.16085" lon="5.93177">
        <ele>2109.38</ele>
        <time>2013-09-05T16:29:42Z</time>
      </trkpt>
      <trkpt lat="45.16091" lon="5.93174">
        <ele>2112.8</ele>
        <time>2013-09-05T16:29:53Z</time>
      </trkpt>
      <trkpt lat="45.16097" lon="5.93171">
        <ele>2115.87</ele>
        <time>2013-09-05T16:30:04Z</time>
      </trkpt>
      <trkpt lat="45.16101" lon="5.93166">
        <ele>2118.97</ele>
        <time>2013-09-05T16:30:15Z</time>
      </trkpt>
      <trkpt lat="45.16106" lon="5.93162">
        <ele>2122.17</ele>
        <time>2013-09-05T16:30:26Z</time>
      </trkpt>
      <trkpt lat="45.16112" lon="5.93166">
        <ele>2125.25</ele>
        <time>2013-09-05T16:30:35Z</time>
      </trkpt>
      <trkpt lat="45.16116" lon="5.93163">
        <ele>2128.45</ele>
        <time>2013-09-05T16:30:44Z</time>
      </trkpt>
      <trkpt lat="45.16121" lon="5.93167">
        <ele>2131.54</ele>
        <time>2013-09-05T16:31:01Z</time>
      </trkpt>
      <trkpt lat="45.16125" lon="5.93163">
        <ele>2134.55</ele>
        <time>2013-09-05T16:31:11Z</time>
      </trkpt>
      <trkpt lat="45.16128" lon="5.93163">
        <ele>2136.18</ele>
        <time>2013-09-05T16:31:31Z</time>
      </trkpt>
      <trkpt lat="45.16134" lon="5.93162">
        <ele>2139.36</ele>
        <time>2013-09-05T16:31:43Z</time>
      </trkpt>
      <trkpt lat="45.16144" lon="5.93171">
        <ele>2142.46</ele>
        <time>2013-09-05T16:31:54Z</time>
      </trkpt>
      <trkpt lat="45.16145" lon="5.93166">
        <ele>2145.52</ele>
        <time>2013-09-05T16:32:05Z</time>
      </trkpt>
      <trkpt lat="45.16151" lon="5.9317">
        <ele>2148.65</ele>
        <time>2013-09-05T16:32:16Z</time>
      </trkpt>
      <trkpt lat="45.16156" lon="5.93171">
        <ele>2151.55</ele>
        <time>2013-09-05T16:32:39Z</time>
      </trkpt>
      <trkpt lat="45.16157" lon="5.93163">
        <ele>2154.75</ele>
        <time>2013-09-05T16:32:50Z</time>
      </trkpt>
      <trkpt lat="45.16164" lon="5.93164">
        <ele>2157.77</ele>
        <time>2013-09-05T16:33:03Z</time>
      </trkpt>
      <trkpt lat="45.16167" lon="5.93162">
        <ele>2160.91</ele>
        <time>2013-09-05T16:33:19Z</time>
      </trkpt>
      <trkpt lat="45.16169" lon="5.93154">
        <ele>2164.14</ele>
        <time>2013-09-05T16:33:33Z</time>
      </trkpt>
      <trkpt lat="45.16172" lon="5.93145">
        <ele>2167.31</ele>
        <time>2013-09-05T16:33:49Z</time>
      </trkpt>
      <trkpt lat="45.16175" lon="5.93138">
        <ele>2170.48</ele>
        <time>2013-09-05T16:33:58Z</time>
      </trkpt>
      <trkpt lat="45.16175" lon="5.9313">
        <ele>2173.37</ele>
        <time>2013-09-05T16:34:16Z</time>
      </trkpt>
      <trkpt lat="45.1618" lon="5.93122">
        <ele>2176.58</ele>
        <time>2013-09-05T16:34:34Z</time>
      </trkpt>
      <trkpt lat="45.16179" lon="5.93111">
        <ele>2179.66</ele>
        <time>2013-09-05T16:34:45Z</time>
      </trkpt>
      <trkpt lat="45.16179" lon="5.93105">
        <ele>2182.75</ele>
        <time>2013-09-05T16:34:57Z</time>
      </trkpt>
      <trkpt lat="45.16183" lon="5.93098">
        <ele>2185.85</ele>
        <time>2013-09-05T16:35:07Z</time>
      </trkpt>
      <trkpt lat="45.16184" lon="5.93098">
        <ele>2186.26</ele>
        <time>2013-09-05T16:35:30Z</time>
      </trkpt>
      <trkpt lat="45.16185" lon="5.93089">
        <ele>2189.57</ele>
        <time>2013-09-05T16:35:41Z</time>
      </trkpt>
      <trkpt lat="45.16184" lon="5.93083">
        <ele>2192.63</ele>
        <time>2013-09-05T16:35:52Z</time>
      </trkpt>
      <trkpt lat="45.16184" lon="5.93077">
        <ele>2193.91</ele>
        <time>2013-09-05T16:36:19Z</time>
      </trkpt>
      <trkpt lat="45.16185" lon="5.93069">
        <ele>2197.13</ele>
        <time>2013-09-05T16:36:27Z</time>
      </trkpt>
      <trkpt lat="45.16185" lon="5.93067">
        <ele>2197.8</ele>
        <time>2013-09-05T16:36:29Z</time>
      </trkpt>
      <trkpt lat="45.16186" lon="5.93057">
        <ele>2200.49</ele>
        <time>2013-09-05T16:36:37Z</time>
      </trkpt>
      <trkpt lat="45.16189" lon="5.9304">
        <ele>2203.59</ele>
        <time>2013-09-05T16:36:50Z</time>
      </trkpt>
      <trkpt lat="45.16198" lon="5.93028">
        <ele>2206.58</ele>
        <time>2013-09-05T16:37:09Z</time>
      </trkpt>
      <trkpt lat="45.162" lon="5.93012">
        <ele>2209.95</ele>
        <time>2013-09-05T16:37:22Z</time>
      </trkpt>
      <trkpt lat="45.16201" lon="5.93006">
        <ele>2211.92</ele>
        <time>2013-09-05T16:37:27Z</time>
      </trkpt>
      <trkpt lat="45.16202" lon="5.92996">
        <ele>2215.23</ele>
        <time>2013-09-05T16:37:37Z</time>
      </trkpt>
      <trkpt lat="45.16209" lon="5.92989">
        <ele>2218.37</ele>
        <time>2013-09-05T16:37:56Z</time>
      </trkpt>
      <trkpt lat="45.16209" lon="5.92981">
        <ele>2221.68</ele>
        <time>2013-09-05T16:38:09Z</time>
      </trkpt>
      <trkpt lat="45.16209" lon="5.92974">
        <ele>2224.75</ele>
        <time>2013-09-05T16:38:21Z</time>
      </trkpt>
      <trkpt lat="45.16211" lon="5.92958">
        <ele>2225.21</ele>
        <time>2013-09-05T16:38:38Z</time>
      </trkpt>
      <trkpt lat="45.16214" lon="5.92955">
        <ele>2225.48</ele>
        <time>2013-09-05T16:39:02Z</time>
      </trkpt>
      <trkpt lat="45.16218" lon="5.92951">
        <ele>2226.23</ele>
        <time>2013-09-05T16:39:07Z</time>
      </trkpt>
      <trkpt lat="45.16227" lon="5.92942">
        <ele>2227.99</ele>
        <time>2013-09-05T16:39:15Z</time>
      </trkpt>
      <trkpt lat="45.16232" lon="5.92941">
        <ele>2229.01</ele>
        <time>2013-09-05T16:39:19Z</time>
      </trkpt>
      <trkpt lat="45.16239" lon="5.92937">
        <ele>2231.02</ele>
        <time>2013-09-05T16:39:27Z</time>
      </trkpt>
      <trkpt lat="45.16243" lon="5.92937">
        <ele>2232.03</ele>
        <time>2013-09-05T16:39:31Z</time>
      </trkpt>
      <trkpt lat="45.16248" lon="5.92936">
        <ele>2233.85</ele>
        <time>2013-09-05T16:39:37Z</time>
      </trkpt>
      <trkpt lat="45.16251" lon="5.92936">
        <ele>2234.64</ele>
        <time>2013-09-05T16:39:40Z</time>
      </trkpt>
      <trkpt lat="45.16253" lon="5.92936">
        <ele>2235.21</ele>
        <time>2013-09-05T16:39:42Z</time>
      </trkpt>
      <trkpt lat="45.16256" lon="5.92939">
        <ele>2236.42</ele>
        <time>2013-09-05T16:39:59Z</time>
      </trkpt>
      <trkpt lat="45.16264" lon="5.92934">
        <ele>2238.28</ele>
        <time>2013-09-05T16:40:14Z</time>
      </trkpt>
      <trkpt lat="45.1627" lon="5.9293">
        <ele>2241.39</ele>
        <time>2013-09-05T16:40:29Z</time>
      </trkpt>
      <trkpt lat="45.16276" lon="5.92927">
        <ele>2244.4</ele>
        <time>2013-09-05T16:40:40Z</time>
      </trkpt>
      <trkpt lat="45.16283" lon="5.92921">
        <ele>2247.75</ele>
        <time>2013-09-05T16:40:52Z</time>
      </trkpt>
      <trkpt lat="45.16286" lon="5.92915">
        <ele>2249.67</ele>
        <time>2013-09-05T16:41:10Z</time>
      </trkpt>
      <trkpt lat="45.16288" lon="5.92914">
        <ele>2250.73</ele>
        <time>2013-09-05T16:41:32Z</time>
      </trkpt>
      <trkpt lat="45.16297" lon="5.92903">
        <ele>2253.71</ele>
        <time>2013-09-05T16:41:53Z</time>
      </trkpt>
      <trkpt lat="45.16306" lon="5.92896">
        <ele>2257.22</ele>
        <time>2013-09-05T16:42:05Z</time>
      </trkpt>
      <trkpt lat="45.16307" lon="5.92894">
        <ele>2257.79</ele>
        <time>2013-09-05T16:42:07Z</time>
      </trkpt>
      <trkpt lat="45.16302" lon="5.92881">
        <ele>2261.27</ele>
        <time>2013-09-05T16:42:19Z</time>
      </trkpt>
      <trkpt lat="45.163" lon="5.92875">
        <ele>2264.06</ele>
        <time>2013-09-05T16:42:42Z</time>
      </trkpt>
      <trkpt lat="45.16301" lon="5.92871">
        <ele>2265.11</ele>
        <time>2013-09-05T16:43:15Z</time>
      </trkpt>
      <trkpt lat="45.16308" lon="5.92861">
        <ele>2268.49</ele>
        <time>2013-09-05T16:43:25Z</time>
      </trkpt>
      <trkpt lat="45.16311" lon="5.92854">
        <ele>2271.74</ele>
        <time>2013-09-05T16:43:34Z</time>
      </trkpt>
      <trkpt lat="45.16315" lon="5.92845">
        <ele>2275.03</ele>
        <time>2013-09-05T16:43:53Z</time>
      </trkpt>
      <trkpt lat="45.16316" lon="5.92844">
        <ele>2275.86</ele>
        <time>2013-09-05T16:43:55Z</time>
      </trkpt>
      <trkpt lat="45.1632" lon="5.92837">
        <ele>2278.97</ele>
        <time>2013-09-05T16:44:17Z</time>
      </trkpt>
      <trkpt lat="45.16326" lon="5.9283">
        <ele>2282.35</ele>
        <time>2013-09-05T16:44:26Z</time>
      </trkpt>
      <trkpt lat="45.16331" lon="5.92827">
        <ele>2285.41</ele>
        <time>2013-09-05T16:44:36Z</time>
      </trkpt>
      <trkpt lat="45.16329" lon="5.92821">
        <ele>2288.58</ele>
        <time>2013-09-05T16:44:54Z</time>
      </trkpt>
      <trkpt lat="45.16327" lon="5.92809">
        <ele>2291.66</ele>
        <time>2013-09-05T16:45:04Z</time>
      </trkpt>
      <trkpt lat="45.16331" lon="5.92801">
        <ele>2294.51</ele>
        <time>2013-09-05T16:45:25Z</time>
      </trkpt>
      <trkpt lat="45.16334" lon="5.92795">
        <ele>2297.55</ele>
        <time>2013-09-05T16:45:36Z</time>
      </trkpt>
      <trkpt lat="45.1634" lon="5.92791">
        <ele>2300.57</ele>
        <time>2013-09-05T16:45:47Z</time>
      </trkpt>
      <trkpt lat="45.16341" lon="5.92788">
        <ele>2303.7</ele>
        <time>2013-09-05T16:46:07Z</time>
      </trkpt>
      <trkpt lat="45.16345" lon="5.92783">
        <ele>2306.83</ele>
        <time>2013-09-05T16:46:19Z</time>
      </trkpt>
      <trkpt lat="45.16345" lon="5.92778">
        <ele>2309.94</ele>
        <time>2013-09-05T16:46:32Z</time>
      </trkpt>
      <trkpt lat="45.16345" lon="5.92769">
        <ele>2313.25</ele>
        <time>2013-09-05T16:46:51Z</time>
      </trkpt>
      <trkpt lat="45.16349" lon="5.92761">
        <ele>2316.26</ele>
        <time>2013-09-05T16:47:03Z</time>
      </trkpt>
      <trkpt lat="45.16353" lon="5.92756">
        <ele>2319.43</ele>
        <time>2013-09-05T16:47:23Z</time>
      </trkpt>
      <trkpt lat="45.16359" lon="5.92758">
        <ele>2322.83</ele>
        <time>2013-09-05T16:47:33Z</time>
      </trkpt>
      <trkpt lat="45.16361" lon="5.9276">
        <ele>2324.88</ele>
        <time>2013-09-05T16:47:55Z</time>
      </trkpt>
      <trkpt lat="45.16366" lon="5.92756">
        <ele>2327.91</ele>
        <time>2013-09-05T16:48:17Z</time>
      </trkpt>
      <trkpt lat="45.16367" lon="5.92756">
        <ele>2328.2</ele>
        <time>2013-09-05T16:48:18Z</time>
      </trkpt>
      <trkpt lat="45.16368" lon="5.92755">
        <ele>2328.85</ele>
        <time>2013-09-05T16:48:20Z</time>
      </trkpt>
      <trkpt lat="45.16372" lon="5.9275">
        <ele>2331.91</ele>
        <time>2013-09-05T16:48:26Z</time>
      </trkpt>
      <trkpt lat="45.16373" lon="5.92744">
        <ele>2334</ele>
        <time>2013-09-05T16:48:48Z</time>
      </trkpt>
      <trkpt lat="45.16382" lon="5.92743">
        <ele>2337.18</ele>
        <time>2013-09-05T16:49:07Z</time>
      </trkpt>
      <trkpt lat="45.16389" lon="5.92745">
        <ele>2340.31</ele>
        <time>2013-09-05T16:49:20Z</time>
      </trkpt>
      <trkpt lat="45.16392" lon="5.92747">
        <ele>2343.52</ele>
        <time>2013-09-05T16:49:35Z</time>
      </trkpt>
      <trkpt lat="45.16396" lon="5.92736">
        <ele>2346.62</ele>
        <time>2013-09-05T16:49:47Z</time>
      </trkpt>
      <trkpt lat="45.16395" lon="5.92724">
        <ele>2349.77</ele>
        <time>2013-09-05T16:49:58Z</time>
      </trkpt>
      <trkpt lat="45.16393" lon="5.92705">
        <ele>2352.78</ele>
        <time>2013-09-05T16:50:11Z</time>
      </trkpt>
      <trkpt lat="45.16392" lon="5.92704">
        <ele>2353.17</ele>
        <time>2013-09-05T16:50:12Z</time>
      </trkpt>
      <trkpt lat="45.16389" lon="5.92696">
        <ele>2354.9</ele>
        <time>2013-09-05T16:50:18Z</time>
      </trkpt>
      <trkpt lat="45.16383" lon="5.92684">
        <ele>2357.16</ele>
        <time>2013-09-05T16:50:28Z</time>
      </trkpt>
      <trkpt lat="45.16377" lon="5.92675">
        <ele>2360.45</ele>
        <time>2013-09-05T16:50:38Z</time>
      </trkpt>
      <trkpt lat="45.16377" lon="5.92672">
        <ele>2361.82</ele>
        <time>2013-09-05T16:50:58Z</time>
      </trkpt>
      <trkpt lat="45.16372" lon="5.92672">
        <ele>2361.74</ele>
        <time>2013-09-05T16:51:07Z</time>
      </trkpt>
      <trkpt lat="45.16368" lon="5.92673">
        <ele>2362.43</ele>
        <time>2013-09-05T16:51:12Z</time>
      </trkpt>
      <trkpt lat="45.16353" lon="5.92677">
        <ele>2364.81</ele>
        <time>2013-09-05T16:51:26Z</time>
      </trkpt>
      <trkpt lat="45.16352" lon="5.92677">
        <ele>2364.69</ele>
        <time>2013-09-05T16:51:27Z</time>
      </trkpt>
      <trkpt lat="45.16338" lon="5.92675">
        <ele>2365.4</ele>
        <time>2013-09-05T16:51:39Z</time>
      </trkpt>
      <trkpt lat="45.16329" lon="5.92674">
        <ele>2367.06</ele>
        <time>2013-09-05T16:51:49Z</time>
      </trkpt>
      <trkpt lat="45.16317" lon="5.92679">
        <ele>2370.57</ele>
        <time>2013-09-05T16:52:01Z</time>
      </trkpt>
      <trkpt lat="45.16309" lon="5.92685">
        <ele>2373.38</ele>
        <time>2013-09-05T16:52:14Z</time>
      </trkpt>
      <trkpt lat="45.16302" lon="5.92684">
        <ele>2373.07</ele>
        <time>2013-09-05T16:52:37Z</time>
      </trkpt>
      <trkpt lat="45.16307" lon="5.9268">
        <ele>2373.59</ele>
        <time>2013-09-05T16:52:53Z</time>
      </trkpt>
      <trkpt lat="45.16307" lon="5.9268">
        <ele>2373.51</ele>
        <time>2013-09-05T16:52:55Z</time>
      </trkpt>
      <trkpt lat="45.16308" lon="5.9268">
        <ele>2372.98</ele>
        <time>2013-09-05T16:59:32Z</time>
      </trkpt>
      <trkpt lat="45.16308" lon="5.92678">
        <ele>2374.11</ele>
        <time>2013-09-05T16:59:58Z</time>
      </trkpt>
      <trkpt lat="45.16318" lon="5.92673">
        <ele>2373.68</ele>
        <time>2013-09-05T17:00:22Z</time>
      </trkpt>
      <trkpt lat="45.16319" lon="5.92672">
        <ele>2373.44</ele>
        <time>2013-09-05T17:00:23Z</time>
      </trkpt>
      <trkpt lat="45.16332" lon="5.92672">
        <ele>2370.64</ele>
        <time>2013-09-05T17:00:34Z</time>
      </trkpt>
      <trkpt lat="45.16357" lon="5.92677">
        <ele>2368.79</ele>
        <time>2013-09-05T17:00:45Z</time>
      </trkpt>
      <trkpt lat="45.16363" lon="5.92676">
        <ele>2368.83</ele>
        <time>2013-09-05T17:00:49Z</time>
      </trkpt>
      <trkpt lat="45.16371" lon="5.92672">
        <ele>2367.28</ele>
        <time>2013-09-05T17:00:54Z</time>
      </trkpt>
      <trkpt lat="45.16376" lon="5.92676">
        <ele>2366.37</ele>
        <time>2013-09-05T17:01:05Z</time>
      </trkpt>
      <trkpt lat="45.16376" lon="5.92677">
        <ele>2366.23</ele>
        <time>2013-09-05T17:01:10Z</time>
      </trkpt>
      <trkpt lat="45.16384" lon="5.92689">
        <ele>2363.1</ele>
        <time>2013-09-05T17:01:16Z</time>
      </trkpt>
      <trkpt lat="45.16387" lon="5.92695">
        <ele>2361.71</ele>
        <time>2013-09-05T17:01:18Z</time>
      </trkpt>
      <trkpt lat="45.16392" lon="5.92706">
        <ele>2359.92</ele>
        <time>2013-09-05T17:01:22Z</time>
      </trkpt>
      <trkpt lat="45.16393" lon="5.92716">
        <ele>2358.13</ele>
        <time>2013-09-05T17:01:26Z</time>
      </trkpt>
      <trkpt lat="45.16394" lon="5.92737">
        <ele>2354.24</ele>
        <time>2013-09-05T17:01:34Z</time>
      </trkpt>
      <trkpt lat="45.16394" lon="5.9274">
        <ele>2353.77</ele>
        <time>2013-09-05T17:01:35Z</time>
      </trkpt>
      <trkpt lat="45.16389" lon="5.92752">
        <ele>2350.05</ele>
        <time>2013-09-05T17:01:42Z</time>
      </trkpt>
      <trkpt lat="45.16382" lon="5.92754">
        <ele>2346.64</ele>
        <time>2013-09-05T17:01:51Z</time>
      </trkpt>
      <trkpt lat="45.16375" lon="5.92752">
        <ele>2342.72</ele>
        <time>2013-09-05T17:01:58Z</time>
      </trkpt>
      <trkpt lat="45.16371" lon="5.92751">
        <ele>2341.38</ele>
        <time>2013-09-05T17:02:01Z</time>
      </trkpt>
      <trkpt lat="45.16368" lon="5.92758">
        <ele>2337.66</ele>
        <time>2013-09-05T17:02:10Z</time>
      </trkpt>
      <trkpt lat="45.16363" lon="5.9276">
        <ele>2334.83</ele>
        <time>2013-09-05T17:02:17Z</time>
      </trkpt>
      <trkpt lat="45.1636" lon="5.92764">
        <ele>2330.87</ele>
        <time>2013-09-05T17:02:23Z</time>
      </trkpt>
      <trkpt lat="45.16355" lon="5.92768">
        <ele>2327.59</ele>
        <time>2013-09-05T17:02:32Z</time>
      </trkpt>
      <trkpt lat="45.16349" lon="5.92772">
        <ele>2324.47</ele>
        <time>2013-09-05T17:02:43Z</time>
      </trkpt>
      <trkpt lat="45.16344" lon="5.92777">
        <ele>2320.86</ele>
        <time>2013-09-05T17:02:52Z</time>
      </trkpt>
      <trkpt lat="45.16343" lon="5.9278">
        <ele>2317.79</ele>
        <time>2013-09-05T17:03:01Z</time>
      </trkpt>
      <trkpt lat="45.16343" lon="5.92791">
        <ele>2314.66</ele>
        <time>2013-09-05T17:03:12Z</time>
      </trkpt>
      <trkpt lat="45.16339" lon="5.92794">
        <ele>2311.51</ele>
        <time>2013-09-05T17:03:23Z</time>
      </trkpt>
      <trkpt lat="45.16337" lon="5.928">
        <ele>2309.77</ele>
        <time>2013-09-05T17:03:29Z</time>
      </trkpt>
      <trkpt lat="45.16338" lon="5.92803">
        <ele>2308.71</ele>
        <time>2013-09-05T17:03:32Z</time>
      </trkpt>
      <trkpt lat="45.16331" lon="5.92808">
        <ele>2306.19</ele>
        <time>2013-09-05T17:03:39Z</time>
      </trkpt>
      <trkpt lat="45.16328" lon="5.9281">
        <ele>2305.11</ele>
        <time>2013-09-05T17:03:42Z</time>
      </trkpt>
      <trkpt lat="45.16326" lon="5.92818">
        <ele>2301.41</ele>
        <time>2013-09-05T17:03:50Z</time>
      </trkpt>
      <trkpt lat="45.16324" lon="5.92819">
        <ele>2300.45</ele>
        <time>2013-09-05T17:03:52Z</time>
      </trkpt>
      <trkpt lat="45.16321" lon="5.9282">
        <ele>2298.51</ele>
        <time>2013-09-05T17:03:57Z</time>
      </trkpt>
      <trkpt lat="45.16323" lon="5.92826">
        <ele>2297.47</ele>
        <time>2013-09-05T17:04:01Z</time>
      </trkpt>
      <trkpt lat="45.16323" lon="5.92838">
        <ele>2293.43</ele>
        <time>2013-09-05T17:04:09Z</time>
      </trkpt>
      <trkpt lat="45.16325" lon="5.92843">
        <ele>2291.69</ele>
        <time>2013-09-05T17:04:12Z</time>
      </trkpt>
      <trkpt lat="45.16324" lon="5.92843">
        <ele>2291.49</ele>
        <time>2013-09-05T17:04:13Z</time>
      </trkpt>
      <trkpt lat="45.16321" lon="5.92845">
        <ele>2290.68</ele>
        <time>2013-09-05T17:04:15Z</time>
      </trkpt>
      <trkpt lat="45.1632" lon="5.92848">
        <ele>2289.6</ele>
        <time>2013-09-05T17:04:17Z</time>
      </trkpt>
      <trkpt lat="45.16311" lon="5.92853">
        <ele>2285.6</ele>
        <time>2013-09-05T17:04:23Z</time>
      </trkpt>
      <trkpt lat="45.1631" lon="5.92856">
        <ele>2283.59</ele>
        <time>2013-09-05T17:04:26Z</time>
      </trkpt>
      <trkpt lat="45.16305" lon="5.92864">
        <ele>2280.15</ele>
        <time>2013-09-05T17:04:32Z</time>
      </trkpt>
      <trkpt lat="45.16302" lon="5.92865">
        <ele>2278.74</ele>
        <time>2013-09-05T17:04:34Z</time>
      </trkpt>
      <trkpt lat="45.16304" lon="5.92877">
        <ele>2274.79</ele>
        <time>2013-09-05T17:04:40Z</time>
      </trkpt>
      <trkpt lat="45.16302" lon="5.92878">
        <ele>2274.5</ele>
        <time>2013-09-05T17:04:41Z</time>
      </trkpt>
      <trkpt lat="45.16297" lon="5.92886">
        <ele>2271.48</ele>
        <time>2013-09-05T17:04:46Z</time>
      </trkpt>
      <trkpt lat="45.16301" lon="5.92894">
        <ele>2268.6</ele>
        <time>2013-09-05T17:04:51Z</time>
      </trkpt>
      <trkpt lat="45.16303" lon="5.92897">
        <ele>2267.13</ele>
        <time>2013-09-05T17:04:53Z</time>
      </trkpt>
      <trkpt lat="45.16303" lon="5.92902">
        <ele>2265.9</ele>
        <time>2013-09-05T17:04:56Z</time>
      </trkpt>
      <trkpt lat="45.16294" lon="5.92912">
        <ele>2262.38</ele>
        <time>2013-09-05T17:05:02Z</time>
      </trkpt>
      <trkpt lat="45.16284" lon="5.92922">
        <ele>2258.3</ele>
        <time>2013-09-05T17:05:08Z</time>
      </trkpt>
      <trkpt lat="45.16283" lon="5.92928">
        <ele>2256.95</ele>
        <time>2013-09-05T17:05:11Z</time>
      </trkpt>
      <trkpt lat="45.1628" lon="5.9293">
        <ele>2256.26</ele>
        <time>2013-09-05T17:05:23Z</time>
      </trkpt>
      <trkpt lat="45.16277" lon="5.92932">
        <ele>2255.8</ele>
        <time>2013-09-05T17:05:25Z</time>
      </trkpt>
      <trkpt lat="45.16268" lon="5.92935">
        <ele>2251.9</ele>
        <time>2013-09-05T17:05:31Z</time>
      </trkpt>
      <trkpt lat="45.16268" lon="5.92935">
        <ele>2251.45</ele>
        <time>2013-09-05T17:05:32Z</time>
      </trkpt>
      <trkpt lat="45.16262" lon="5.92938">
        <ele>2248.53</ele>
        <time>2013-09-05T17:05:37Z</time>
      </trkpt>
      <trkpt lat="45.16248" lon="5.92941">
        <ele>2245.11</ele>
        <time>2013-09-05T17:05:47Z</time>
      </trkpt>
      <trkpt lat="45.16245" lon="5.92941">
        <ele>2244.28</ele>
        <time>2013-09-05T17:05:49Z</time>
      </trkpt>
      <trkpt lat="45.16236" lon="5.92942">
        <ele>2241.91</ele>
        <time>2013-09-05T17:05:54Z</time>
      </trkpt>
      <trkpt lat="45.16232" lon="5.92944">
        <ele>2240.5</ele>
        <time>2013-09-05T17:05:57Z</time>
      </trkpt>
      <trkpt lat="45.16223" lon="5.92947">
        <ele>2238.5</ele>
        <time>2013-09-05T17:06:02Z</time>
      </trkpt>
      <trkpt lat="45.16212" lon="5.92952">
        <ele>2236.33</ele>
        <time>2013-09-05T17:06:10Z</time>
      </trkpt>
      <trkpt lat="45.16205" lon="5.92963">
        <ele>2234.28</ele>
        <time>2013-09-05T17:06:18Z</time>
      </trkpt>
      <trkpt lat="45.16203" lon="5.92972">
        <ele>2235.53</ele>
        <time>2013-09-05T17:06:34Z</time>
      </trkpt>
      <trkpt lat="45.16202" lon="5.92982">
        <ele>2232.12</ele>
        <time>2013-09-05T17:06:43Z</time>
      </trkpt>
      <trkpt lat="45.16202" lon="5.9299">
        <ele>2229.09</ele>
        <time>2013-09-05T17:06:49Z</time>
      </trkpt>
      <trkpt lat="45.16196" lon="5.92997">
        <ele>2225.82</ele>
        <time>2013-09-05T17:06:55Z</time>
      </trkpt>
      <trkpt lat="45.16194" lon="5.93008">
        <ele>2222.23</ele>
        <time>2013-09-05T17:07:02Z</time>
      </trkpt>
      <trkpt lat="45.16194" lon="5.93011">
        <ele>2221.15</ele>
        <time>2013-09-05T17:07:04Z</time>
      </trkpt>
      <trkpt lat="45.16191" lon="5.93021">
        <ele>2218.71</ele>
        <time>2013-09-05T17:07:09Z</time>
      </trkpt>
      <trkpt lat="45.16187" lon="5.93032">
        <ele>2215.78</ele>
        <time>2013-09-05T17:07:15Z</time>
      </trkpt>
      <trkpt lat="45.16182" lon="5.93042">
        <ele>2213.62</ele>
        <time>2013-09-05T17:07:20Z</time>
      </trkpt>
      <trkpt lat="45.16182" lon="5.93049">
        <ele>2212.09</ele>
        <time>2013-09-05T17:07:23Z</time>
      </trkpt>
      <trkpt lat="45.1618" lon="5.93057">
        <ele>2210.91</ele>
        <time>2013-09-05T17:07:34Z</time>
      </trkpt>
      <trkpt lat="45.16181" lon="5.93064">
        <ele>2208.47</ele>
        <time>2013-09-05T17:07:39Z</time>
      </trkpt>
      <trkpt lat="45.16178" lon="5.9307">
        <ele>2205.93</ele>
        <time>2013-09-05T17:07:46Z</time>
      </trkpt>
      <trkpt lat="45.16178" lon="5.93083">
        <ele>2202.27</ele>
        <time>2013-09-05T17:07:54Z</time>
      </trkpt>
      <trkpt lat="45.16176" lon="5.93089">
        <ele>2200.77</ele>
        <time>2013-09-05T17:08:16Z</time>
      </trkpt>
      <trkpt lat="45.16175" lon="5.93095">
        <ele>2197.43</ele>
        <time>2013-09-05T17:08:23Z</time>
      </trkpt>
      <trkpt lat="45.16174" lon="5.93095">
        <ele>2197.17</ele>
        <time>2013-09-05T17:08:24Z</time>
      </trkpt>
      <trkpt lat="45.16173" lon="5.93103">
        <ele>2194.05</ele>
        <time>2013-09-05T17:08:31Z</time>
      </trkpt>
      <trkpt lat="45.16173" lon="5.93105">
        <ele>2193.61</ele>
        <time>2013-09-05T17:08:32Z</time>
      </trkpt>
      <trkpt lat="45.16172" lon="5.93113">
        <ele>2189.97</ele>
        <time>2013-09-05T17:08:40Z</time>
      </trkpt>
      <trkpt lat="45.16172" lon="5.93119">
        <ele>2188.38</ele>
        <time>2013-09-05T17:08:44Z</time>
      </trkpt>
      <trkpt lat="45.1617" lon="5.93121">
        <ele>2186.9</ele>
        <time>2013-09-05T17:08:47Z</time>
      </trkpt>
      <trkpt lat="45.16167" lon="5.93125">
        <ele>2185.14</ele>
        <time>2013-09-05T17:08:52Z</time>
      </trkpt>
      <trkpt lat="45.16165" lon="5.93127">
        <ele>2184.38</ele>
        <time>2013-09-05T17:08:59Z</time>
      </trkpt>
      <trkpt lat="45.16163" lon="5.93137">
        <ele>2180.91</ele>
        <time>2013-09-05T17:09:06Z</time>
      </trkpt>
      <trkpt lat="45.16159" lon="5.93144">
        <ele>2177.71</ele>
        <time>2013-09-05T17:09:14Z</time>
      </trkpt>
      <trkpt lat="45.16157" lon="5.93153">
        <ele>2174.45</ele>
        <time>2013-09-05T17:09:24Z</time>
      </trkpt>
      <trkpt lat="45.16157" lon="5.93156">
        <ele>2174.03</ele>
        <time>2013-09-05T17:09:26Z</time>
      </trkpt>
      <trkpt lat="45.16151" lon="5.9316">
        <ele>2171.14</ele>
        <time>2013-09-05T17:09:41Z</time>
      </trkpt>
      <trkpt lat="45.16149" lon="5.93159">
        <ele>2170.05</ele>
        <time>2013-09-05T17:09:43Z</time>
      </trkpt>
      <trkpt lat="45.16142" lon="5.93155">
        <ele>2167.32</ele>
        <time>2013-09-05T17:09:49Z</time>
      </trkpt>
      <trkpt lat="45.16138" lon="5.9316">
        <ele>2163.82</ele>
        <time>2013-09-05T17:09:57Z</time>
      </trkpt>
      <trkpt lat="45.16136" lon="5.93158">
        <ele>2163.68</ele>
        <time>2013-09-05T17:09:58Z</time>
      </trkpt>
      <trkpt lat="45.16134" lon="5.93154">
        <ele>2162.75</ele>
        <time>2013-09-05T17:10:01Z</time>
      </trkpt>
      <trkpt lat="45.1613" lon="5.93157">
        <ele>2161.56</ele>
        <time>2013-09-05T17:10:04Z</time>
      </trkpt>
      <trkpt lat="45.16127" lon="5.93157">
        <ele>2160.13</ele>
        <time>2013-09-05T17:10:07Z</time>
      </trkpt>
      <trkpt lat="45.16123" lon="5.93152">
        <ele>2158.15</ele>
        <time>2013-09-05T17:10:12Z</time>
      </trkpt>
      <trkpt lat="45.16123" lon="5.93151">
        <ele>2157.81</ele>
        <time>2013-09-05T17:10:13Z</time>
      </trkpt>
      <trkpt lat="45.16121" lon="5.93152">
        <ele>2157.06</ele>
        <time>2013-09-05T17:10:15Z</time>
      </trkpt>
      <trkpt lat="45.16119" lon="5.93157">
        <ele>2154.97</ele>
        <time>2013-09-05T17:10:19Z</time>
      </trkpt>
      <trkpt lat="45.16118" lon="5.93158">
        <ele>2154.31</ele>
        <time>2013-09-05T17:10:39Z</time>
      </trkpt>
      <trkpt lat="45.16115" lon="5.93155">
        <ele>2152.8</ele>
        <time>2013-09-05T17:10:50Z</time>
      </trkpt>
      <trkpt lat="45.16113" lon="5.93156">
        <ele>2151.32</ele>
        <time>2013-09-05T17:10:53Z</time>
      </trkpt>
      <trkpt lat="45.1611" lon="5.93154">
        <ele>2150.22</ele>
        <time>2013-09-05T17:10:56Z</time>
      </trkpt>
      <trkpt lat="45.16108" lon="5.93154">
        <ele>2149.35</ele>
        <time>2013-09-05T17:10:58Z</time>
      </trkpt>
      <trkpt lat="45.16102" lon="5.93155">
        <ele>2145.82</ele>
        <time>2013-09-05T17:11:06Z</time>
      </trkpt>
      <trkpt lat="45.16099" lon="5.93156">
        <ele>2144.25</ele>
        <time>2013-09-05T17:11:10Z</time>
      </trkpt>
      <trkpt lat="45.16094" lon="5.93154">
        <ele>2141.46</ele>
        <time>2013-09-05T17:11:17Z</time>
      </trkpt>
      <trkpt lat="45.16089" lon="5.93158">
        <ele>2138.41</ele>
        <time>2013-09-05T17:11:23Z</time>
      </trkpt>
      <trkpt lat="45.16084" lon="5.93153">
        <ele>2135.7</ele>
        <time>2013-09-05T17:11:29Z</time>
      </trkpt>
      <trkpt lat="45.1608" lon="5.93161">
        <ele>2132.18</ele>
        <time>2013-09-05T17:11:36Z</time>
      </trkpt>
      <trkpt lat="45.16078" lon="5.93167">
        <ele>2130.83</ele>
        <time>2013-09-05T17:11:39Z</time>
      </trkpt>
      <trkpt lat="45.16072" lon="5.93164">
        <ele>2127.4</ele>
        <time>2013-09-05T17:11:46Z</time>
      </trkpt>
      <trkpt lat="45.16072" lon="5.93166">
        <ele>2126.58</ele>
        <time>2013-09-05T17:11:47Z</time>
      </trkpt>
      <trkpt lat="45.16072" lon="5.93169">
        <ele>2125.85</ele>
        <time>2013-09-05T17:11:49Z</time>
      </trkpt>
      <trkpt lat="45.1607" lon="5.93169">
        <ele>2125.09</ele>
        <time>2013-09-05T17:11:51Z</time>
      </trkpt>
      <trkpt lat="45.16067" lon="5.93173">
        <ele>2121.88</ele>
        <time>2013-09-05T17:11:59Z</time>
      </trkpt>
      <trkpt lat="45.16066" lon="5.93175">
        <ele>2121.21</ele>
        <time>2013-09-05T17:12:01Z</time>
      </trkpt>
      <trkpt lat="45.1606" lon="5.93176">
        <ele>2117.62</ele>
        <time>2013-09-05T17:12:08Z</time>
      </trkpt>
      <trkpt lat="45.16052" lon="5.93177">
        <ele>2114.55</ele>
        <time>2013-09-05T17:12:15Z</time>
      </trkpt>
      <trkpt lat="45.1605" lon="5.9318">
        <ele>2113.08</ele>
        <time>2013-09-05T17:12:17Z</time>
      </trkpt>
      <trkpt lat="45.16045" lon="5.93181">
        <ele>2110.66</ele>
        <time>2013-09-05T17:12:22Z</time>
      </trkpt>
      <trkpt lat="45.16043" lon="5.93177">
        <ele>2110.28</ele>
        <time>2013-09-05T17:12:27Z</time>
      </trkpt>
      <trkpt lat="45.16037" lon="5.93168">
        <ele>2108.48</ele>
        <time>2013-09-05T17:12:32Z</time>
      </trkpt>
      <trkpt lat="45.16035" lon="5.93168">
        <ele>2107.78</ele>
        <time>2013-09-05T17:12:34Z</time>
      </trkpt>
      <trkpt lat="45.16028" lon="5.93163">
        <ele>2104.25</ele>
        <time>2013-09-05T17:12:41Z</time>
      </trkpt>
      <trkpt lat="45.16024" lon="5.93162">
        <ele>2102.91</ele>
        <time>2013-09-05T17:12:44Z</time>
      </trkpt>
      <trkpt lat="45.16023" lon="5.9316">
        <ele>2102.07</ele>
        <time>2013-09-05T17:12:46Z</time>
      </trkpt>
      <trkpt lat="45.16017" lon="5.93152">
        <ele>2098.29</ele>
        <time>2013-09-05T17:12:54Z</time>
      </trkpt>
      <trkpt lat="45.16015" lon="5.9315">
        <ele>2097.44</ele>
        <time>2013-09-05T17:12:56Z</time>
      </trkpt>
      <trkpt lat="45.16014" lon="5.93147">
        <ele>2096.62</ele>
        <time>2013-09-05T17:13:01Z</time>
      </trkpt>
      <trkpt lat="45.16011" lon="5.93147">
        <ele>2095.23</ele>
        <time>2013-09-05T17:13:04Z</time>
      </trkpt>
      <trkpt lat="45.16005" lon="5.93146">
        <ele>2092.77</ele>
        <time>2013-09-05T17:13:10Z</time>
      </trkpt>
      <trkpt lat="45.15998" lon="5.9314">
        <ele>2089.73</ele>
        <time>2013-09-05T17:13:16Z</time>
      </trkpt>
      <trkpt lat="45.15988" lon="5.93131">
        <ele>2086.6</ele>
        <time>2013-09-05T17:13:25Z</time>
      </trkpt>
      <trkpt lat="45.15987" lon="5.9313">
        <ele>2086.28</ele>
        <time>2013-09-05T17:13:26Z</time>
      </trkpt>
      <trkpt lat="45.15984" lon="5.93118">
        <ele>2084.6</ele>
        <time>2013-09-05T17:13:32Z</time>
      </trkpt>
      <trkpt lat="45.15981" lon="5.93117">
        <ele>2083.82</ele>
        <time>2013-09-05T17:13:34Z</time>
      </trkpt>
      <trkpt lat="45.15978" lon="5.9312">
        <ele>2083.07</ele>
        <time>2013-09-05T17:13:37Z</time>
      </trkpt>
      <trkpt lat="45.15969" lon="5.93119">
        <ele>2080.53</ele>
        <time>2013-09-05T17:13:45Z</time>
      </trkpt>
      <trkpt lat="45.15966" lon="5.93119">
        <ele>2079.67</ele>
        <time>2013-09-05T17:13:54Z</time>
      </trkpt>
      <trkpt lat="45.15955" lon="5.93118">
        <ele>2078.07</ele>
        <time>2013-09-05T17:14:14Z</time>
      </trkpt>
      <trkpt lat="45.15948" lon="5.9312">
        <ele>2076.37</ele>
        <time>2013-09-05T17:14:20Z</time>
      </trkpt>
      <trkpt lat="45.15945" lon="5.93113">
        <ele>2075.08</ele>
        <time>2013-09-05T17:14:25Z</time>
      </trkpt>
      <trkpt lat="45.15942" lon="5.93111">
        <ele>2074.26</ele>
        <time>2013-09-05T17:14:27Z</time>
      </trkpt>
      <trkpt lat="45.15939" lon="5.93105">
        <ele>2073.24</ele>
        <time>2013-09-05T17:14:31Z</time>
      </trkpt>
      <trkpt lat="45.15925" lon="5.93089">
        <ele>2069.96</ele>
        <time>2013-09-05T17:14:42Z</time>
      </trkpt>
      <trkpt lat="45.15914" lon="5.93079">
        <ele>2067.7</ele>
        <time>2013-09-05T17:14:51Z</time>
      </trkpt>
      <trkpt lat="45.15904" lon="5.9307">
        <ele>2064.23</ele>
        <time>2013-09-05T17:14:57Z</time>
      </trkpt>
      <trkpt lat="45.159" lon="5.93068">
        <ele>2063.09</ele>
        <time>2013-09-05T17:15:00Z</time>
      </trkpt>
      <trkpt lat="45.15885" lon="5.93062">
        <ele>2060.77</ele>
        <time>2013-09-05T17:15:12Z</time>
      </trkpt>
      <trkpt lat="45.15884" lon="5.93061">
        <ele>2060.58</ele>
        <time>2013-09-05T17:15:13Z</time>
      </trkpt>
      <trkpt lat="45.15872" lon="5.93065">
        <ele>2060.1</ele>
        <time>2013-09-05T17:15:26Z</time>
      </trkpt>
      <trkpt lat="45.15871" lon="5.93065">
        <ele>2060</ele>
        <time>2013-09-05T17:15:27Z</time>
      </trkpt>
      <trkpt lat="45.15855" lon="5.93066">
        <ele>2059.36</ele>
        <time>2013-09-05T17:15:44Z</time>
      </trkpt>
      <trkpt lat="45.15846" lon="5.93078">
        <ele>2059.64</ele>
        <time>2013-09-05T17:15:54Z</time>
      </trkpt>
      <trkpt lat="45.15846" lon="5.93084">
        <ele>2058.77</ele>
        <time>2013-09-05T17:16:11Z</time>
      </trkpt>
      <trkpt lat="45.15848" lon="5.93093">
        <ele>2057.88</ele>
        <time>2013-09-05T17:16:36Z</time>
      </trkpt>
      <trkpt lat="45.15845" lon="5.9311">
        <ele>2055.61</ele>
        <time>2013-09-05T17:16:48Z</time>
      </trkpt>
      <trkpt lat="45.15845" lon="5.93108">
        <ele>2055.47</ele>
        <time>2013-09-05T17:16:56Z</time>
      </trkpt>
      <trkpt lat="45.15844" lon="5.93101">
        <ele>2055.56</ele>
        <time>2013-09-05T17:17:00Z</time>
      </trkpt>
      <trkpt lat="45.15839" lon="5.93077">
        <ele>2055.94</ele>
        <time>2013-09-05T17:17:13Z</time>
      </trkpt>
      <trkpt lat="45.1584" lon="5.93073">
        <ele>2056.07</ele>
        <time>2013-09-05T17:17:15Z</time>
      </trkpt>
      <trkpt lat="45.15842" lon="5.93065">
        <ele>2055.7</ele>
        <time>2013-09-05T17:17:20Z</time>
      </trkpt>
      <trkpt lat="45.15843" lon="5.93062">
        <ele>2055.49</ele>
        <time>2013-09-05T17:17:22Z</time>
      </trkpt>
      <trkpt lat="45.15846" lon="5.93043">
        <ele>2054.39</ele>
        <time>2013-09-05T17:17:32Z</time>
      </trkpt>
      <trkpt lat="45.15844" lon="5.93037">
        <ele>2054.76</ele>
        <time>2013-09-05T17:17:36Z</time>
      </trkpt>
      <trkpt lat="45.15842" lon="5.93032">
        <ele>2055.49</ele>
        <time>2013-09-05T17:17:41Z</time>
      </trkpt>
      <trkpt lat="45.15838" lon="5.93025">
        <ele>2056.35</ele>
        <time>2013-09-05T17:17:52Z</time>
      </trkpt>
      <trkpt lat="45.15834" lon="5.93019">
        <ele>2057.12</ele>
        <time>2013-09-05T17:17:58Z</time>
      </trkpt>
      <trkpt lat="45.15816" lon="5.93012">
        <ele>2057.63</ele>
        <time>2013-09-05T17:18:16Z</time>
      </trkpt>
      <trkpt lat="45.15812" lon="5.9301">
        <ele>2057.59</ele>
        <time>2013-09-05T17:18:19Z</time>
      </trkpt>
      <trkpt lat="45.15792" lon="5.93015">
        <ele>2055.56</ele>
        <time>2013-09-05T17:18:38Z</time>
      </trkpt>
      <trkpt lat="45.15773" lon="5.93015">
        <ele>2056.3</ele>
        <time>2013-09-05T17:18:58Z</time>
      </trkpt>
      <trkpt lat="45.15764" lon="5.93015">
        <ele>2057.03</ele>
        <time>2013-09-05T17:19:11Z</time>
      </trkpt>
      <trkpt lat="45.15746" lon="5.93015">
        <ele>2055.64</ele>
        <time>2013-09-05T17:19:28Z</time>
      </trkpt>
      <trkpt lat="45.1574" lon="5.93018">
        <ele>2054.53</ele>
        <time>2013-09-05T17:19:34Z</time>
      </trkpt>
      <trkpt lat="45.15731" lon="5.93024">
        <ele>2055.93</ele>
        <time>2013-09-05T17:19:46Z</time>
      </trkpt>
      <trkpt lat="45.1573" lon="5.93024">
        <ele>2056.14</ele>
        <time>2013-09-05T17:19:47Z</time>
      </trkpt>
      <trkpt lat="45.15718" lon="5.93029">
        <ele>2057.19</ele>
        <time>2013-09-05T17:19:57Z</time>
      </trkpt>
      <trkpt lat="45.15713" lon="5.93038">
        <ele>2056.48</ele>
        <time>2013-09-05T17:20:03Z</time>
      </trkpt>
      <trkpt lat="45.15725" lon="5.93055">
        <ele>2057.01</ele>
        <time>2013-09-05T17:20:17Z</time>
      </trkpt>
      <trkpt lat="45.15729" lon="5.93062">
        <ele>2056.22</ele>
        <time>2013-09-05T17:20:21Z</time>
      </trkpt>
      <trkpt lat="45.15733" lon="5.93078">
        <ele>2055.22</ele>
        <time>2013-09-05T17:20:31Z</time>
      </trkpt>
      <trkpt lat="45.15724" lon="5.93097">
        <ele>2058.39</ele>
        <time>2013-09-05T17:20:45Z</time>
      </trkpt>
      <trkpt lat="45.15726" lon="5.93106">
        <ele>2060.75</ele>
        <time>2013-09-05T17:20:54Z</time>
      </trkpt>
      <trkpt lat="45.15729" lon="5.93119">
        <ele>2062.82</ele>
        <time>2013-09-05T17:21:03Z</time>
      </trkpt>
      <trkpt lat="45.15733" lon="5.9314">
        <ele>2064.74</ele>
        <time>2013-09-05T17:21:17Z</time>
      </trkpt>
      <trkpt lat="45.15735" lon="5.93154">
        <ele>2064.1</ele>
        <time>2013-09-05T17:21:25Z</time>
      </trkpt>
      <trkpt lat="45.15735" lon="5.93159">
        <ele>2064.36</ele>
        <time>2013-09-05T17:21:29Z</time>
      </trkpt>
      <trkpt lat="45.15735" lon="5.93167">
        <ele>2064.98</ele>
        <time>2013-09-05T17:21:34Z</time>
      </trkpt>
      <trkpt lat="45.15736" lon="5.93173">
        <ele>2065.15</ele>
        <time>2013-09-05T17:21:37Z</time>
      </trkpt>
      <trkpt lat="45.15741" lon="5.93203">
        <ele>2066.17</ele>
        <time>2013-09-05T17:21:54Z</time>
      </trkpt>
      <trkpt lat="45.15741" lon="5.93204">
        <ele>2066.32</ele>
        <time>2013-09-05T17:21:55Z</time>
      </trkpt>
      <trkpt lat="45.1574" lon="5.9321">
        <ele>2067.33</ele>
        <time>2013-09-05T17:21:59Z</time>
      </trkpt>
      <trkpt lat="45.1574" lon="5.93221">
        <ele>2067.49</ele>
        <time>2013-09-05T17:22:05Z</time>
      </trkpt>
      <trkpt lat="45.1574" lon="5.93225">
        <ele>2067.19</ele>
        <time>2013-09-05T17:22:07Z</time>
      </trkpt>
      <trkpt lat="45.15736" lon="5.93251">
        <ele>2066.17</ele>
        <time>2013-09-05T17:22:21Z</time>
      </trkpt>
      <trkpt lat="45.15741" lon="5.93277">
        <ele>2063.78</ele>
        <time>2013-09-05T17:22:35Z</time>
      </trkpt>
      <trkpt lat="45.15748" lon="5.93307">
        <ele>2063.38</ele>
        <time>2013-09-05T17:22:51Z</time>
      </trkpt>
      <trkpt lat="45.15758" lon="5.93335">
        <ele>2064.23</ele>
        <time>2013-09-05T17:23:07Z</time>
      </trkpt>
      <trkpt lat="45.15761" lon="5.93351">
        <ele>2063.06</ele>
        <time>2013-09-05T17:23:15Z</time>
      </trkpt>
      <trkpt lat="45.15761" lon="5.93358">
        <ele>2061.94</ele>
        <time>2013-09-05T17:23:18Z</time>
      </trkpt>
      <trkpt lat="45.15764" lon="5.93366">
        <ele>2059.81</ele>
        <time>2013-09-05T17:23:23Z</time>
      </trkpt>
      <trkpt lat="45.15767" lon="5.93367">
        <ele>2058.94</ele>
        <time>2013-09-05T17:23:25Z</time>
      </trkpt>
      <trkpt lat="45.15769" lon="5.93379">
        <ele>2055.08</ele>
        <time>2013-09-05T17:23:30Z</time>
      </trkpt>
      <trkpt lat="45.15769" lon="5.93385">
        <ele>2053.8</ele>
        <time>2013-09-05T17:23:33Z</time>
      </trkpt>
      <trkpt lat="45.15774" lon="5.93397">
        <ele>2051.01</ele>
        <time>2013-09-05T17:23:42Z</time>
      </trkpt>
      <trkpt lat="45.15778" lon="5.93404">
        <ele>2050.41</ele>
        <time>2013-09-05T17:23:47Z</time>
      </trkpt>
      <trkpt lat="45.15797" lon="5.93425">
        <ele>2050.5</ele>
        <time>2013-09-05T17:24:03Z</time>
      </trkpt>
      <trkpt lat="45.15799" lon="5.93435">
        <ele>2050.58</ele>
        <time>2013-09-05T17:24:08Z</time>
      </trkpt>
      <trkpt lat="45.15788" lon="5.93446">
        <ele>2050.91</ele>
        <time>2013-09-05T17:24:16Z</time>
      </trkpt>
      <trkpt lat="45.15785" lon="5.93455">
        <ele>2051.24</ele>
        <time>2013-09-05T17:24:21Z</time>
      </trkpt>
      <trkpt lat="45.15794" lon="5.93485">
        <ele>2053.91</ele>
        <time>2013-09-05T17:24:38Z</time>
      </trkpt>
      <trkpt lat="45.15795" lon="5.93486">
        <ele>2054.07</ele>
        <time>2013-09-05T17:24:39Z</time>
      </trkpt>
      <trkpt lat="45.15807" lon="5.93501">
        <ele>2056.29</ele>
        <time>2013-09-05T17:24:52Z</time>
      </trkpt>
      <trkpt lat="45.15813" lon="5.93508">
        <ele>2057.2</ele>
        <time>2013-09-05T17:24:58Z</time>
      </trkpt>
      <trkpt lat="45.15824" lon="5.93516">
        <ele>2059.32</ele>
        <time>2013-09-05T17:25:13Z</time>
      </trkpt>
      <trkpt lat="45.15829" lon="5.93519">
        <ele>2060.56</ele>
        <time>2013-09-05T17:25:19Z</time>
      </trkpt>
      <trkpt lat="45.15842" lon="5.93531">
        <ele>2063.73</ele>
        <time>2013-09-05T17:25:34Z</time>
      </trkpt>
      <trkpt lat="45.15849" lon="5.93542">
        <ele>2066.91</ele>
        <time>2013-09-05T17:25:46Z</time>
      </trkpt>
      <trkpt lat="45.15857" lon="5.93552">
        <ele>2070</ele>
        <time>2013-09-05T17:25:58Z</time>
      </trkpt>
      <trkpt lat="45.15856" lon="5.93567">
        <ele>2073.27</ele>
        <time>2013-09-05T17:26:10Z</time>
      </trkpt>
      <trkpt lat="45.15856" lon="5.93573">
        <ele>2074.5</ele>
        <time>2013-09-05T17:26:15Z</time>
      </trkpt>
      <trkpt lat="45.15853" lon="5.93581">
        <ele>2076.26</ele>
        <time>2013-09-05T17:26:33Z</time>
      </trkpt>
      <trkpt lat="45.15858" lon="5.93589">
        <ele>2078.03</ele>
        <time>2013-09-05T17:26:41Z</time>
      </trkpt>
      <trkpt lat="45.15862" lon="5.93605">
        <ele>2079.93</ele>
        <time>2013-09-05T17:26:51Z</time>
      </trkpt>
      <trkpt lat="45.15857" lon="5.93614">
        <ele>2081.02</ele>
        <time>2013-09-05T17:26:57Z</time>
      </trkpt>
      <trkpt lat="45.15851" lon="5.93619">
        <ele>2082.71</ele>
        <time>2013-09-05T17:27:02Z</time>
      </trkpt>
      <trkpt lat="45.15849" lon="5.93622">
        <ele>2083.42</ele>
        <time>2013-09-05T17:27:05Z</time>
      </trkpt>
      <trkpt lat="45.15832" lon="5.93636">
        <ele>2086.27</ele>
        <time>2013-09-05T17:27:21Z</time>
      </trkpt>
      <trkpt lat="45.15823" lon="5.9366">
        <ele>2085.85</ele>
        <time>2013-09-05T17:27:35Z</time>
      </trkpt>
      <trkpt lat="45.15824" lon="5.93681">
        <ele>2087.24</ele>
        <time>2013-09-05T17:27:46Z</time>
      </trkpt>
      <trkpt lat="45.15824" lon="5.93692">
        <ele>2087.6</ele>
        <time>2013-09-05T17:28:04Z</time>
      </trkpt>
      <trkpt lat="45.15824" lon="5.93695">
        <ele>2087.71</ele>
        <time>2013-09-05T17:28:06Z</time>
      </trkpt>
      <trkpt lat="45.15827" lon="5.93707">
        <ele>2088</ele>
        <time>2013-09-05T17:28:12Z</time>
      </trkpt>
      <trkpt lat="45.15831" lon="5.93727">
        <ele>2089.09</ele>
        <time>2013-09-05T17:28:22Z</time>
      </trkpt>
      <trkpt lat="45.15831" lon="5.93733">
        <ele>2089.54</ele>
        <time>2013-09-05T17:28:25Z</time>
      </trkpt>
      <trkpt lat="45.15831" lon="5.93745">
        <ele>2090.22</ele>
        <time>2013-09-05T17:28:30Z</time>
      </trkpt>
      <trkpt lat="45.15829" lon="5.93751">
        <ele>2090.39</ele>
        <time>2013-09-05T17:28:33Z</time>
      </trkpt>
      <trkpt lat="45.1583" lon="5.93769">
        <ele>2090.98</ele>
        <time>2013-09-05T17:28:42Z</time>
      </trkpt>
      <trkpt lat="45.1584" lon="5.93793">
        <ele>2093.26</ele>
        <time>2013-09-05T17:28:56Z</time>
      </trkpt>
      <trkpt lat="45.15845" lon="5.93819">
        <ele>2095.32</ele>
        <time>2013-09-05T17:29:11Z</time>
      </trkpt>
      <trkpt lat="45.15849" lon="5.93853">
        <ele>2095.72</ele>
        <time>2013-09-05T17:29:26Z</time>
      </trkpt>
      <trkpt lat="45.15856" lon="5.93883">
        <ele>2097.21</ele>
        <time>2013-09-05T17:29:41Z</time>
      </trkpt>
      <trkpt lat="45.15868" lon="5.93912">
        <ele>2096.93</ele>
        <time>2013-09-05T17:29:56Z</time>
      </trkpt>
      <trkpt lat="45.15885" lon="5.93946">
        <ele>2097.88</ele>
        <time>2013-09-05T17:30:13Z</time>
      </trkpt>
      <trkpt lat="45.15903" lon="5.93971">
        <ele>2099.28</ele>
        <time>2013-09-05T17:30:29Z</time>
      </trkpt>
      <trkpt lat="45.15907" lon="5.9398">
        <ele>2099.94</ele>
        <time>2013-09-05T17:30:34Z</time>
      </trkpt>
      <trkpt lat="45.15923" lon="5.9401">
        <ele>2101.29</ele>
        <time>2013-09-05T17:30:51Z</time>
      </trkpt>
      <trkpt lat="45.15938" lon="5.9403">
        <ele>2102.21</ele>
        <time>2013-09-05T17:31:05Z</time>
      </trkpt>
      <trkpt lat="45.15958" lon="5.94044">
        <ele>2104.2</ele>
        <time>2013-09-05T17:31:20Z</time>
      </trkpt>
      <trkpt lat="45.15971" lon="5.94057">
        <ele>2103.84</ele>
        <time>2013-09-05T17:31:30Z</time>
      </trkpt>
      <trkpt lat="45.15983" lon="5.94073">
        <ele>2104.04</ele>
        <time>2013-09-05T17:31:42Z</time>
      </trkpt>
      <trkpt lat="45.1599" lon="5.94087">
        <ele>2104.07</ele>
        <time>2013-09-05T17:31:56Z</time>
      </trkpt>
      <trkpt lat="45.15991" lon="5.94095">
        <ele>2104.49</ele>
        <time>2013-09-05T17:32:19Z</time>
      </trkpt>
      <trkpt lat="45.15989" lon="5.94094">
        <ele>2104.37</ele>
        <time>2013-09-05T17:32:49Z</time>
      </trkpt>
      <trkpt lat="45.1599" lon="5.94092">
        <ele>2104.71</ele>
        <time>2013-09-05T17:33:17Z</time>
      </trkpt>
      <trkpt lat="45.15991" lon="5.94095">
        <ele>2103.99</ele>
        <time>2013-09-05T17:33:22Z</time>
      </trkpt>
      <trkpt lat="45.15993" lon="5.94111">
        <ele>2101.28</ele>
        <time>2013-09-05T17:33:27Z</time>
      </trkpt>
      <trkpt lat="45.16001" lon="5.94145">
        <ele>2097.68</ele>
        <time>2013-09-05T17:33:40Z</time>
      </trkpt>
      <trkpt lat="45.15999" lon="5.9418">
        <ele>2096.74</ele>
        <time>2013-09-05T17:33:56Z</time>
      </trkpt>
      <trkpt lat="45.15979" lon="5.94213">
        <ele>2094.27</ele>
        <time>2013-09-05T17:34:10Z</time>
      </trkpt>
      <trkpt lat="45.15973" lon="5.9422">
        <ele>2094.51</ele>
        <time>2013-09-05T17:34:14Z</time>
      </trkpt>
      <trkpt lat="45.15969" lon="5.94228">
        <ele>2094.69</ele>
        <time>2013-09-05T17:34:19Z</time>
      </trkpt>
      <trkpt lat="45.15947" lon="5.94237">
        <ele>2096.47</ele>
        <time>2013-09-05T17:34:35Z</time>
      </trkpt>
      <trkpt lat="45.15926" lon="5.94237">
        <ele>2095.04</ele>
        <time>2013-09-05T17:34:46Z</time>
      </trkpt>
      <trkpt lat="45.15919" lon="5.94245">
        <ele>2094.95</ele>
        <time>2013-09-05T17:34:50Z</time>
      </trkpt>
      <trkpt lat="45.15896" lon="5.94235">
        <ele>2092.63</ele>
        <time>2013-09-05T17:35:04Z</time>
      </trkpt>
      <trkpt lat="45.1589" lon="5.94232">
        <ele>2091.18</ele>
        <time>2013-09-05T17:35:06Z</time>
      </trkpt>
      <trkpt lat="45.15885" lon="5.94229">
        <ele>2089.12</ele>
        <time>2013-09-05T17:35:09Z</time>
      </trkpt>
      <trkpt lat="45.15883" lon="5.94225">
        <ele>2089.13</ele>
        <time>2013-09-05T17:35:11Z</time>
      </trkpt>
      <trkpt lat="45.1588" lon="5.94221">
        <ele>2088.78</ele>
        <time>2013-09-05T17:35:14Z</time>
      </trkpt>
      <trkpt lat="45.15875" lon="5.94215">
        <ele>2088.99</ele>
        <time>2013-09-05T17:35:18Z</time>
      </trkpt>
      <trkpt lat="45.15855" lon="5.94211">
        <ele>2088.03</ele>
        <time>2013-09-05T17:35:32Z</time>
      </trkpt>
      <trkpt lat="45.15849" lon="5.9421">
        <ele>2088.03</ele>
        <time>2013-09-05T17:35:36Z</time>
      </trkpt>
      <trkpt lat="45.15829" lon="5.94204">
        <ele>2088.6</ele>
        <time>2013-09-05T17:35:49Z</time>
      </trkpt>
      <trkpt lat="45.15827" lon="5.94203">
        <ele>2088.72</ele>
        <time>2013-09-05T17:35:50Z</time>
      </trkpt>
      <trkpt lat="45.15802" lon="5.94199">
        <ele>2087.27</ele>
        <time>2013-09-05T17:36:05Z</time>
      </trkpt>
      <trkpt lat="45.15804" lon="5.94202">
        <ele>2087.14</ele>
        <time>2013-09-05T17:36:08Z</time>
      </trkpt>
      <trkpt lat="45.15809" lon="5.94216">
        <ele>2085.49</ele>
        <time>2013-09-05T17:36:21Z</time>
      </trkpt>
      <trkpt lat="45.15809" lon="5.9422">
        <ele>2084.86</ele>
        <time>2013-09-05T17:36:30Z</time>
      </trkpt>
      <trkpt lat="45.15805" lon="5.94227">
        <ele>2086.44</ele>
        <time>2013-09-05T17:36:34Z</time>
      </trkpt>
      <trkpt lat="45.15785" lon="5.94236">
        <ele>2086.23</ele>
        <time>2013-09-05T17:36:47Z</time>
      </trkpt>
      <trkpt lat="45.15774" lon="5.94236">
        <ele>2084.08</ele>
        <time>2013-09-05T17:36:55Z</time>
      </trkpt>
      <trkpt lat="45.15767" lon="5.94236">
        <ele>2081.85</ele>
        <time>2013-09-05T17:36:59Z</time>
      </trkpt>
      <trkpt lat="45.15761" lon="5.94244">
        <ele>2078.76</ele>
        <time>2013-09-05T17:37:04Z</time>
      </trkpt>
      <trkpt lat="45.15757" lon="5.94231">
        <ele>2075.86</ele>
        <time>2013-09-05T17:37:10Z</time>
      </trkpt>
      <trkpt lat="45.15756" lon="5.94224">
        <ele>2074.96</ele>
        <time>2013-09-05T17:37:12Z</time>
      </trkpt>
      <trkpt lat="45.15743" lon="5.94218">
        <ele>2071.1</ele>
        <time>2013-09-05T17:37:18Z</time>
      </trkpt>
      <trkpt lat="45.15736" lon="5.94221">
        <ele>2068.96</ele>
        <time>2013-09-05T17:37:21Z</time>
      </trkpt>
      <trkpt lat="45.15717" lon="5.94216">
        <ele>2065.59</ele>
        <time>2013-09-05T17:37:28Z</time>
      </trkpt>
      <trkpt lat="45.15713" lon="5.94213">
        <ele>2064.86</ele>
        <time>2013-09-05T17:37:30Z</time>
      </trkpt>
      <trkpt lat="45.15704" lon="5.94211">
        <ele>2062.68</ele>
        <time>2013-09-05T17:37:34Z</time>
      </trkpt>
      <trkpt lat="45.15703" lon="5.94212">
        <ele>2062.06</ele>
        <time>2013-09-05T17:37:47Z</time>
      </trkpt>
      <trkpt lat="45.15701" lon="5.94213">
        <ele>2062.18</ele>
        <time>2013-09-05T17:37:50Z</time>
      </trkpt>
      <trkpt lat="45.15688" lon="5.94208">
        <ele>2060.37</ele>
        <time>2013-09-05T17:37:58Z</time>
      </trkpt>
      <trkpt lat="45.15668" lon="5.94202">
        <ele>2061.06</ele>
        <time>2013-09-05T17:38:11Z</time>
      </trkpt>
      <trkpt lat="45.15665" lon="5.94201">
        <ele>2061.67</ele>
        <time>2013-09-05T17:38:14Z</time>
      </trkpt>
      <trkpt lat="45.15651" lon="5.94194">
        <ele>2062.75</ele>
        <time>2013-09-05T17:38:24Z</time>
      </trkpt>
      <trkpt lat="45.1563" lon="5.94184">
        <ele>2063.38</ele>
        <time>2013-09-05T17:38:41Z</time>
      </trkpt>
      <trkpt lat="45.15626" lon="5.94184">
        <ele>2063.14</ele>
        <time>2013-09-05T17:38:44Z</time>
      </trkpt>
      <trkpt lat="45.15615" lon="5.9419">
        <ele>2062.89</ele>
        <time>2013-09-05T17:38:55Z</time>
      </trkpt>
      <trkpt lat="45.15598" lon="5.94182">
        <ele>2063.22</ele>
        <time>2013-09-05T17:39:08Z</time>
      </trkpt>
      <trkpt lat="45.15586" lon="5.94163">
        <ele>2064.54</ele>
        <time>2013-09-05T17:39:21Z</time>
      </trkpt>
      <trkpt lat="45.15584" lon="5.94159">
        <ele>2064.88</ele>
        <time>2013-09-05T17:39:23Z</time>
      </trkpt>
      <trkpt lat="45.15579" lon="5.94147">
        <ele>2068.33</ele>
        <time>2013-09-05T17:39:28Z</time>
      </trkpt>
      <trkpt lat="45.15576" lon="5.94144">
        <ele>2069.98</ele>
        <time>2013-09-05T17:39:31Z</time>
      </trkpt>
      <trkpt lat="45.15569" lon="5.94141">
        <ele>2071.98</ele>
        <time>2013-09-05T17:39:43Z</time>
      </trkpt>
      <trkpt lat="45.15566" lon="5.94136">
        <ele>2072.04</ele>
        <time>2013-09-05T17:40:03Z</time>
      </trkpt>
      <trkpt lat="45.15542" lon="5.94123">
        <ele>2070.99</ele>
        <time>2013-09-05T17:40:24Z</time>
      </trkpt>
      <trkpt lat="45.15535" lon="5.94117">
        <ele>2069.57</ele>
        <time>2013-09-05T17:40:29Z</time>
      </trkpt>
      <trkpt lat="45.1553" lon="5.94108">
        <ele>2068.19</ele>
        <time>2013-09-05T17:40:35Z</time>
      </trkpt>
      <trkpt lat="45.15521" lon="5.94086">
        <ele>2063.75</ele>
        <time>2013-09-05T17:40:44Z</time>
      </trkpt>
      <trkpt lat="45.1552" lon="5.94084">
        <ele>2063.46</ele>
        <time>2013-09-05T17:40:45Z</time>
      </trkpt>
      <trkpt lat="45.15503" lon="5.94067">
        <ele>2060.26</ele>
        <time>2013-09-05T17:40:56Z</time>
      </trkpt>
      <trkpt lat="45.15489" lon="5.94058">
        <ele>2059.76</ele>
        <time>2013-09-05T17:41:06Z</time>
      </trkpt>
      <trkpt lat="45.15484" lon="5.94055">
        <ele>2061.55</ele>
        <time>2013-09-05T17:41:11Z</time>
      </trkpt>
      <trkpt lat="45.15478" lon="5.94044">
        <ele>2064.61</ele>
        <time>2013-09-05T17:41:30Z</time>
      </trkpt>
      <trkpt lat="45.15482" lon="5.94045">
        <ele>2064.33</ele>
        <time>2013-09-05T17:41:46Z</time>
      </trkpt>
      <trkpt lat="45.15493" lon="5.94045">
        <ele>2061.66</ele>
        <time>2013-09-05T17:41:53Z</time>
      </trkpt>
      <trkpt lat="45.15493" lon="5.94042">
        <ele>2061.71</ele>
        <time>2013-09-05T17:41:55Z</time>
      </trkpt>
      <trkpt lat="45.15489" lon="5.94023">
        <ele>2063.03</ele>
        <time>2013-09-05T17:42:07Z</time>
      </trkpt>
      <trkpt lat="45.1549" lon="5.94013">
        <ele>2063.96</ele>
        <time>2013-09-05T17:42:24Z</time>
      </trkpt>
      <trkpt lat="45.15489" lon="5.94003">
        <ele>2064.37</ele>
        <time>2013-09-05T17:42:28Z</time>
      </trkpt>
      <trkpt lat="45.15485" lon="5.9397">
        <ele>2066.79</ele>
        <time>2013-09-05T17:42:46Z</time>
      </trkpt>
      <trkpt lat="45.15486" lon="5.9394">
        <ele>2065.62</ele>
        <time>2013-09-05T17:42:59Z</time>
      </trkpt>
      <trkpt lat="45.15489" lon="5.93923">
        <ele>2062.29</ele>
        <time>2013-09-05T17:43:05Z</time>
      </trkpt>
      <trkpt lat="45.15484" lon="5.93915">
        <ele>2061.42</ele>
        <time>2013-09-05T17:43:10Z</time>
      </trkpt>
      <trkpt lat="45.15472" lon="5.93905">
        <ele>2060.46</ele>
        <time>2013-09-05T17:43:21Z</time>
      </trkpt>
      <trkpt lat="45.15465" lon="5.93902">
        <ele>2060.71</ele>
        <time>2013-09-05T17:43:26Z</time>
      </trkpt>
      <trkpt lat="45.15453" lon="5.93883">
        <ele>2061.49</ele>
        <time>2013-09-05T17:43:40Z</time>
      </trkpt>
      <trkpt lat="45.15442" lon="5.93859">
        <ele>2063.14</ele>
        <time>2013-09-05T17:43:55Z</time>
      </trkpt>
      <trkpt lat="45.15439" lon="5.93852">
        <ele>2063.37</ele>
        <time>2013-09-05T17:44:00Z</time>
      </trkpt>
      <trkpt lat="45.15434" lon="5.93847">
        <ele>2062.7</ele>
        <time>2013-09-05T17:44:04Z</time>
      </trkpt>
      <trkpt lat="45.15427" lon="5.93839">
        <ele>2060.92</ele>
        <time>2013-09-05T17:44:09Z</time>
      </trkpt>
      <trkpt lat="45.15423" lon="5.93837">
        <ele>2059.91</ele>
        <time>2013-09-05T17:44:25Z</time>
      </trkpt>
      <trkpt lat="45.15422" lon="5.93835">
        <ele>2059.92</ele>
        <time>2013-09-05T17:44:32Z</time>
      </trkpt>
      <trkpt lat="45.1541" lon="5.93811">
        <ele>2058.71</ele>
        <time>2013-09-05T17:44:45Z</time>
      </trkpt>
      <trkpt lat="45.15401" lon="5.93779">
        <ele>2058.73</ele>
        <time>2013-09-05T17:45:00Z</time>
      </trkpt>
      <trkpt lat="45.15396" lon="5.9377">
        <ele>2060.12</ele>
        <time>2013-09-05T17:45:07Z</time>
      </trkpt>
      <trkpt lat="45.15393" lon="5.93758">
        <ele>2061.46</ele>
        <time>2013-09-05T17:45:15Z</time>
      </trkpt>
      <trkpt lat="45.15386" lon="5.9375">
        <ele>2060.11</ele>
        <time>2013-09-05T17:45:20Z</time>
      </trkpt>
      <trkpt lat="45.15381" lon="5.93739">
        <ele>2057.3</ele>
        <time>2013-09-05T17:45:26Z</time>
      </trkpt>
      <trkpt lat="45.15374" lon="5.93731">
        <ele>2055.16</ele>
        <time>2013-09-05T17:45:33Z</time>
      </trkpt>
      <trkpt lat="45.15363" lon="5.93713">
        <ele>2051.65</ele>
        <time>2013-09-05T17:45:45Z</time>
      </trkpt>
      <trkpt lat="45.1536" lon="5.93699">
        <ele>2051.1</ele>
        <time>2013-09-05T17:45:52Z</time>
      </trkpt>
      <trkpt lat="45.15364" lon="5.93667">
        <ele>2049.25</ele>
        <time>2013-09-05T17:46:06Z</time>
      </trkpt>
      <trkpt lat="45.15364" lon="5.93653">
        <ele>2047.34</ele>
        <time>2013-09-05T17:46:12Z</time>
      </trkpt>
      <trkpt lat="45.15344" lon="5.93615">
        <ele>2047.81</ele>
        <time>2013-09-05T17:46:26Z</time>
      </trkpt>
      <trkpt lat="45.15339" lon="5.93606">
        <ele>2048.83</ele>
        <time>2013-09-05T17:46:31Z</time>
      </trkpt>
      <trkpt lat="45.15338" lon="5.93599">
        <ele>2049.27</ele>
        <time>2013-09-05T17:46:35Z</time>
      </trkpt>
      <trkpt lat="45.15335" lon="5.93591">
        <ele>2048.93</ele>
        <time>2013-09-05T17:46:40Z</time>
      </trkpt>
      <trkpt lat="45.15331" lon="5.93582">
        <ele>2047.28</ele>
        <time>2013-09-05T17:46:45Z</time>
      </trkpt>
      <trkpt lat="45.15325" lon="5.93563">
        <ele>2043.79</ele>
        <time>2013-09-05T17:46:53Z</time>
      </trkpt>
      <trkpt lat="45.15321" lon="5.93545">
        <ele>2040.02</ele>
        <time>2013-09-05T17:47:00Z</time>
      </trkpt>
      <trkpt lat="45.1532" lon="5.93542">
        <ele>2039.45</ele>
        <time>2013-09-05T17:47:01Z</time>
      </trkpt>
      <trkpt lat="45.15319" lon="5.93528">
        <ele>2036.74</ele>
        <time>2013-09-05T17:47:06Z</time>
      </trkpt>
      <trkpt lat="45.15317" lon="5.93516">
        <ele>2036.49</ele>
        <time>2013-09-05T17:47:11Z</time>
      </trkpt>
      <trkpt lat="45.15317" lon="5.93513">
        <ele>2036.33</ele>
        <time>2013-09-05T17:47:13Z</time>
      </trkpt>
      <trkpt lat="45.15316" lon="5.93508">
        <ele>2035.44</ele>
        <time>2013-09-05T17:47:16Z</time>
      </trkpt>
      <trkpt lat="45.15314" lon="5.93503">
        <ele>2034.18</ele>
        <time>2013-09-05T17:47:19Z</time>
      </trkpt>
      <trkpt lat="45.15313" lon="5.93498">
        <ele>2032.78</ele>
        <time>2013-09-05T17:47:23Z</time>
      </trkpt>
      <trkpt lat="45.15305" lon="5.93491">
        <ele>2030.2</ele>
        <time>2013-09-05T17:47:29Z</time>
      </trkpt>
      <trkpt lat="45.15298" lon="5.93474">
        <ele>2026.64</ele>
        <time>2013-09-05T17:47:37Z</time>
      </trkpt>
      <trkpt lat="45.15297" lon="5.93468">
        <ele>2025.5</ele>
        <time>2013-09-05T17:47:39Z</time>
      </trkpt>
      <trkpt lat="45.15296" lon="5.93464">
        <ele>2024.73</ele>
        <time>2013-09-05T17:47:41Z</time>
      </trkpt>
      <trkpt lat="45.15293" lon="5.93459">
        <ele>2022.28</ele>
        <time>2013-09-05T17:47:53Z</time>
      </trkpt>
      <trkpt lat="45.15289" lon="5.93452">
        <ele>2019.15</ele>
        <time>2013-09-05T17:48:09Z</time>
      </trkpt>
      <trkpt lat="45.15282" lon="5.93445">
        <ele>2015.61</ele>
        <time>2013-09-05T17:48:15Z</time>
      </trkpt>
      <trkpt lat="45.15274" lon="5.93439">
        <ele>2013.7</ele>
        <time>2013-09-05T17:48:23Z</time>
      </trkpt>
      <trkpt lat="45.15274" lon="5.93439">
        <ele>2013.73</ele>
        <time>2013-09-05T17:48:48Z</time>
      </trkpt>
      <trkpt lat="45.15275" lon="5.93441">
        <ele>2013.59</ele>
        <time>2013-09-05T17:49:16Z</time>
      </trkpt>
      <trkpt lat="45.15278" lon="5.93437">
        <ele>2013.38</ele>
        <time>2013-09-05T17:49:34Z</time>
      </trkpt>
      <trkpt lat="45.15282" lon="5.9342">
        <ele>2011.9</ele>
        <time>2013-09-05T17:49:44Z</time>
      </trkpt>
      <trkpt lat="45.15286" lon="5.93412">
        <ele>2013.24</ele>
        <time>2013-09-05T17:49:51Z</time>
      </trkpt>
      <trkpt lat="45.15286" lon="5.93405">
        <ele>2014.38</ele>
        <time>2013-09-05T17:49:55Z</time>
      </trkpt>
      <trkpt lat="45.15276" lon="5.93395">
        <ele>2013.91</ele>
        <time>2013-09-05T17:50:06Z</time>
      </trkpt>
      <trkpt lat="45.15274" lon="5.93382">
        <ele>2013.12</ele>
        <time>2013-09-05T17:50:16Z</time>
      </trkpt>
      <trkpt lat="45.15267" lon="5.93374">
        <ele>2010.06</ele>
        <time>2013-09-05T17:50:30Z</time>
      </trkpt>
      <trkpt lat="45.15268" lon="5.93374">
        <ele>2010.39</ele>
        <time>2013-09-05T17:50:56Z</time>
      </trkpt>
      <trkpt lat="45.15268" lon="5.93374">
        <ele>2009.42</ele>
        <time>2013-09-05T17:51:25Z</time>
      </trkpt>
      <trkpt lat="45.15269" lon="5.93376">
        <ele>2008.87</ele>
        <time>2013-09-05T17:51:52Z</time>
      </trkpt>
      <trkpt lat="45.15268" lon="5.9337">
        <ele>2008.66</ele>
        <time>2013-09-05T17:52:12Z</time>
      </trkpt>
      <trkpt lat="45.1526" lon="5.93352">
        <ele>2011.68</ele>
        <time>2013-09-05T17:52:24Z</time>
      </trkpt>
      <trkpt lat="45.15252" lon="5.93345">
        <ele>2011.92</ele>
        <time>2013-09-05T17:52:31Z</time>
      </trkpt>
      <trkpt lat="45.15243" lon="5.93319">
        <ele>2012.15</ele>
        <time>2013-09-05T17:52:45Z</time>
      </trkpt>
      <trkpt lat="45.15243" lon="5.93316">
        <ele>2011.93</ele>
        <time>2013-09-05T17:52:46Z</time>
      </trkpt>
      <trkpt lat="45.15234" lon="5.93312">
        <ele>2011.17</ele>
        <time>2013-09-05T17:52:56Z</time>
      </trkpt>
      <trkpt lat="45.15227" lon="5.93317">
        <ele>2009.12</ele>
        <time>2013-09-05T17:53:09Z</time>
      </trkpt>
      <trkpt lat="45.15229" lon="5.93316">
        <ele>2009.02</ele>
        <time>2013-09-05T17:53:34Z</time>
      </trkpt>
      <trkpt lat="45.15237" lon="5.93313">
        <ele>2009.22</ele>
        <time>2013-09-05T17:53:52Z</time>
      </trkpt>
      <trkpt lat="45.15243" lon="5.93294">
        <ele>2006.71</ele>
        <time>2013-09-05T17:54:03Z</time>
      </trkpt>
      <trkpt lat="45.15241" lon="5.93286">
        <ele>2003.63</ele>
        <time>2013-09-05T17:54:26Z</time>
      </trkpt>
      <trkpt lat="45.15237" lon="5.9328">
        <ele>2000.68</ele>
        <time>2013-09-05T17:54:42Z</time>
      </trkpt>
      <trkpt lat="45.15235" lon="5.93276">
        <ele>1999.65</ele>
        <time>2013-09-05T17:54:47Z</time>
      </trkpt>
      <trkpt lat="45.15236" lon="5.93263">
        <ele>1997.51</ele>
        <time>2013-09-05T17:54:54Z</time>
      </trkpt>
      <trkpt lat="45.15243" lon="5.93253">
        <ele>1996.38</ele>
        <time>2013-09-05T17:55:06Z</time>
      </trkpt>
      <trkpt lat="45.15246" lon="5.93256">
        <ele>1995.5</ele>
        <time>2013-09-05T17:55:25Z</time>
      </trkpt>
      <trkpt lat="45.15247" lon="5.93245">
        <ele>1994.86</ele>
        <time>2013-09-05T17:55:44Z</time>
      </trkpt>
      <trkpt lat="45.15246" lon="5.9323">
        <ele>1992.78</ele>
        <time>2013-09-05T17:55:51Z</time>
      </trkpt>
      <trkpt lat="45.15242" lon="5.93218">
        <ele>1992.07</ele>
        <time>2013-09-05T17:55:57Z</time>
      </trkpt>
      <trkpt lat="45.15239" lon="5.93207">
        <ele>1990.6</ele>
        <time>2013-09-05T17:56:03Z</time>
      </trkpt>
      <trkpt lat="45.15237" lon="5.93186">
        <ele>1989.93</ele>
        <time>2013-09-05T17:56:15Z</time>
      </trkpt>
      <trkpt lat="45.15239" lon="5.93183">
        <ele>1989.95</ele>
        <time>2013-09-05T17:56:34Z</time>
      </trkpt>
      <trkpt lat="45.15238" lon="5.93181">
        <ele>1989.86</ele>
        <time>2013-09-05T17:56:37Z</time>
      </trkpt>
      <trkpt lat="45.15235" lon="5.9316">
        <ele>1986.63</ele>
        <time>2013-09-05T17:56:46Z</time>
      </trkpt>
      <trkpt lat="45.15228" lon="5.93151">
        <ele>1984.68</ele>
        <time>2013-09-05T17:56:52Z</time>
      </trkpt>
      <trkpt lat="45.15219" lon="5.93138">
        <ele>1982.51</ele>
        <time>2013-09-05T17:57:03Z</time>
      </trkpt>
      <trkpt lat="45.15214" lon="5.93112">
        <ele>1979.27</ele>
        <time>2013-09-05T17:57:20Z</time>
      </trkpt>
      <trkpt lat="45.15212" lon="5.93099">
        <ele>1976.01</ele>
        <time>2013-09-05T17:57:30Z</time>
      </trkpt>
      <trkpt lat="45.15212" lon="5.93097">
        <ele>1975.64</ele>
        <time>2013-09-05T17:57:31Z</time>
      </trkpt>
      <trkpt lat="45.15213" lon="5.9309">
        <ele>1973.54</ele>
        <time>2013-09-05T17:57:36Z</time>
      </trkpt>
      <trkpt lat="45.15215" lon="5.93077">
        <ele>1970.01</ele>
        <time>2013-09-05T17:57:44Z</time>
      </trkpt>
      <trkpt lat="45.15216" lon="5.93069">
        <ele>1967.9</ele>
        <time>2013-09-05T17:57:49Z</time>
      </trkpt>
      <trkpt lat="45.15218" lon="5.93048">
        <ele>1964.83</ele>
        <time>2013-09-05T17:58:03Z</time>
      </trkpt>
      <trkpt lat="45.15227" lon="5.93033">
        <ele>1961.7</ele>
        <time>2013-09-05T17:58:17Z</time>
      </trkpt>
      <trkpt lat="45.15228" lon="5.93032">
        <ele>1961.54</ele>
        <time>2013-09-05T17:58:18Z</time>
      </trkpt>
      <trkpt lat="45.15235" lon="5.93018">
        <ele>1960.21</ele>
        <time>2013-09-05T17:58:41Z</time>
      </trkpt>
      <trkpt lat="45.15233" lon="5.93013">
        <ele>1959.64</ele>
        <time>2013-09-05T17:58:44Z</time>
      </trkpt>
      <trkpt lat="45.15217" lon="5.92988">
        <ele>1958.51</ele>
        <time>2013-09-05T17:59:02Z</time>
      </trkpt>
      <trkpt lat="45.15205" lon="5.92971">
        <ele>1959.94</ele>
        <time>2013-09-05T17:59:16Z</time>
      </trkpt>
      <trkpt lat="45.15198" lon="5.92951">
        <ele>1962.04</ele>
        <time>2013-09-05T17:59:30Z</time>
      </trkpt>
      <trkpt lat="45.15196" lon="5.92948">
        <ele>1962.71</ele>
        <time>2013-09-05T17:59:32Z</time>
      </trkpt>
      <trkpt lat="45.15195" lon="5.92946">
        <ele>1962.98</ele>
        <time>2013-09-05T17:59:34Z</time>
      </trkpt>
      <trkpt lat="45.15188" lon="5.92928">
        <ele>1962.97</ele>
        <time>2013-09-05T17:59:41Z</time>
      </trkpt>
      <trkpt lat="45.15176" lon="5.92906">
        <ele>1963.09</ele>
        <time>2013-09-05T17:59:56Z</time>
      </trkpt>
      <trkpt lat="45.15173" lon="5.92896">
        <ele>1963.8</ele>
        <time>2013-09-05T18:00:02Z</time>
      </trkpt>
      <trkpt lat="45.15158" lon="5.92871">
        <ele>1965.15</ele>
        <time>2013-09-05T18:00:17Z</time>
      </trkpt>
      <trkpt lat="45.15149" lon="5.92857">
        <ele>1965.65</ele>
        <time>2013-09-05T18:00:26Z</time>
      </trkpt>
      <trkpt lat="45.15148" lon="5.92846">
        <ele>1965.92</ele>
        <time>2013-09-05T18:00:32Z</time>
      </trkpt>
      <trkpt lat="45.15144" lon="5.9284">
        <ele>1965.81</ele>
        <time>2013-09-05T18:00:36Z</time>
      </trkpt>
      <trkpt lat="45.15132" lon="5.92824">
        <ele>1965.17</ele>
        <time>2013-09-05T18:00:45Z</time>
      </trkpt>
      <trkpt lat="45.15126" lon="5.92815">
        <ele>1968.25</ele>
        <time>2013-09-05T18:00:53Z</time>
      </trkpt>
      <trkpt lat="45.15122" lon="5.92805">
        <ele>1969.29</ele>
        <time>2013-09-05T18:01:16Z</time>
      </trkpt>
      <trkpt lat="45.15123" lon="5.92805">
        <ele>1968.79</ele>
        <time>2013-09-05T18:01:41Z</time>
      </trkpt>
      <trkpt lat="45.15116" lon="5.928">
        <ele>1966.86</ele>
        <time>2013-09-05T18:01:55Z</time>
      </trkpt>
      <trkpt lat="45.15106" lon="5.92804">
        <ele>1964.17</ele>
        <time>2013-09-05T18:02:03Z</time>
      </trkpt>
      <trkpt lat="45.15099" lon="5.92805">
        <ele>1962.1</ele>
        <time>2013-09-05T18:02:07Z</time>
      </trkpt>
      <trkpt lat="45.15093" lon="5.92793">
        <ele>1958.21</ele>
        <time>2013-09-05T18:02:14Z</time>
      </trkpt>
      <trkpt lat="45.15092" lon="5.92792">
        <ele>1957.39</ele>
        <time>2013-09-05T18:02:16Z</time>
      </trkpt>
      <trkpt lat="45.15089" lon="5.92792">
        <ele>1956.52</ele>
        <time>2013-09-05T18:02:19Z</time>
      </trkpt>
      <trkpt lat="45.15082" lon="5.92792">
        <ele>1952.08</ele>
        <time>2013-09-05T18:02:26Z</time>
      </trkpt>
      <trkpt lat="45.15077" lon="5.9279">
        <ele>1949.05</ele>
        <time>2013-09-05T18:02:31Z</time>
      </trkpt>
      <trkpt lat="45.15072" lon="5.92776">
        <ele>1944.43</ele>
        <time>2013-09-05T18:02:43Z</time>
      </trkpt>
      <trkpt lat="45.15067" lon="5.9277">
        <ele>1941.42</ele>
        <time>2013-09-05T18:02:49Z</time>
      </trkpt>
      <trkpt lat="45.1506" lon="5.9277">
        <ele>1937.76</ele>
        <time>2013-09-05T18:02:55Z</time>
      </trkpt>
      <trkpt lat="45.15056" lon="5.92769">
        <ele>1934.66</ele>
        <time>2013-09-05T18:03:02Z</time>
      </trkpt>
      <trkpt lat="45.15053" lon="5.92765">
        <ele>1933.09</ele>
        <time>2013-09-05T18:03:06Z</time>
      </trkpt>
      <trkpt lat="45.1505" lon="5.92766">
        <ele>1931.07</ele>
        <time>2013-09-05T18:03:11Z</time>
      </trkpt>
      <trkpt lat="45.15049" lon="5.92767">
        <ele>1930.8</ele>
        <time>2013-09-05T18:03:12Z</time>
      </trkpt>
      <trkpt lat="45.15049" lon="5.92774">
        <ele>1930.01</ele>
        <time>2013-09-05T18:03:16Z</time>
      </trkpt>
      <trkpt lat="45.15047" lon="5.92778">
        <ele>1928.78</ele>
        <time>2013-09-05T18:03:19Z</time>
      </trkpt>
      <trkpt lat="45.15037" lon="5.92751">
        <ele>1925.04</ele>
        <time>2013-09-05T18:03:28Z</time>
      </trkpt>
      <trkpt lat="45.15036" lon="5.92746">
        <ele>1923.94</ele>
        <time>2013-09-05T18:03:30Z</time>
      </trkpt>
      <trkpt lat="45.15029" lon="5.92733">
        <ele>1920.47</ele>
        <time>2013-09-05T18:03:36Z</time>
      </trkpt>
      <trkpt lat="45.15031" lon="5.92736">
        <ele>1919.98</ele>
        <time>2013-09-05T18:03:51Z</time>
      </trkpt>
      <trkpt lat="45.15031" lon="5.92736">
        <ele>1920.15</ele>
        <time>2013-09-05T18:03:54Z</time>
      </trkpt>
      <trkpt lat="45.15023" lon="5.92763">
        <ele>1916.91</ele>
        <time>2013-09-05T18:04:02Z</time>
      </trkpt>
      <trkpt lat="45.15018" lon="5.92785">
        <ele>1913.36</ele>
        <time>2013-09-05T18:04:09Z</time>
      </trkpt>
      <trkpt lat="45.15014" lon="5.9279">
        <ele>1911.21</ele>
        <time>2013-09-05T18:04:14Z</time>
      </trkpt>
      <trkpt lat="45.1501" lon="5.9279">
        <ele>1909.86</ele>
        <time>2013-09-05T18:04:18Z</time>
      </trkpt>
      <trkpt lat="45.15002" lon="5.92804">
        <ele>1907.77</ele>
        <time>2013-09-05T18:04:27Z</time>
      </trkpt>
      <trkpt lat="45.14998" lon="5.9281">
        <ele>1905.93</ele>
        <time>2013-09-05T18:04:30Z</time>
      </trkpt>
      <trkpt lat="45.14996" lon="5.92809">
        <ele>1904.75</ele>
        <time>2013-09-05T18:04:33Z</time>
      </trkpt>
      <trkpt lat="45.14998" lon="5.92796">
        <ele>1903.66</ele>
        <time>2013-09-05T18:04:38Z</time>
      </trkpt>
      <trkpt lat="45.14995" lon="5.92791">
        <ele>1900.68</ele>
        <time>2013-09-05T18:04:43Z</time>
      </trkpt>
      <trkpt lat="45.14988" lon="5.92803">
        <ele>1898.59</ele>
        <time>2013-09-05T18:04:48Z</time>
      </trkpt>
      <trkpt lat="45.14983" lon="5.92807">
        <ele>1896.94</ele>
        <time>2013-09-05T18:04:52Z</time>
      </trkpt>
      <trkpt lat="45.14984" lon="5.92798">
        <ele>1895.42</ele>
        <time>2013-09-05T18:04:56Z</time>
      </trkpt>
      <trkpt lat="45.14989" lon="5.92784">
        <ele>1892.42</ele>
        <time>2013-09-05T18:05:02Z</time>
      </trkpt>
      <trkpt lat="45.14977" lon="5.92793">
        <ele>1888.55</ele>
        <time>2013-09-05T18:05:09Z</time>
      </trkpt>
      <trkpt lat="45.1497" lon="5.92801">
        <ele>1886.01</ele>
        <time>2013-09-05T18:05:14Z</time>
      </trkpt>
      <trkpt lat="45.14963" lon="5.92803">
        <ele>1883.05</ele>
        <time>2013-09-05T18:05:19Z</time>
      </trkpt>
      <trkpt lat="45.14959" lon="5.92806">
        <ele>1881.79</ele>
        <time>2013-09-05T18:05:22Z</time>
      </trkpt>
      <trkpt lat="45.14952" lon="5.92806">
        <ele>1878.32</ele>
        <time>2013-09-05T18:05:29Z</time>
      </trkpt>
      <trkpt lat="45.14946" lon="5.92814">
        <ele>1876.32</ele>
        <time>2013-09-05T18:05:40Z</time>
      </trkpt>
      <trkpt lat="45.14949" lon="5.9281">
        <ele>1876.02</ele>
        <time>2013-09-05T18:05:56Z</time>
      </trkpt>
      <trkpt lat="45.14949" lon="5.9281">
        <ele>1875.76</ele>
        <time>2013-09-05T18:05:57Z</time>
      </trkpt>
      <trkpt lat="45.14954" lon="5.92792">
        <ele>1872.24</ele>
        <time>2013-09-05T18:06:06Z</time>
      </trkpt>
      <trkpt lat="45.14957" lon="5.9277">
        <ele>1869.55</ele>
        <time>2013-09-05T18:06:12Z</time>
      </trkpt>
      <trkpt lat="45.14951" lon="5.92764">
        <ele>1865.55</ele>
        <time>2013-09-05T18:06:18Z</time>
      </trkpt>
      <trkpt lat="45.14945" lon="5.92764">
        <ele>1862.03</ele>
        <time>2013-09-05T18:06:23Z</time>
      </trkpt>
      <trkpt lat="45.14936" lon="5.92767">
        <ele>1858.73</ele>
        <time>2013-09-05T18:06:28Z</time>
      </trkpt>
      <trkpt lat="45.14928" lon="5.9277">
        <ele>1857.06</ele>
        <time>2013-09-05T18:06:32Z</time>
      </trkpt>
      <trkpt lat="45.14918" lon="5.92772">
        <ele>1854</ele>
        <time>2013-09-05T18:06:41Z</time>
      </trkpt>
      <trkpt lat="45.14917" lon="5.92768">
        <ele>1851.97</ele>
        <time>2013-09-05T18:06:45Z</time>
      </trkpt>
      <trkpt lat="45.14918" lon="5.92765">
        <ele>1851.45</ele>
        <time>2013-09-05T18:06:47Z</time>
      </trkpt>
      <trkpt lat="45.14924" lon="5.92758">
        <ele>1850.37</ele>
        <time>2013-09-05T18:06:51Z</time>
      </trkpt>
      <trkpt lat="45.1493" lon="5.92745">
        <ele>1847.76</ele>
        <time>2013-09-05T18:06:58Z</time>
      </trkpt>
      <trkpt lat="45.14923" lon="5.92744">
        <ele>1842.75</ele>
        <time>2013-09-05T18:07:07Z</time>
      </trkpt>
      <trkpt lat="45.14914" lon="5.92744">
        <ele>1839.72</ele>
        <time>2013-09-05T18:07:11Z</time>
      </trkpt>
      <trkpt lat="45.14911" lon="5.9274">
        <ele>1836.14</ele>
        <time>2013-09-05T18:07:20Z</time>
      </trkpt>
      <trkpt lat="45.14916" lon="5.92735">
        <ele>1834.62</ele>
        <time>2013-09-05T18:07:23Z</time>
      </trkpt>
      <trkpt lat="45.14922" lon="5.92718">
        <ele>1831.94</ele>
        <time>2013-09-05T18:07:28Z</time>
      </trkpt>
      <trkpt lat="45.14922" lon="5.92719">
        <ele>1829.68</ele>
        <time>2013-09-05T18:07:35Z</time>
      </trkpt>
      <trkpt lat="45.14912" lon="5.92727">
        <ele>1826.88</ele>
        <time>2013-09-05T18:07:41Z</time>
      </trkpt>
      <trkpt lat="45.14904" lon="5.92737">
        <ele>1825.09</ele>
        <time>2013-09-05T18:07:46Z</time>
      </trkpt>
      <trkpt lat="45.14889" lon="5.92737">
        <ele>1822.7</ele>
        <time>2013-09-05T18:07:52Z</time>
      </trkpt>
      <trkpt lat="45.14875" lon="5.9274">
        <ele>1819.29</ele>
        <time>2013-09-05T18:07:59Z</time>
      </trkpt>
      <trkpt lat="45.14867" lon="5.92735">
        <ele>1817.12</ele>
        <time>2013-09-05T18:08:05Z</time>
      </trkpt>
      <trkpt lat="45.14863" lon="5.92725">
        <ele>1815.42</ele>
        <time>2013-09-05T18:08:09Z</time>
      </trkpt>
      <trkpt lat="45.14859" lon="5.92722">
        <ele>1813.81</ele>
        <time>2013-09-05T18:08:20Z</time>
      </trkpt>
      <trkpt lat="45.14867" lon="5.92725">
        <ele>1811.73</ele>
        <time>2013-09-05T18:08:31Z</time>
      </trkpt>
      <trkpt lat="45.14878" lon="5.92707">
        <ele>1807.8</ele>
        <time>2013-09-05T18:08:38Z</time>
      </trkpt>
      <trkpt lat="45.14882" lon="5.92695">
        <ele>1805.86</ele>
        <time>2013-09-05T18:08:42Z</time>
      </trkpt>
      <trkpt lat="45.14888" lon="5.92679">
        <ele>1803.33</ele>
        <time>2013-09-05T18:08:47Z</time>
      </trkpt>
      <trkpt lat="45.14889" lon="5.92672">
        <ele>1801.65</ele>
        <time>2013-09-05T18:08:50Z</time>
      </trkpt>
      <trkpt lat="45.14888" lon="5.92673">
        <ele>1800.75</ele>
        <time>2013-09-05T18:08:53Z</time>
      </trkpt>
      <trkpt lat="45.14882" lon="5.92678">
        <ele>1798.68</ele>
        <time>2013-09-05T18:08:58Z</time>
      </trkpt>
      <trkpt lat="45.14867" lon="5.92683">
        <ele>1795.59</ele>
        <time>2013-09-05T18:09:05Z</time>
      </trkpt>
      <trkpt lat="45.14865" lon="5.92684">
        <ele>1795.12</ele>
        <time>2013-09-05T18:09:06Z</time>
      </trkpt>
      <trkpt lat="45.1485" lon="5.92681">
        <ele>1792.55</ele>
        <time>2013-09-05T18:09:14Z</time>
      </trkpt>
      <trkpt lat="45.1485" lon="5.92678">
        <ele>1791.9</ele>
        <time>2013-09-05T18:09:17Z</time>
      </trkpt>
      <trkpt lat="45.14864" lon="5.92673">
        <ele>1788.78</ele>
        <time>2013-09-05T18:09:24Z</time>
      </trkpt>
      <trkpt lat="45.14876" lon="5.92663">
        <ele>1786.12</ele>
        <time>2013-09-05T18:09:34Z</time>
      </trkpt>
      <trkpt lat="45.14873" lon="5.92662">
        <ele>1785.31</ele>
        <time>2013-09-05T18:09:37Z</time>
      </trkpt>
      <trkpt lat="45.14869" lon="5.9266">
        <ele>1783.6</ele>
        <time>2013-09-05T18:09:41Z</time>
      </trkpt>
      <trkpt lat="45.14858" lon="5.92658">
        <ele>1780.63</ele>
        <time>2013-09-05T18:09:52Z</time>
      </trkpt>
      <trkpt lat="45.14844" lon="5.92655">
        <ele>1779.19</ele>
        <time>2013-09-05T18:10:05Z</time>
      </trkpt>
      <trkpt lat="45.14836" lon="5.92647">
        <ele>1777.29</ele>
        <time>2013-09-05T18:10:13Z</time>
      </trkpt>
      <trkpt lat="45.14834" lon="5.92645">
        <ele>1776.58</ele>
        <time>2013-09-05T18:10:15Z</time>
      </trkpt>
      <trkpt lat="45.14815" lon="5.92649">
        <ele>1773.41</ele>
        <time>2013-09-05T18:10:28Z</time>
      </trkpt>
      <trkpt lat="45.14801" lon="5.92655">
        <ele>1771.26</ele>
        <time>2013-09-05T18:10:39Z</time>
      </trkpt>
      <trkpt lat="45.14796" lon="5.92654">
        <ele>1770.53</ele>
        <time>2013-09-05T18:10:45Z</time>
      </trkpt>
      <trkpt lat="45.14779" lon="5.9266">
        <ele>1768.25</ele>
        <time>2013-09-05T18:10:58Z</time>
      </trkpt>
      <trkpt lat="45.14762" lon="5.92657">
        <ele>1767.18</ele>
        <time>2013-09-05T18:11:09Z</time>
      </trkpt>
      <trkpt lat="45.14748" lon="5.92648">
        <ele>1765.3</ele>
        <time>2013-09-05T18:11:19Z</time>
      </trkpt>
      <trkpt lat="45.14747" lon="5.92649">
        <ele>1764.96</ele>
        <time>2013-09-05T18:11:21Z</time>
      </trkpt>
      <trkpt lat="45.14746" lon="5.92645">
        <ele>1741.53</ele>
        <time>2013-09-05T18:12:56Z</time>
      </trkpt>
      <trkpt lat="45.14747" lon="5.92649">
        <ele>1741.47</ele>
        <time>2013-09-05T18:13:02Z</time>
      </trkpt>
      <trkpt lat="45.14723" lon="5.9266">
        <ele>1739.8</ele>
        <time>2013-09-05T18:13:15Z</time>
      </trkpt>
      <trkpt lat="45.14705" lon="5.92655">
        <ele>1737.38</ele>
        <time>2013-09-05T18:13:23Z</time>
      </trkpt>
      <trkpt lat="45.147" lon="5.9265">
        <ele>1736.18</ele>
        <time>2013-09-05T18:13:26Z</time>
      </trkpt>
      <trkpt lat="45.14696" lon="5.92635">
        <ele>1733.6</ele>
        <time>2013-09-05T18:13:32Z</time>
      </trkpt>
      <trkpt lat="45.14697" lon="5.92631">
        <ele>1731.37</ele>
        <time>2013-09-05T18:13:37Z</time>
      </trkpt>
      <trkpt lat="45.14696" lon="5.92625">
        <ele>1731.32</ele>
        <time>2013-09-05T18:13:48Z</time>
      </trkpt>
      <trkpt lat="45.14692" lon="5.92615">
        <ele>1730.51</ele>
        <time>2013-09-05T18:13:52Z</time>
      </trkpt>
      <trkpt lat="45.14694" lon="5.92608">
        <ele>1726.5</ele>
        <time>2013-09-05T18:14:04Z</time>
      </trkpt>
      <trkpt lat="45.14698" lon="5.92603">
        <ele>1724.25</ele>
        <time>2013-09-05T18:14:09Z</time>
      </trkpt>
      <trkpt lat="45.14705" lon="5.92593">
        <ele>1720.56</ele>
        <time>2013-09-05T18:14:18Z</time>
      </trkpt>
      <trkpt lat="45.14707" lon="5.92589">
        <ele>1719.71</ele>
        <time>2013-09-05T18:14:20Z</time>
      </trkpt>
      <trkpt lat="45.14699" lon="5.92571">
        <ele>1716.18</ele>
        <time>2013-09-05T18:14:27Z</time>
      </trkpt>
      <trkpt lat="45.14692" lon="5.92558">
        <ele>1713.12</ele>
        <time>2013-09-05T18:14:34Z</time>
      </trkpt>
      <trkpt lat="45.14684" lon="5.92549">
        <ele>1710.06</ele>
        <time>2013-09-05T18:14:39Z</time>
      </trkpt>
      <trkpt lat="45.1468" lon="5.92545">
        <ele>1709.32</ele>
        <time>2013-09-05T18:14:41Z</time>
      </trkpt>
      <trkpt lat="45.14673" lon="5.92535">
        <ele>1707.47</ele>
        <time>2013-09-05T18:14:48Z</time>
      </trkpt>
      <trkpt lat="45.14668" lon="5.92518">
        <ele>1705.29</ele>
        <time>2013-09-05T18:14:57Z</time>
      </trkpt>
      <trkpt lat="45.14667" lon="5.92513">
        <ele>1704.02</ele>
        <time>2013-09-05T18:15:00Z</time>
      </trkpt>
      <trkpt lat="45.14666" lon="5.92506">
        <ele>1701.68</ele>
        <time>2013-09-05T18:15:05Z</time>
      </trkpt>
      <trkpt lat="45.14668" lon="5.92507">
        <ele>1701.13</ele>
        <time>2013-09-05T18:15:08Z</time>
      </trkpt>
      <trkpt lat="45.14673" lon="5.92504">
        <ele>1698.35</ele>
        <time>2013-09-05T18:15:12Z</time>
      </trkpt>
      <trkpt lat="45.14672" lon="5.92491">
        <ele>1694.73</ele>
        <time>2013-09-05T18:15:20Z</time>
      </trkpt>
      <trkpt lat="45.14673" lon="5.92487">
        <ele>1693.75</ele>
        <time>2013-09-05T18:15:22Z</time>
      </trkpt>
      <trkpt lat="45.14673" lon="5.92484">
        <ele>1692.44</ele>
        <time>2013-09-05T18:15:24Z</time>
      </trkpt>
      <trkpt lat="45.14674" lon="5.92476">
        <ele>1688.58</ele>
        <time>2013-09-05T18:15:31Z</time>
      </trkpt>
      <trkpt lat="45.14676" lon="5.92473">
        <ele>1687.71</ele>
        <time>2013-09-05T18:15:33Z</time>
      </trkpt>
      <trkpt lat="45.14676" lon="5.92469">
        <ele>1685.52</ele>
        <time>2013-09-05T18:15:37Z</time>
      </trkpt>
      <trkpt lat="45.14679" lon="5.92465">
        <ele>1683.8</ele>
        <time>2013-09-05T18:15:40Z</time>
      </trkpt>
      <trkpt lat="45.1468" lon="5.92455">
        <ele>1680.11</ele>
        <time>2013-09-05T18:15:46Z</time>
      </trkpt>
      <trkpt lat="45.14679" lon="5.92451">
        <ele>1678.6</ele>
        <time>2013-09-05T18:15:49Z</time>
      </trkpt>
      <trkpt lat="45.14676" lon="5.92436">
        <ele>1675</ele>
        <time>2013-09-05T18:15:56Z</time>
      </trkpt>
      <trkpt lat="45.1468" lon="5.92423">
        <ele>1671.46</ele>
        <time>2013-09-05T18:16:03Z</time>
      </trkpt>
      <trkpt lat="45.14678" lon="5.92412">
        <ele>1668.28</ele>
        <time>2013-09-05T18:16:08Z</time>
      </trkpt>
      <trkpt lat="45.14677" lon="5.92407">
        <ele>1667.83</ele>
        <time>2013-09-05T18:16:11Z</time>
      </trkpt>
      <trkpt lat="45.1468" lon="5.92397">
        <ele>1665.35</ele>
        <time>2013-09-05T18:16:16Z</time>
      </trkpt>
      <trkpt lat="45.14681" lon="5.92392">
        <ele>1663.99</ele>
        <time>2013-09-05T18:16:18Z</time>
      </trkpt>
      <trkpt lat="45.14679" lon="5.92384">
        <ele>1661.03</ele>
        <time>2013-09-05T18:16:22Z</time>
      </trkpt>
      <trkpt lat="45.14685" lon="5.9237">
        <ele>1658.86</ele>
        <time>2013-09-05T18:16:27Z</time>
      </trkpt>
      <trkpt lat="45.14685" lon="5.92355">
        <ele>1655.98</ele>
        <time>2013-09-05T18:16:32Z</time>
      </trkpt>
      <trkpt lat="45.14683" lon="5.92346">
        <ele>1654.62</ele>
        <time>2013-09-05T18:16:37Z</time>
      </trkpt>
      <trkpt lat="45.14678" lon="5.92343">
        <ele>1653.97</ele>
        <time>2013-09-05T18:16:40Z</time>
      </trkpt>
      <trkpt lat="45.14672" lon="5.92343">
        <ele>1653.17</ele>
        <time>2013-09-05T18:16:44Z</time>
      </trkpt>
      <trkpt lat="45.14668" lon="5.92338">
        <ele>1651.76</ele>
        <time>2013-09-05T18:16:50Z</time>
      </trkpt>
      <trkpt lat="45.14666" lon="5.92336">
        <ele>1650.93</ele>
        <time>2013-09-05T18:16:52Z</time>
      </trkpt>
      <trkpt lat="45.14666" lon="5.92323">
        <ele>1647.63</ele>
        <time>2013-09-05T18:17:01Z</time>
      </trkpt>
      <trkpt lat="45.14652" lon="5.92299">
        <ele>1644.74</ele>
        <time>2013-09-05T18:17:16Z</time>
      </trkpt>
      <trkpt lat="45.14649" lon="5.92277">
        <ele>1643.43</ele>
        <time>2013-09-05T18:17:27Z</time>
      </trkpt>
      <trkpt lat="45.14645" lon="5.92264">
        <ele>1640.4</ele>
        <time>2013-09-05T18:17:34Z</time>
      </trkpt>
      <trkpt lat="45.14642" lon="5.92246">
        <ele>1636.83</ele>
        <time>2013-09-05T18:17:42Z</time>
      </trkpt>
      <trkpt lat="45.14641" lon="5.92244">
        <ele>1636.54</ele>
        <time>2013-09-05T18:17:43Z</time>
      </trkpt>
      <trkpt lat="45.14639" lon="5.92232">
        <ele>1634.43</ele>
        <time>2013-09-05T18:17:48Z</time>
      </trkpt>
      <trkpt lat="45.14637" lon="5.92215">
        <ele>1631.87</ele>
        <time>2013-09-05T18:17:58Z</time>
      </trkpt>
      <trkpt lat="45.14636" lon="5.92198">
        <ele>1628.6</ele>
        <time>2013-09-05T18:18:06Z</time>
      </trkpt>
      <trkpt lat="45.14633" lon="5.92192">
        <ele>1627.56</ele>
        <time>2013-09-05T18:18:08Z</time>
      </trkpt>
      <trkpt lat="45.14633" lon="5.92182">
        <ele>1625.84</ele>
        <time>2013-09-05T18:18:12Z</time>
      </trkpt>
      <trkpt lat="45.14633" lon="5.92166">
        <ele>1622.89</ele>
        <time>2013-09-05T18:18:18Z</time>
      </trkpt>
      <trkpt lat="45.14632" lon="5.92162">
        <ele>1622.14</ele>
        <time>2013-09-05T18:18:20Z</time>
      </trkpt>
      <trkpt lat="45.14623" lon="5.92148">
        <ele>1619.12</ele>
        <time>2013-09-05T18:18:29Z</time>
      </trkpt>
      <trkpt lat="45.14622" lon="5.9214">
        <ele>1618.54</ele>
        <time>2013-09-05T18:18:32Z</time>
      </trkpt>
      <trkpt lat="45.14619" lon="5.9213">
        <ele>1616.54</ele>
        <time>2013-09-05T18:18:38Z</time>
      </trkpt>
      <trkpt lat="45.14618" lon="5.92124">
        <ele>1616.09</ele>
        <time>2013-09-05T18:18:41Z</time>
      </trkpt>
      <trkpt lat="45.14614" lon="5.92116">
        <ele>1615.64</ele>
        <time>2013-09-05T18:18:46Z</time>
      </trkpt>
      <trkpt lat="45.14602" lon="5.92097">
        <ele>1614.61</ele>
        <time>2013-09-05T18:18:59Z</time>
      </trkpt>
      <trkpt lat="45.14599" lon="5.92095">
        <ele>1614.38</ele>
        <time>2013-09-05T18:19:01Z</time>
      </trkpt>
      <trkpt lat="45.14588" lon="5.92086">
        <ele>1614.39</ele>
        <time>2013-09-05T18:19:10Z</time>
      </trkpt>
      <trkpt lat="45.14579" lon="5.92077">
        <ele>1612.56</ele>
        <time>2013-09-05T18:19:17Z</time>
      </trkpt>
      <trkpt lat="45.14571" lon="5.92076">
        <ele>1612.81</ele>
        <time>2013-09-05T18:19:24Z</time>
      </trkpt>
      <trkpt lat="45.14564" lon="5.92066">
        <ele>1613.22</ele>
        <time>2013-09-05T18:19:32Z</time>
      </trkpt>
      <trkpt lat="45.14556" lon="5.92059">
        <ele>1611.97</ele>
        <time>2013-09-05T18:19:42Z</time>
      </trkpt>
      <trkpt lat="45.14553" lon="5.92052">
        <ele>1611.67</ele>
        <time>2013-09-05T18:19:45Z</time>
      </trkpt>
      <trkpt lat="45.14553" lon="5.92025">
        <ele>1610.81</ele>
        <time>2013-09-05T18:19:55Z</time>
      </trkpt>
      <trkpt lat="45.14549" lon="5.92016">
        <ele>1610.5</ele>
        <time>2013-09-05T18:20:04Z</time>
      </trkpt>
      <trkpt lat="45.1455" lon="5.92002">
        <ele>1609.63</ele>
        <time>2013-09-05T18:20:09Z</time>
      </trkpt>
      <trkpt lat="45.14537" lon="5.91986">
        <ele>1608.14</ele>
        <time>2013-09-05T18:20:22Z</time>
      </trkpt>
      <trkpt lat="45.14525" lon="5.91987">
        <ele>1607.42</ele>
        <time>2013-09-05T18:20:31Z</time>
      </trkpt>
      <trkpt lat="45.14519" lon="5.9199">
        <ele>1607.43</ele>
        <time>2013-09-05T18:20:35Z</time>
      </trkpt>
      <trkpt lat="45.14506" lon="5.91977">
        <ele>1608.49</ele>
        <time>2013-09-05T18:20:48Z</time>
      </trkpt>
      <trkpt lat="45.14511" lon="5.91959">
        <ele>1607.65</ele>
        <time>2013-09-05T18:20:54Z</time>
      </trkpt>
      <trkpt lat="45.14512" lon="5.91952">
        <ele>1607.36</ele>
        <time>2013-09-05T18:20:57Z</time>
      </trkpt>
      <trkpt lat="45.14512" lon="5.91948">
        <ele>1607.08</ele>
        <time>2013-09-05T18:20:59Z</time>
      </trkpt>
      <trkpt lat="45.14513" lon="5.91935">
        <ele>1606.61</ele>
        <time>2013-09-05T18:21:06Z</time>
      </trkpt>
      <trkpt lat="45.14514" lon="5.91924">
        <ele>1606.76</ele>
        <time>2013-09-05T18:21:11Z</time>
      </trkpt>
      <trkpt lat="45.14513" lon="5.91919">
        <ele>1606.84</ele>
        <time>2013-09-05T18:21:14Z</time>
      </trkpt>
      <trkpt lat="45.14514" lon="5.91907">
        <ele>1606.7</ele>
        <time>2013-09-05T18:21:21Z</time>
      </trkpt>
      <trkpt lat="45.14509" lon="5.91884">
        <ele>1606.2</ele>
        <time>2013-09-05T18:21:35Z</time>
      </trkpt>
      <trkpt lat="45.14513" lon="5.91882">
        <ele>1605.81</ele>
        <time>2013-09-05T18:21:38Z</time>
      </trkpt>
      <trkpt lat="45.14524" lon="5.91869">
        <ele>1605.41</ele>
        <time>2013-09-05T18:21:47Z</time>
      </trkpt>
      <trkpt lat="45.1452" lon="5.91845">
        <ele>1605.1</ele>
        <time>2013-09-05T18:22:01Z</time>
      </trkpt>
      <trkpt lat="45.14519" lon="5.91843">
        <ele>1605.04</ele>
        <time>2013-09-05T18:22:02Z</time>
      </trkpt>
      <trkpt lat="45.14518" lon="5.91833">
        <ele>1604.06</ele>
        <time>2013-09-05T18:22:13Z</time>
      </trkpt>
      <trkpt lat="45.14519" lon="5.91829">
        <ele>1605.82</ele>
        <time>2013-09-05T18:23:24Z</time>
      </trkpt>
      <trkpt lat="45.14519" lon="5.91828">
        <ele>1605.91</ele>
        <time>2013-09-05T18:23:34Z</time>
      </trkpt>
      <trkpt lat="45.14521" lon="5.91815">
        <ele>1605.05</ele>
        <time>2013-09-05T18:23:39Z</time>
      </trkpt>
      <trkpt lat="45.14524" lon="5.91799">
        <ele>1604.65</ele>
        <time>2013-09-05T18:23:43Z</time>
      </trkpt>
      <trkpt lat="45.14522" lon="5.91773">
        <ele>1605.08</ele>
        <time>2013-09-05T18:23:56Z</time>
      </trkpt>
      <trkpt lat="45.14522" lon="5.91764">
        <ele>1604.48</ele>
        <time>2013-09-05T18:24:10Z</time>
      </trkpt>
      <trkpt lat="45.14525" lon="5.91753">
        <ele>1603.93</ele>
        <time>2013-09-05T18:24:16Z</time>
      </trkpt>
      <trkpt lat="45.14522" lon="5.91739">
        <ele>1603.56</ele>
        <time>2013-09-05T18:24:22Z</time>
      </trkpt>
      <trkpt lat="45.14524" lon="5.91721">
        <ele>1603.1</ele>
        <time>2013-09-05T18:24:28Z</time>
      </trkpt>
      <trkpt lat="45.14522" lon="5.91711">
        <ele>1603.09</ele>
        <time>2013-09-05T18:24:33Z</time>
      </trkpt>
      <trkpt lat="45.14523" lon="5.91699">
        <ele>1602.57</ele>
        <time>2013-09-05T18:24:37Z</time>
      </trkpt>
      <trkpt lat="45.14521" lon="5.9169">
        <ele>1602.43</ele>
        <time>2013-09-05T18:24:41Z</time>
      </trkpt>
      <trkpt lat="45.14519" lon="5.91684">
        <ele>1602.83</ele>
        <time>2013-09-05T18:24:45Z</time>
      </trkpt>
      <trkpt lat="45.14517" lon="5.91677">
        <ele>1603.02</ele>
        <time>2013-09-05T18:24:48Z</time>
      </trkpt>
      <trkpt lat="45.14515" lon="5.91656">
        <ele>1602.5</ele>
        <time>2013-09-05T18:24:59Z</time>
      </trkpt>
      <trkpt lat="45.14512" lon="5.91649">
        <ele>1602.34</ele>
        <time>2013-09-05T18:25:03Z</time>
      </trkpt>
      <trkpt lat="45.1451" lon="5.9163">
        <ele>1602.08</ele>
        <time>2013-09-05T18:25:11Z</time>
      </trkpt>
      <trkpt lat="45.14506" lon="5.91618">
        <ele>1600.42</ele>
        <time>2013-09-05T18:25:24Z</time>
      </trkpt>
      <trkpt lat="45.145" lon="5.91603">
        <ele>1600.31</ele>
        <time>2013-09-05T18:25:40Z</time>
      </trkpt>
      <trkpt lat="45.145" lon="5.91601">
        <ele>1600.34</ele>
        <time>2013-09-05T18:25:41Z</time>
      </trkpt>
      <trkpt lat="45.14497" lon="5.91595">
        <ele>1598.17</ele>
        <time>2013-09-05T18:25:48Z</time>
      </trkpt>
      <trkpt lat="45.14499" lon="5.91588">
        <ele>1595.35</ele>
        <time>2013-09-05T18:25:54Z</time>
      </trkpt>
      <trkpt lat="45.14503" lon="5.9158">
        <ele>1593.64</ele>
        <time>2013-09-05T18:25:59Z</time>
      </trkpt>
      <trkpt lat="45.14501" lon="5.9157">
        <ele>1592.84</ele>
        <time>2013-09-05T18:26:03Z</time>
      </trkpt>
      <trkpt lat="45.14504" lon="5.91569">
        <ele>1591.3</ele>
        <time>2013-09-05T18:26:09Z</time>
      </trkpt>
      <trkpt lat="45.14505" lon="5.91571">
        <ele>1589.99</ele>
        <time>2013-09-05T18:26:12Z</time>
      </trkpt>
      <trkpt lat="45.1451" lon="5.91573">
        <ele>1587.99</ele>
        <time>2013-09-05T18:26:17Z</time>
      </trkpt>
      <trkpt lat="45.14515" lon="5.91579">
        <ele>1587.25</ele>
        <time>2013-09-05T18:26:33Z</time>
      </trkpt>
      <trkpt lat="45.14521" lon="5.91579">
        <ele>1587.18</ele>
        <time>2013-09-05T18:26:49Z</time>
      </trkpt>
      <trkpt lat="45.1452" lon="5.9158">
        <ele>1587.09</ele>
        <time>2013-09-05T18:26:55Z</time>
      </trkpt>
      <trkpt lat="45.14517" lon="5.91564">
        <ele>1585.7</ele>
        <time>2013-09-05T18:27:05Z</time>
      </trkpt>
      <trkpt lat="45.14517" lon="5.91558">
        <ele>1583.98</ele>
        <time>2013-09-05T18:27:09Z</time>
      </trkpt>
      <trkpt lat="45.14515" lon="5.91543">
        <ele>1580.25</ele>
        <time>2013-09-05T18:27:18Z</time>
      </trkpt>
      <trkpt lat="45.14512" lon="5.91539">
        <ele>1579.12</ele>
        <time>2013-09-05T18:27:20Z</time>
      </trkpt>
      <trkpt lat="45.14509" lon="5.91537">
        <ele>1578.45</ele>
        <time>2013-09-05T18:27:22Z</time>
      </trkpt>
      <trkpt lat="45.14508" lon="5.91536">
        <ele>1578.47</ele>
        <time>2013-09-05T18:27:23Z</time>
      </trkpt>
      <trkpt lat="45.145" lon="5.91525">
        <ele>1577.33</ele>
        <time>2013-09-05T18:27:29Z</time>
      </trkpt>
      <trkpt lat="45.14493" lon="5.91515">
        <ele>1573.82</ele>
        <time>2013-09-05T18:27:38Z</time>
      </trkpt>
      <trkpt lat="45.14494" lon="5.91517">
        <ele>1572.93</ele>
        <time>2013-09-05T18:27:40Z</time>
      </trkpt>
      <trkpt lat="45.14498" lon="5.91517">
        <ele>1571.05</ele>
        <time>2013-09-05T18:27:45Z</time>
      </trkpt>
      <trkpt lat="45.14498" lon="5.91508">
        <ele>1568.08</ele>
        <time>2013-09-05T18:27:50Z</time>
      </trkpt>
      <trkpt lat="45.14492" lon="5.91492">
        <ele>1564.37</ele>
        <time>2013-09-05T18:27:59Z</time>
      </trkpt>
      <trkpt lat="45.14491" lon="5.91488">
        <ele>1563.68</ele>
        <time>2013-09-05T18:28:01Z</time>
      </trkpt>
      <trkpt lat="45.14486" lon="5.91481">
        <ele>1560.58</ele>
        <time>2013-09-05T18:28:09Z</time>
      </trkpt>
      <trkpt lat="45.14488" lon="5.91473">
        <ele>1557.25</ele>
        <time>2013-09-05T18:28:19Z</time>
      </trkpt>
      <trkpt lat="45.1449" lon="5.91471">
        <ele>1556.19</ele>
        <time>2013-09-05T18:28:21Z</time>
      </trkpt>
      <trkpt lat="45.14494" lon="5.91472">
        <ele>1554.44</ele>
        <time>2013-09-05T18:28:26Z</time>
      </trkpt>
      <trkpt lat="45.145" lon="5.91471">
        <ele>1551.96</ele>
        <time>2013-09-05T18:28:34Z</time>
      </trkpt>
      <trkpt lat="45.14501" lon="5.91466">
        <ele>1550.42</ele>
        <time>2013-09-05T18:28:39Z</time>
      </trkpt>
      <trkpt lat="45.145" lon="5.91456">
        <ele>1547.77</ele>
        <time>2013-09-05T18:28:44Z</time>
      </trkpt>
      <trkpt lat="45.145" lon="5.91433">
        <ele>1544.09</ele>
        <time>2013-09-05T18:28:56Z</time>
      </trkpt>
      <trkpt lat="45.14498" lon="5.91411">
        <ele>1540.39</ele>
        <time>2013-09-05T18:29:05Z</time>
      </trkpt>
      <trkpt lat="45.14494" lon="5.91393">
        <ele>1537.29</ele>
        <time>2013-09-05T18:29:11Z</time>
      </trkpt>
      <trkpt lat="45.14494" lon="5.91386">
        <ele>1534.06</ele>
        <time>2013-09-05T18:29:17Z</time>
      </trkpt>
      <trkpt lat="45.14503" lon="5.91387">
        <ele>1531.79</ele>
        <time>2013-09-05T18:29:24Z</time>
      </trkpt>
      <trkpt lat="45.14502" lon="5.91377">
        <ele>1529.54</ele>
        <time>2013-09-05T18:29:29Z</time>
      </trkpt>
      <trkpt lat="45.14499" lon="5.9137">
        <ele>1527.98</ele>
        <time>2013-09-05T18:29:32Z</time>
      </trkpt>
      <trkpt lat="45.14496" lon="5.91366">
        <ele>1525.37</ele>
        <time>2013-09-05T18:29:38Z</time>
      </trkpt>
      <trkpt lat="45.14505" lon="5.91375">
        <ele>1522.34</ele>
        <time>2013-09-05T18:29:44Z</time>
      </trkpt>
      <trkpt lat="45.14512" lon="5.91372">
        <ele>1521.01</ele>
        <time>2013-09-05T18:29:48Z</time>
      </trkpt>
      <trkpt lat="45.14509" lon="5.91359">
        <ele>1517.63</ele>
        <time>2013-09-05T18:29:55Z</time>
      </trkpt>
      <trkpt lat="45.14507" lon="5.91353">
        <ele>1516.03</ele>
        <time>2013-09-05T18:29:58Z</time>
      </trkpt>
      <trkpt lat="45.14496" lon="5.91338">
        <ele>1512.21</ele>
        <time>2013-09-05T18:30:06Z</time>
      </trkpt>
      <trkpt lat="45.14493" lon="5.91328">
        <ele>1508.55</ele>
        <time>2013-09-05T18:30:13Z</time>
      </trkpt>
      <trkpt lat="45.14495" lon="5.91329">
        <ele>1506.46</ele>
        <time>2013-09-05T18:30:16Z</time>
      </trkpt>
      <trkpt lat="45.14506" lon="5.91333">
        <ele>1502.75</ele>
        <time>2013-09-05T18:30:23Z</time>
      </trkpt>
      <trkpt lat="45.14515" lon="5.91334">
        <ele>1499.35</ele>
        <time>2013-09-05T18:30:29Z</time>
      </trkpt>
      <trkpt lat="45.14516" lon="5.91337">
        <ele>1499.4</ele>
        <time>2013-09-05T18:30:30Z</time>
      </trkpt>
      <trkpt lat="45.14516" lon="5.91351">
        <ele>1498.17</ele>
        <time>2013-09-05T18:30:39Z</time>
      </trkpt>
      <trkpt lat="45.14525" lon="5.91373">
        <ele>1495.76</ele>
        <time>2013-09-05T18:30:53Z</time>
      </trkpt>
      <trkpt lat="45.14525" lon="5.91374">
        <ele>1496.39</ele>
        <time>2013-09-05T18:30:55Z</time>
      </trkpt>
      <trkpt lat="45.14527" lon="5.91377">
        <ele>1496.79</ele>
        <time>2013-09-05T18:30:57Z</time>
      </trkpt>
      <trkpt lat="45.14536" lon="5.91393">
        <ele>1496.99</ele>
        <time>2013-09-05T18:31:06Z</time>
      </trkpt>
      <trkpt lat="45.14543" lon="5.91403">
        <ele>1497.21</ele>
        <time>2013-09-05T18:31:15Z</time>
      </trkpt>
      <trkpt lat="45.14548" lon="5.9141">
        <ele>1497.06</ele>
        <time>2013-09-05T18:31:20Z</time>
      </trkpt>
      <trkpt lat="45.14547" lon="5.91418">
        <ele>1496.28</ele>
        <time>2013-09-05T18:31:24Z</time>
      </trkpt>
      <trkpt lat="45.14554" lon="5.91421">
        <ele>1493.14</ele>
        <time>2013-09-05T18:31:33Z</time>
      </trkpt>
      <trkpt lat="45.14557" lon="5.91417">
        <ele>1492.29</ele>
        <time>2013-09-05T18:31:36Z</time>
      </trkpt>
      <trkpt lat="45.14566" lon="5.91416">
        <ele>1490.63</ele>
        <time>2013-09-05T18:31:40Z</time>
      </trkpt>
      <trkpt lat="45.1457" lon="5.91427">
        <ele>1489.57</ele>
        <time>2013-09-05T18:31:54Z</time>
      </trkpt>
      <trkpt lat="45.14566" lon="5.91434">
        <ele>1488.95</ele>
        <time>2013-09-05T18:32:22Z</time>
      </trkpt>
      <trkpt lat="45.14565" lon="5.91436">
        <ele>1488.45</ele>
        <time>2013-09-05T18:32:54Z</time>
      </trkpt>
      <trkpt lat="45.14562" lon="5.91432">
        <ele>1488.15</ele>
        <time>2013-09-05T18:33:14Z</time>
      </trkpt>
      <trkpt lat="45.14562" lon="5.91408">
        <ele>1484.91</ele>
        <time>2013-09-05T18:33:23Z</time>
      </trkpt>
      <trkpt lat="45.14562" lon="5.91406">
        <ele>1484.6</ele>
        <time>2013-09-05T18:33:24Z</time>
      </trkpt>
      <trkpt lat="45.1456" lon="5.91397">
        <ele>1482.03</ele>
        <time>2013-09-05T18:33:28Z</time>
      </trkpt>
      <trkpt lat="45.14558" lon="5.91392">
        <ele>1481.04</ele>
        <time>2013-09-05T18:33:30Z</time>
      </trkpt>
      <trkpt lat="45.14557" lon="5.91385">
        <ele>1478.9</ele>
        <time>2013-09-05T18:33:34Z</time>
      </trkpt>
      <trkpt lat="45.14552" lon="5.91372">
        <ele>1475.43</ele>
        <time>2013-09-05T18:33:42Z</time>
      </trkpt>
      <trkpt lat="45.14548" lon="5.91358">
        <ele>1471.96</ele>
        <time>2013-09-05T18:33:47Z</time>
      </trkpt>
      <trkpt lat="45.14547" lon="5.91346">
        <ele>1468.3</ele>
        <time>2013-09-05T18:33:51Z</time>
      </trkpt>
      <trkpt lat="45.14542" lon="5.91329">
        <ele>1465.16</ele>
        <time>2013-09-05T18:33:57Z</time>
      </trkpt>
      <trkpt lat="45.14542" lon="5.91326">
        <ele>1464.45</ele>
        <time>2013-09-05T18:33:58Z</time>
      </trkpt>
      <trkpt lat="45.14541" lon="5.91315">
        <ele>1461.57</ele>
        <time>2013-09-05T18:34:03Z</time>
      </trkpt>
      <trkpt lat="45.1454" lon="5.91294">
        <ele>1457.72</ele>
        <time>2013-09-05T18:34:10Z</time>
      </trkpt>
      <trkpt lat="45.1454" lon="5.91292">
        <ele>1457.44</ele>
        <time>2013-09-05T18:34:11Z</time>
      </trkpt>
      <trkpt lat="45.14539" lon="5.91281">
        <ele>1454.34</ele>
        <time>2013-09-05T18:34:16Z</time>
      </trkpt>
      <trkpt lat="45.14537" lon="5.91264">
        <ele>1451.81</ele>
        <time>2013-09-05T18:34:21Z</time>
      </trkpt>
      <trkpt lat="45.14538" lon="5.91258">
        <ele>1450.61</ele>
        <time>2013-09-05T18:34:23Z</time>
      </trkpt>
      <trkpt lat="45.14538" lon="5.91252">
        <ele>1449.34</ele>
        <time>2013-09-05T18:34:25Z</time>
      </trkpt>
      <trkpt lat="45.14535" lon="5.91247">
        <ele>1448.6</ele>
        <time>2013-09-05T18:34:27Z</time>
      </trkpt>
      <trkpt lat="45.14529" lon="5.91232">
        <ele>1445.95</ele>
        <time>2013-09-05T18:34:33Z</time>
      </trkpt>
      <trkpt lat="45.14519" lon="5.91218">
        <ele>1441.61</ele>
        <time>2013-09-05T18:34:40Z</time>
      </trkpt>
      <trkpt lat="45.14507" lon="5.91203">
        <ele>1438</ele>
        <time>2013-09-05T18:34:46Z</time>
      </trkpt>
      <trkpt lat="45.14503" lon="5.912">
        <ele>1437.35</ele>
        <time>2013-09-05T18:34:48Z</time>
      </trkpt>
      <trkpt lat="45.14493" lon="5.91197">
        <ele>1435.42</ele>
        <time>2013-09-05T18:34:54Z</time>
      </trkpt>
      <trkpt lat="45.14474" lon="5.91195">
        <ele>1433.97</ele>
        <time>2013-09-05T18:35:08Z</time>
      </trkpt>
      <trkpt lat="45.14468" lon="5.91194">
        <ele>1433.77</ele>
        <time>2013-09-05T18:35:20Z</time>
      </trkpt>
      <trkpt lat="45.14466" lon="5.91191">
        <ele>1433.76</ele>
        <time>2013-09-05T18:35:22Z</time>
      </trkpt>
      <trkpt lat="45.14463" lon="5.91188">
        <ele>1433.59</ele>
        <time>2013-09-05T18:35:25Z</time>
      </trkpt>
      <trkpt lat="45.14461" lon="5.91168">
        <ele>1431.45</ele>
        <time>2013-09-05T18:35:36Z</time>
      </trkpt>
      <trkpt lat="45.1446" lon="5.91158">
        <ele>1430.05</ele>
        <time>2013-09-05T18:35:56Z</time>
      </trkpt>
      <trkpt lat="45.1446" lon="5.91156">
        <ele>1429.78</ele>
        <time>2013-09-05T18:35:57Z</time>
      </trkpt>
      <trkpt lat="45.14463" lon="5.91139">
        <ele>1427.38</ele>
        <time>2013-09-05T18:36:03Z</time>
      </trkpt>
      <trkpt lat="45.14464" lon="5.91134">
        <ele>1426.42</ele>
        <time>2013-09-05T18:36:07Z</time>
      </trkpt>
      <trkpt lat="45.14471" lon="5.91101">
        <ele>1422.94</ele>
        <time>2013-09-05T18:36:15Z</time>
      </trkpt>
      <trkpt lat="45.14478" lon="5.91083">
        <ele>1419.52</ele>
        <time>2013-09-05T18:36:21Z</time>
      </trkpt>
      <trkpt lat="45.14481" lon="5.91067">
        <ele>1416.12</ele>
        <time>2013-09-05T18:36:26Z</time>
      </trkpt>
      <trkpt lat="45.14482" lon="5.91056">
        <ele>1413.57</ele>
        <time>2013-09-05T18:36:30Z</time>
      </trkpt>
      <trkpt lat="45.14475" lon="5.91039">
        <ele>1409.56</ele>
        <time>2013-09-05T18:36:36Z</time>
      </trkpt>
      <trkpt lat="45.14474" lon="5.91034">
        <ele>1407.79</ele>
        <time>2013-09-05T18:36:39Z</time>
      </trkpt>
      <trkpt lat="45.14469" lon="5.91018">
        <ele>1404.27</ele>
        <time>2013-09-05T18:36:45Z</time>
      </trkpt>
      <trkpt lat="45.14462" lon="5.91001">
        <ele>1400.6</ele>
        <time>2013-09-05T18:36:50Z</time>
      </trkpt>
      <trkpt lat="45.1446" lon="5.90999">
        <ele>1399.72</ele>
        <time>2013-09-05T18:36:52Z</time>
      </trkpt>
      <trkpt lat="45.14452" lon="5.90986">
        <ele>1396.17</ele>
        <time>2013-09-05T18:37:00Z</time>
      </trkpt>
      <trkpt lat="45.14452" lon="5.90985">
        <ele>1395.45</ele>
        <time>2013-09-05T18:37:01Z</time>
      </trkpt>
      <trkpt lat="45.14443" lon="5.90969">
        <ele>1391.56</ele>
        <time>2013-09-05T18:37:07Z</time>
      </trkpt>
      <trkpt lat="45.14442" lon="5.90968">
        <ele>1391.36</ele>
        <time>2013-09-05T18:37:08Z</time>
      </trkpt>
      <trkpt lat="45.14424" lon="5.90963">
        <ele>1391.43</ele>
        <time>2013-09-05T18:37:20Z</time>
      </trkpt>
      <trkpt lat="45.14407" lon="5.90946">
        <ele>1390.08</ele>
        <time>2013-09-05T18:37:33Z</time>
      </trkpt>
      <trkpt lat="45.14403" lon="5.90944">
        <ele>1390.18</ele>
        <time>2013-09-05T18:37:36Z</time>
      </trkpt>
      <trkpt lat="45.14404" lon="5.90932">
        <ele>1390.32</ele>
        <time>2013-09-05T18:37:41Z</time>
      </trkpt>
      <trkpt lat="45.14398" lon="5.9091">
        <ele>1390.44</ele>
        <time>2013-09-05T18:37:53Z</time>
      </trkpt>
      <trkpt lat="45.14384" lon="5.9091">
        <ele>1391.55</ele>
        <time>2013-09-05T18:38:13Z</time>
      </trkpt>
      <trkpt lat="45.14381" lon="5.90903">
        <ele>1391.89</ele>
        <time>2013-09-05T18:38:17Z</time>
      </trkpt>
      <trkpt lat="45.14378" lon="5.90892">
        <ele>1392.12</ele>
        <time>2013-09-05T18:38:19Z</time>
      </trkpt>
      <trkpt lat="45.14374" lon="5.90875">
        <ele>1394.09</ele>
        <time>2013-09-05T18:38:26Z</time>
      </trkpt>
      <trkpt lat="45.14372" lon="5.90862">
        <ele>1395.83</ele>
        <time>2013-09-05T18:38:33Z</time>
      </trkpt>
      <trkpt lat="45.14373" lon="5.90848">
        <ele>1395.69</ele>
        <time>2013-09-05T18:38:41Z</time>
      </trkpt>
      <trkpt lat="45.14377" lon="5.90835">
        <ele>1393.71</ele>
        <time>2013-09-05T18:38:47Z</time>
      </trkpt>
      <trkpt lat="45.1438" lon="5.90831">
        <ele>1393.1</ele>
        <time>2013-09-05T18:38:49Z</time>
      </trkpt>
      <trkpt lat="45.14383" lon="5.9082">
        <ele>1390.28</ele>
        <time>2013-09-05T18:38:53Z</time>
      </trkpt>
      <trkpt lat="45.14386" lon="5.90806">
        <ele>1385.86</ele>
        <time>2013-09-05T18:38:58Z</time>
      </trkpt>
      <trkpt lat="45.14384" lon="5.90796">
        <ele>1382.99</ele>
        <time>2013-09-05T18:39:03Z</time>
      </trkpt>
      <trkpt lat="45.14384" lon="5.90793">
        <ele>1381.95</ele>
        <time>2013-09-05T18:39:06Z</time>
      </trkpt>
      <trkpt lat="45.14384" lon="5.90786">
        <ele>1379.87</ele>
        <time>2013-09-05T18:39:11Z</time>
      </trkpt>
      <trkpt lat="45.14385" lon="5.90777">
        <ele>1376.91</ele>
        <time>2013-09-05T18:39:21Z</time>
      </trkpt>
      <trkpt lat="45.14385" lon="5.90765">
        <ele>1375.05</ele>
        <time>2013-09-05T18:39:26Z</time>
      </trkpt>
      <trkpt lat="45.14386" lon="5.90744">
        <ele>1371.36</ele>
        <time>2013-09-05T18:39:35Z</time>
      </trkpt>
      <trkpt lat="45.14386" lon="5.90734">
        <ele>1368.23</ele>
        <time>2013-09-05T18:39:40Z</time>
      </trkpt>
      <trkpt lat="45.14386" lon="5.9073">
        <ele>1365.56</ele>
        <time>2013-09-05T18:39:45Z</time>
      </trkpt>
      <trkpt lat="45.14389" lon="5.90727">
        <ele>1363.03</ele>
        <time>2013-09-05T18:39:51Z</time>
      </trkpt>
      <trkpt lat="45.14395" lon="5.90728">
        <ele>1360.56</ele>
        <time>2013-09-05T18:39:56Z</time>
      </trkpt>
      <trkpt lat="45.14401" lon="5.90736">
        <ele>1357.02</ele>
        <time>2013-09-05T18:40:02Z</time>
      </trkpt>
      <trkpt lat="45.14413" lon="5.90748">
        <ele>1353.74</ele>
        <time>2013-09-05T18:40:11Z</time>
      </trkpt>
      <trkpt lat="45.14415" lon="5.90752">
        <ele>1351.65</ele>
        <time>2013-09-05T18:40:16Z</time>
      </trkpt>
      <trkpt lat="45.14413" lon="5.90746">
        <ele>1349.51</ele>
        <time>2013-09-05T18:40:20Z</time>
      </trkpt>
      <trkpt lat="45.14411" lon="5.90745">
        <ele>1348.1</ele>
        <time>2013-09-05T18:40:23Z</time>
      </trkpt>
      <trkpt lat="45.14412" lon="5.90743">
        <ele>1347.53</ele>
        <time>2013-09-05T18:40:27Z</time>
      </trkpt>
      <trkpt lat="45.14416" lon="5.90731">
        <ele>1344.28</ele>
        <time>2013-09-05T18:40:34Z</time>
      </trkpt>
      <trkpt lat="45.14416" lon="5.90718">
        <ele>1341.26</ele>
        <time>2013-09-05T18:40:40Z</time>
      </trkpt>
      <trkpt lat="45.14416" lon="5.90703">
        <ele>1338.12</ele>
        <time>2013-09-05T18:40:47Z</time>
      </trkpt>
      <trkpt lat="45.14418" lon="5.90698">
        <ele>1336.63</ele>
        <time>2013-09-05T18:40:51Z</time>
      </trkpt>
      <trkpt lat="45.14429" lon="5.90699">
        <ele>1332.81</ele>
        <time>2013-09-05T18:40:57Z</time>
      </trkpt>
      <trkpt lat="45.14434" lon="5.90701">
        <ele>1329.55</ele>
        <time>2013-09-05T18:41:01Z</time>
      </trkpt>
      <trkpt lat="45.14438" lon="5.90701">
        <ele>1326.09</ele>
        <time>2013-09-05T18:41:05Z</time>
      </trkpt>
      <trkpt lat="45.14438" lon="5.90703">
        <ele>1324.7</ele>
        <time>2013-09-05T18:41:07Z</time>
      </trkpt>
      <trkpt lat="45.14448" lon="5.90713">
        <ele>1321.96</ele>
        <time>2013-09-05T18:41:11Z</time>
      </trkpt>
      <trkpt lat="45.1445" lon="5.90714">
        <ele>1321.1</ele>
        <time>2013-09-05T18:41:13Z</time>
      </trkpt>
      <trkpt lat="45.14458" lon="5.90721">
        <ele>1317.76</ele>
        <time>2013-09-05T18:41:24Z</time>
      </trkpt>
      <trkpt lat="45.14462" lon="5.90725">
        <ele>1317.02</ele>
        <time>2013-09-05T18:41:26Z</time>
      </trkpt>
      <trkpt lat="45.14464" lon="5.90735">
        <ele>1316.16</ele>
        <time>2013-09-05T18:41:44Z</time>
      </trkpt>
      <trkpt lat="45.14462" lon="5.9073">
        <ele>1313.96</ele>
        <time>2013-09-05T18:41:49Z</time>
      </trkpt>
      <trkpt lat="45.14463" lon="5.90722">
        <ele>1312.02</ele>
        <time>2013-09-05T18:41:53Z</time>
      </trkpt>
      <trkpt lat="45.14463" lon="5.90706">
        <ele>1307.87</ele>
        <time>2013-09-05T18:41:59Z</time>
      </trkpt>
      <trkpt lat="45.14464" lon="5.90683">
        <ele>1304.53</ele>
        <time>2013-09-05T18:42:11Z</time>
      </trkpt>
      <trkpt lat="45.14463" lon="5.90664">
        <ele>1300.86</ele>
        <time>2013-09-05T18:42:17Z</time>
      </trkpt>
      <trkpt lat="45.14463" lon="5.90662">
        <ele>1300.25</ele>
        <time>2013-09-05T18:42:18Z</time>
      </trkpt>
      <trkpt lat="45.14465" lon="5.90648">
        <ele>1296.59</ele>
        <time>2013-09-05T18:42:25Z</time>
      </trkpt>
      <trkpt lat="45.14466" lon="5.90646">
        <ele>1296.06</ele>
        <time>2013-09-05T18:42:26Z</time>
      </trkpt>
      <trkpt lat="45.14463" lon="5.90626">
        <ele>1292.36</ele>
        <time>2013-09-05T18:42:33Z</time>
      </trkpt>
      <trkpt lat="45.14459" lon="5.9061">
        <ele>1288.48</ele>
        <time>2013-09-05T18:42:39Z</time>
      </trkpt>
      <trkpt lat="45.14456" lon="5.90592">
        <ele>1285.91</ele>
        <time>2013-09-05T18:42:45Z</time>
      </trkpt>
      <trkpt lat="45.14458" lon="5.90567">
        <ele>1282.07</ele>
        <time>2013-09-05T18:42:53Z</time>
      </trkpt>
      <trkpt lat="45.14459" lon="5.90553">
        <ele>1278.86</ele>
        <time>2013-09-05T18:43:04Z</time>
      </trkpt>
      <trkpt lat="45.14459" lon="5.90536">
        <ele>1278.16</ele>
        <time>2013-09-05T18:43:17Z</time>
      </trkpt>
      <trkpt lat="45.1446" lon="5.90515">
        <ele>1276.34</ele>
        <time>2013-09-05T18:43:30Z</time>
      </trkpt>
      <trkpt lat="45.14459" lon="5.90498">
        <ele>1273.34</ele>
        <time>2013-09-05T18:43:36Z</time>
      </trkpt>
      <trkpt lat="45.14458" lon="5.90483">
        <ele>1269.99</ele>
        <time>2013-09-05T18:43:42Z</time>
      </trkpt>
      <trkpt lat="45.14457" lon="5.90477">
        <ele>1269.28</ele>
        <time>2013-09-05T18:43:44Z</time>
      </trkpt>
      <trkpt lat="45.14457" lon="5.90472">
        <ele>1268.91</ele>
        <time>2013-09-05T18:43:46Z</time>
      </trkpt>
      <trkpt lat="45.14456" lon="5.90463">
        <ele>1267.8</ele>
        <time>2013-09-05T18:43:52Z</time>
      </trkpt>
      <trkpt lat="45.14455" lon="5.90438">
        <ele>1265.19</ele>
        <time>2013-09-05T18:44:02Z</time>
      </trkpt>
      <trkpt lat="45.14451" lon="5.90425">
        <ele>1264.3</ele>
        <time>2013-09-05T18:44:08Z</time>
      </trkpt>
      <trkpt lat="45.14453" lon="5.90406">
        <ele>1261.23</ele>
        <time>2013-09-05T18:44:20Z</time>
      </trkpt>
      <trkpt lat="45.14454" lon="5.90401">
        <ele>1260.56</ele>
        <time>2013-09-05T18:44:40Z</time>
      </trkpt>
      <trkpt lat="45.14459" lon="5.90393">
        <ele>1258.49</ele>
        <time>2013-09-05T18:44:44Z</time>
      </trkpt>
      <trkpt lat="45.14467" lon="5.9037">
        <ele>1255.1</ele>
        <time>2013-09-05T18:44:51Z</time>
      </trkpt>
      <trkpt lat="45.14468" lon="5.90366">
        <ele>1254.3</ele>
        <time>2013-09-05T18:44:53Z</time>
      </trkpt>
      <trkpt lat="45.14473" lon="5.90355">
        <ele>1252.65</ele>
        <time>2013-09-05T18:44:57Z</time>
      </trkpt>
      <trkpt lat="45.14479" lon="5.90347">
        <ele>1251.36</ele>
        <time>2013-09-05T18:45:01Z</time>
      </trkpt>
      <trkpt lat="45.14482" lon="5.90341">
        <ele>1250.2</ele>
        <time>2013-09-05T18:45:04Z</time>
      </trkpt>
      <trkpt lat="45.14491" lon="5.9033">
        <ele>1247.23</ele>
        <time>2013-09-05T18:45:11Z</time>
      </trkpt>
      <trkpt lat="45.14497" lon="5.90306">
        <ele>1243.88</ele>
        <time>2013-09-05T18:45:22Z</time>
      </trkpt>
      <trkpt lat="45.14501" lon="5.90286">
        <ele>1240.1</ele>
        <time>2013-09-05T18:45:29Z</time>
      </trkpt>
      <trkpt lat="45.14504" lon="5.90259">
        <ele>1236.55</ele>
        <time>2013-09-05T18:45:38Z</time>
      </trkpt>
      <trkpt lat="45.14506" lon="5.90251">
        <ele>1235.1</ele>
        <time>2013-09-05T18:45:41Z</time>
      </trkpt>
      <trkpt lat="45.14511" lon="5.90239">
        <ele>1232.05</ele>
        <time>2013-09-05T18:45:51Z</time>
      </trkpt>
      <trkpt lat="45.14516" lon="5.90224">
        <ele>1228.64</ele>
        <time>2013-09-05T18:46:01Z</time>
      </trkpt>
      <trkpt lat="45.14527" lon="5.90206">
        <ele>1225.19</ele>
        <time>2013-09-05T18:46:15Z</time>
      </trkpt>
      <trkpt lat="45.14528" lon="5.90204">
        <ele>1224.7</ele>
        <time>2013-09-05T18:46:16Z</time>
      </trkpt>
      <trkpt lat="45.14537" lon="5.90183">
        <ele>1221.09</ele>
        <time>2013-09-05T18:46:31Z</time>
      </trkpt>
      <trkpt lat="45.14539" lon="5.90179">
        <ele>1220.1</ele>
        <time>2013-09-05T18:46:33Z</time>
      </trkpt>
      <trkpt lat="45.1454" lon="5.90161">
        <ele>1220.4</ele>
        <time>2013-09-05T18:46:46Z</time>
      </trkpt>
      <trkpt lat="45.14546" lon="5.90155">
        <ele>1220.34</ele>
        <time>2013-09-05T18:46:53Z</time>
      </trkpt>
      <trkpt lat="45.14557" lon="5.90134">
        <ele>1218.37</ele>
        <time>2013-09-05T18:47:04Z</time>
      </trkpt>
      <trkpt lat="45.14571" lon="5.90113">
        <ele>1216.68</ele>
        <time>2013-09-05T18:47:16Z</time>
      </trkpt>
      <trkpt lat="45.14586" lon="5.9009">
        <ele>1214.97</ele>
        <time>2013-09-05T18:47:27Z</time>
      </trkpt>
      <trkpt lat="45.14594" lon="5.90082">
        <ele>1214.33</ele>
        <time>2013-09-05T18:47:33Z</time>
      </trkpt>
      <trkpt lat="45.14605" lon="5.90049">
        <ele>1213.13</ele>
        <time>2013-09-05T18:47:45Z</time>
      </trkpt>
      <trkpt lat="45.14606" lon="5.90043">
        <ele>1212.69</ele>
        <time>2013-09-05T18:47:47Z</time>
      </trkpt>
      <trkpt lat="45.14615" lon="5.90025">
        <ele>1211.44</ele>
        <time>2013-09-05T18:47:58Z</time>
      </trkpt>
      <trkpt lat="45.1462" lon="5.90023">
        <ele>1210.99</ele>
        <time>2013-09-05T18:48:02Z</time>
      </trkpt>
      <trkpt lat="45.14634" lon="5.90006">
        <ele>1208.17</ele>
        <time>2013-09-05T18:48:14Z</time>
      </trkpt>
      <trkpt lat="45.14635" lon="5.8999">
        <ele>1206.36</ele>
        <time>2013-09-05T18:48:22Z</time>
      </trkpt>
      <trkpt lat="45.14642" lon="5.89962">
        <ele>1203.63</ele>
        <time>2013-09-05T18:48:36Z</time>
      </trkpt>
      <trkpt lat="45.14642" lon="5.89959">
        <ele>1203.41</ele>
        <time>2013-09-05T18:48:38Z</time>
      </trkpt>
      <trkpt lat="45.14655" lon="5.89935">
        <ele>1200.55</ele>
        <time>2013-09-05T18:48:52Z</time>
      </trkpt>
      <trkpt lat="45.14658" lon="5.89931">
        <ele>1200.25</ele>
        <time>2013-09-05T18:48:55Z</time>
      </trkpt>
      <trkpt lat="45.14667" lon="5.89914">
        <ele>1198.56</ele>
        <time>2013-09-05T18:49:05Z</time>
      </trkpt>
      <trkpt lat="45.14677" lon="5.89887">
        <ele>1196.09</ele>
        <time>2013-09-05T18:49:19Z</time>
      </trkpt>
      <trkpt lat="45.14681" lon="5.89875">
        <ele>1194.71</ele>
        <time>2013-09-05T18:49:26Z</time>
      </trkpt>
      <trkpt lat="45.14687" lon="5.89855">
        <ele>1192.92</ele>
        <time>2013-09-05T18:49:37Z</time>
      </trkpt>
      <trkpt lat="45.14688" lon="5.89846">
        <ele>1192.16</ele>
        <time>2013-09-05T18:49:41Z</time>
      </trkpt>
      <trkpt lat="45.14691" lon="5.89834">
        <ele>1190.7</ele>
        <time>2013-09-05T18:49:45Z</time>
      </trkpt>
      <trkpt lat="45.14696" lon="5.89822">
        <ele>1189.93</ele>
        <time>2013-09-05T18:49:51Z</time>
      </trkpt>
      <trkpt lat="45.14708" lon="5.89804">
        <ele>1187.92</ele>
        <time>2013-09-05T18:50:04Z</time>
      </trkpt>
      <trkpt lat="45.14712" lon="5.89801">
        <ele>1186.93</ele>
        <time>2013-09-05T18:50:08Z</time>
      </trkpt>
      <trkpt lat="45.14716" lon="5.89797">
        <ele>1186.91</ele>
        <time>2013-09-05T18:50:12Z</time>
      </trkpt>
      <trkpt lat="45.14725" lon="5.89789">
        <ele>1185.82</ele>
        <time>2013-09-05T18:50:17Z</time>
      </trkpt>
      <trkpt lat="45.14744" lon="5.89769">
        <ele>1182.76</ele>
        <time>2013-09-05T18:50:32Z</time>
      </trkpt>
      <trkpt lat="45.14745" lon="5.89768">
        <ele>1182.53</ele>
        <time>2013-09-05T18:50:33Z</time>
      </trkpt>
      <trkpt lat="45.14754" lon="5.89753">
        <ele>1180.2</ele>
        <time>2013-09-05T18:50:44Z</time>
      </trkpt>
      <trkpt lat="45.14761" lon="5.89743">
        <ele>1178.8</ele>
        <time>2013-09-05T18:50:50Z</time>
      </trkpt>
      <trkpt lat="45.14783" lon="5.89728">
        <ele>1175.63</ele>
        <time>2013-09-05T18:51:03Z</time>
      </trkpt>
      <trkpt lat="45.14804" lon="5.89715">
        <ele>1172.63</ele>
        <time>2013-09-05T18:51:16Z</time>
      </trkpt>
      <trkpt lat="45.14806" lon="5.89714">
        <ele>1172.35</ele>
        <time>2013-09-05T18:51:17Z</time>
      </trkpt>
      <trkpt lat="45.14812" lon="5.89711">
        <ele>1171.33</ele>
        <time>2013-09-05T18:51:21Z</time>
      </trkpt>
      <trkpt lat="45.14824" lon="5.89701">
        <ele>1169.83</ele>
        <time>2013-09-05T18:51:28Z</time>
      </trkpt>
      <trkpt lat="45.1484" lon="5.89679">
        <ele>1166.38</ele>
        <time>2013-09-05T18:51:37Z</time>
      </trkpt>
      <trkpt lat="45.14851" lon="5.89662">
        <ele>1163.9</ele>
        <time>2013-09-05T18:51:43Z</time>
      </trkpt>
      <trkpt lat="45.1487" lon="5.89637">
        <ele>1160.76</ele>
        <time>2013-09-05T18:51:52Z</time>
      </trkpt>
      <trkpt lat="45.14897" lon="5.89607">
        <ele>1158.73</ele>
        <time>2013-09-05T18:52:04Z</time>
      </trkpt>
      <trkpt lat="45.14911" lon="5.89584">
        <ele>1155.72</ele>
        <time>2013-09-05T18:52:12Z</time>
      </trkpt>
      <trkpt lat="45.14935" lon="5.89542">
        <ele>1153.78</ele>
        <time>2013-09-05T18:52:25Z</time>
      </trkpt>
      <trkpt lat="45.14935" lon="5.89516">
        <ele>1150.57</ele>
        <time>2013-09-05T18:52:38Z</time>
      </trkpt>
      <trkpt lat="45.14932" lon="5.89506">
        <ele>1147.44</ele>
        <time>2013-09-05T18:52:42Z</time>
      </trkpt>
      <trkpt lat="45.14923" lon="5.89487">
        <ele>1145.6</ele>
        <time>2013-09-05T18:52:49Z</time>
      </trkpt>
      <trkpt lat="45.14915" lon="5.89466">
        <ele>1142.16</ele>
        <time>2013-09-05T18:52:56Z</time>
      </trkpt>
      <trkpt lat="45.14911" lon="5.8946">
        <ele>1141.15</ele>
        <time>2013-09-05T18:52:58Z</time>
      </trkpt>
      <trkpt lat="45.14891" lon="5.8944">
        <ele>1137.45</ele>
        <time>2013-09-05T18:53:06Z</time>
      </trkpt>
      <trkpt lat="45.1487" lon="5.89418">
        <ele>1134.09</ele>
        <time>2013-09-05T18:53:13Z</time>
      </trkpt>
      <trkpt lat="45.14854" lon="5.89385">
        <ele>1130.85</ele>
        <time>2013-09-05T18:53:21Z</time>
      </trkpt>
      <trkpt lat="45.14836" lon="5.89362">
        <ele>1129.92</ele>
        <time>2013-09-05T18:53:33Z</time>
      </trkpt>
      <trkpt lat="45.14823" lon="5.89336">
        <ele>1129.51</ele>
        <time>2013-09-05T18:53:46Z</time>
      </trkpt>
      <trkpt lat="45.14817" lon="5.89326">
        <ele>1128.91</ele>
        <time>2013-09-05T18:53:51Z</time>
      </trkpt>
      <trkpt lat="45.14794" lon="5.89301">
        <ele>1128.34</ele>
        <time>2013-09-05T18:54:04Z</time>
      </trkpt>
      <trkpt lat="45.1479" lon="5.89296">
        <ele>1128.26</ele>
        <time>2013-09-05T18:54:07Z</time>
      </trkpt>
      <trkpt lat="45.14783" lon="5.89289">
        <ele>1127.88</ele>
        <time>2013-09-05T18:54:12Z</time>
      </trkpt>
      <trkpt lat="45.14774" lon="5.89264">
        <ele>1127.85</ele>
        <time>2013-09-05T18:54:25Z</time>
      </trkpt>
      <trkpt lat="45.14764" lon="5.89245">
        <ele>1127.42</ele>
        <time>2013-09-05T18:54:37Z</time>
      </trkpt>
      <trkpt lat="45.1476" lon="5.8923">
        <ele>1127.01</ele>
        <time>2013-09-05T18:54:43Z</time>
      </trkpt>
      <trkpt lat="45.14748" lon="5.89204">
        <ele>1123.66</ele>
        <time>2013-09-05T18:54:51Z</time>
      </trkpt>
      <trkpt lat="45.14745" lon="5.89186">
        <ele>1122.68</ele>
        <time>2013-09-05T18:55:01Z</time>
      </trkpt>
      <trkpt lat="45.14761" lon="5.8916">
        <ele>1124.16</ele>
        <time>2013-09-05T18:55:13Z</time>
      </trkpt>
      <trkpt lat="45.14772" lon="5.8914">
        <ele>1126.61</ele>
        <time>2013-09-05T18:55:26Z</time>
      </trkpt>
      <trkpt lat="45.14781" lon="5.89132">
        <ele>1128.28</ele>
        <time>2013-09-05T18:55:37Z</time>
      </trkpt>
      <trkpt lat="45.1479" lon="5.89126">
        <ele>1129.48</ele>
        <time>2013-09-05T18:55:44Z</time>
      </trkpt>
      <trkpt lat="45.14804" lon="5.89117">
        <ele>1129.91</ele>
        <time>2013-09-05T18:55:53Z</time>
      </trkpt>
      <trkpt lat="45.14814" lon="5.89107">
        <ele>1129.82</ele>
        <time>2013-09-05T18:55:59Z</time>
      </trkpt>
      <trkpt lat="45.14835" lon="5.89088">
        <ele>1129.66</ele>
        <time>2013-09-05T18:56:13Z</time>
      </trkpt>
      <trkpt lat="45.14862" lon="5.89071">
        <ele>1129.65</ele>
        <time>2013-09-05T18:56:26Z</time>
      </trkpt>
      <trkpt lat="45.14892" lon="5.89058">
        <ele>1127.36</ele>
        <time>2013-09-05T18:56:38Z</time>
      </trkpt>
      <trkpt lat="45.14919" lon="5.89038">
        <ele>1126.26</ele>
        <time>2013-09-05T18:56:49Z</time>
      </trkpt>
      <trkpt lat="45.14952" lon="5.89011">
        <ele>1124.59</ele>
        <time>2013-09-05T18:57:00Z</time>
      </trkpt>
      <trkpt lat="45.14976" lon="5.88999">
        <ele>1124.16</ele>
        <time>2013-09-05T18:57:11Z</time>
      </trkpt>
      <trkpt lat="45.15012" lon="5.88988">
        <ele>1123.73</ele>
        <time>2013-09-05T18:57:23Z</time>
      </trkpt>
      <trkpt lat="45.15039" lon="5.88979">
        <ele>1122.9</ele>
        <time>2013-09-05T18:57:40Z</time>
      </trkpt>
      <trkpt lat="45.15039" lon="5.88978">
        <ele>1122.63</ele>
        <time>2013-09-05T18:58:02Z</time>
      </trkpt>
      <trkpt lat="45.15041" lon="5.8898">
        <ele>1122.31</ele>
        <time>2013-09-05T18:58:36Z</time>
      </trkpt>
      <trkpt lat="45.15043" lon="5.8898">
        <ele>1120.19</ele>
        <time>2013-09-05T18:59:07Z</time>
      </trkpt>
      <trkpt lat="45.15051" lon="5.88972">
        <ele>1119.64</ele>
        <time>2013-09-05T18:59:14Z</time>
      </trkpt>
      <trkpt lat="45.15074" lon="5.88933">
        <ele>1118.78</ele>
        <time>2013-09-05T18:59:40Z</time>
      </trkpt>
      <trkpt lat="45.15107" lon="5.88903">
        <ele>1119.06</ele>
        <time>2013-09-05T19:00:06Z</time>
      </trkpt>
      <trkpt lat="45.15115" lon="5.88894">
        <ele>1118.91</ele>
        <time>2013-09-05T19:00:12Z</time>
      </trkpt>
      <trkpt lat="45.15143" lon="5.88869">
        <ele>1118.07</ele>
        <time>2013-09-05T19:00:28Z</time>
      </trkpt>
      <trkpt lat="45.1516" lon="5.88846">
        <ele>1117.1</ele>
        <time>2013-09-05T19:00:43Z</time>
      </trkpt>
      <trkpt lat="45.15165" lon="5.88821">
        <ele>1116.49</ele>
        <time>2013-09-05T19:00:57Z</time>
      </trkpt>
      <trkpt lat="45.15168" lon="5.88804">
        <ele>1116.26</ele>
        <time>2013-09-05T19:01:06Z</time>
      </trkpt>
      <trkpt lat="45.1517" lon="5.88799">
        <ele>1115.91</ele>
        <time>2013-09-05T19:01:09Z</time>
      </trkpt>
      <trkpt lat="45.15173" lon="5.88789">
        <ele>1116.06</ele>
        <time>2013-09-05T19:01:13Z</time>
      </trkpt>
      <trkpt lat="45.15176" lon="5.88773">
        <ele>1116.01</ele>
        <time>2013-09-05T19:01:19Z</time>
      </trkpt>
      <trkpt lat="45.15177" lon="5.88763">
        <ele>1115.92</ele>
        <time>2013-09-05T19:01:23Z</time>
      </trkpt>
      <trkpt lat="45.15178" lon="5.8875">
        <ele>1116.04</ele>
        <time>2013-09-05T19:01:29Z</time>
      </trkpt>
      <trkpt lat="45.15178" lon="5.8874">
        <ele>1116.03</ele>
        <time>2013-09-05T19:01:34Z</time>
      </trkpt>
      <trkpt lat="45.1518" lon="5.8871">
        <ele>1116.79</ele>
        <time>2013-09-05T19:01:49Z</time>
      </trkpt>
      <trkpt lat="45.15184" lon="5.88686">
        <ele>1117.16</ele>
        <time>2013-09-05T19:02:01Z</time>
      </trkpt>
      <trkpt lat="45.15185" lon="5.88684">
        <ele>1117.33</ele>
        <time>2013-09-05T19:02:02Z</time>
      </trkpt>
      <trkpt lat="45.1519" lon="5.88665">
        <ele>1117.94</ele>
        <time>2013-09-05T19:02:13Z</time>
      </trkpt>
      <trkpt lat="45.15194" lon="5.88661">
        <ele>1117.63</ele>
        <time>2013-09-05T19:02:25Z</time>
      </trkpt>
      <trkpt lat="45.15194" lon="5.88661">
        <ele>1117.57</ele>
        <time>2013-09-05T19:02:27Z</time>
      </trkpt>
    </trkseg>
  </trk>
</gpx>